<?xml version="1.0" encoding="UTF-8" standalone="no" ?>
<gpx xmlns="http://www.topografix.com/GPX/1/1" xmlns:xsi="http://www.w3.org/2001/XMLSchema-instance" xsi:schemaLocation="http://www.topografix.com/GPX/1/1 http://www.topografix.com/GPX/1/1/gpx.xsd" version="1.1" creator="VisuGPX - https://www.visugpx.com">
  <metadata>
    <name>Cantal</name>
  </metadata>
  <trk>
    <name><![CDATA[Vous suivez puy Basset Bastide (Cantal)]]></name>
    <trkseg>
      <trkpt lat="45.09861" lon="2.5271">
        <ele>897</ele>
        <time>2020-09-14T08:16:03Z</time>
      </trkpt>
      <trkpt lat="45.09854" lon="2.52705">
        <ele>899</ele>
        <time>2020-09-14T08:16:11Z</time>
      </trkpt>
      <trkpt lat="45.09848" lon="2.52697">
        <ele>898</ele>
        <time>2020-09-14T08:16:18Z</time>
      </trkpt>
      <trkpt lat="45.09842" lon="2.52689">
        <ele>898</ele>
        <time>2020-09-14T08:16:24Z</time>
      </trkpt>
      <trkpt lat="45.09837" lon="2.52679">
        <ele>898</ele>
        <time>2020-09-14T08:16:30Z</time>
      </trkpt>
      <trkpt lat="45.09832" lon="2.5267">
        <ele>900</ele>
        <time>2020-09-14T08:16:37Z</time>
      </trkpt>
      <trkpt lat="45.0983" lon="2.52658">
        <ele>901</ele>
        <time>2020-09-14T08:16:45Z</time>
      </trkpt>
      <trkpt lat="45.0983" lon="2.52646">
        <ele>900</ele>
        <time>2020-09-14T08:16:51Z</time>
      </trkpt>
      <trkpt lat="45.09826" lon="2.52635">
        <ele>901</ele>
        <time>2020-09-14T08:16:59Z</time>
      </trkpt>
      <trkpt lat="45.0982" lon="2.52627">
        <ele>900</ele>
        <time>2020-09-14T08:17:06Z</time>
      </trkpt>
      <trkpt lat="45.09816" lon="2.52617">
        <ele>901</ele>
        <time>2020-09-14T08:17:13Z</time>
      </trkpt>
      <trkpt lat="45.0981" lon="2.52609">
        <ele>901</ele>
        <time>2020-09-14T08:17:20Z</time>
      </trkpt>
      <trkpt lat="45.09806" lon="2.52599">
        <ele>901</ele>
        <time>2020-09-14T08:17:26Z</time>
      </trkpt>
      <trkpt lat="45.09801" lon="2.5259">
        <ele>902</ele>
        <time>2020-09-14T08:17:33Z</time>
      </trkpt>
      <trkpt lat="45.09795" lon="2.52581">
        <ele>902</ele>
        <time>2020-09-14T08:17:40Z</time>
      </trkpt>
      <trkpt lat="45.0979" lon="2.52572">
        <ele>902</ele>
        <time>2020-09-14T08:17:46Z</time>
      </trkpt>
      <trkpt lat="45.09786" lon="2.52564">
        <ele>903</ele>
        <time>2020-09-14T08:17:52Z</time>
      </trkpt>
      <trkpt lat="45.09779" lon="2.52556">
        <ele>904</ele>
        <time>2020-09-14T08:17:58Z</time>
      </trkpt>
      <trkpt lat="45.09771" lon="2.52561">
        <ele>905</ele>
        <time>2020-09-14T08:18:07Z</time>
      </trkpt>
      <trkpt lat="45.09767" lon="2.52571">
        <ele>907</ele>
        <time>2020-09-14T08:18:13Z</time>
      </trkpt>
      <trkpt lat="45.09769" lon="2.52583">
        <ele>908</ele>
        <time>2020-09-14T08:18:21Z</time>
      </trkpt>
      <trkpt lat="45.09769" lon="2.52594">
        <ele>910</ele>
        <time>2020-09-14T08:18:29Z</time>
      </trkpt>
      <trkpt lat="45.09769" lon="2.52606">
        <ele>912</ele>
        <time>2020-09-14T08:18:36Z</time>
      </trkpt>
      <trkpt lat="45.09768" lon="2.52617">
        <ele>915</ele>
        <time>2020-09-14T08:18:43Z</time>
      </trkpt>
      <trkpt lat="45.09766" lon="2.52628">
        <ele>915</ele>
        <time>2020-09-14T08:18:50Z</time>
      </trkpt>
      <trkpt lat="45.09762" lon="2.52639">
        <ele>916</ele>
        <time>2020-09-14T08:18:57Z</time>
      </trkpt>
      <trkpt lat="45.09761" lon="2.52651">
        <ele>916</ele>
        <time>2020-09-14T08:19:04Z</time>
      </trkpt>
      <trkpt lat="45.09756" lon="2.5266">
        <ele>917</ele>
        <time>2020-09-14T08:19:09Z</time>
      </trkpt>
      <trkpt lat="45.09751" lon="2.5267">
        <ele>917</ele>
        <time>2020-09-14T08:19:16Z</time>
      </trkpt>
      <trkpt lat="45.09746" lon="2.5268">
        <ele>918</ele>
        <time>2020-09-14T08:19:36Z</time>
      </trkpt>
      <trkpt lat="45.0974" lon="2.52687">
        <ele>919</ele>
        <time>2020-09-14T08:19:44Z</time>
      </trkpt>
      <trkpt lat="45.09732" lon="2.52692">
        <ele>920</ele>
        <time>2020-09-14T08:19:51Z</time>
      </trkpt>
      <trkpt lat="45.09725" lon="2.52699">
        <ele>920</ele>
        <time>2020-09-14T08:19:59Z</time>
      </trkpt>
      <trkpt lat="45.09718" lon="2.52704">
        <ele>919</ele>
        <time>2020-09-14T08:20:07Z</time>
      </trkpt>
      <trkpt lat="45.09709" lon="2.52708">
        <ele>920</ele>
        <time>2020-09-14T08:20:14Z</time>
      </trkpt>
      <trkpt lat="45.09702" lon="2.52714">
        <ele>920</ele>
        <time>2020-09-14T08:20:21Z</time>
      </trkpt>
      <trkpt lat="45.09693" lon="2.52717">
        <ele>922</ele>
        <time>2020-09-14T08:20:29Z</time>
      </trkpt>
      <trkpt lat="45.09685" lon="2.52719">
        <ele>922</ele>
        <time>2020-09-14T08:20:36Z</time>
      </trkpt>
      <trkpt lat="45.09677" lon="2.52722">
        <ele>924</ele>
        <time>2020-09-14T08:20:44Z</time>
      </trkpt>
      <trkpt lat="45.09669" lon="2.52727">
        <ele>925</ele>
        <time>2020-09-14T08:20:52Z</time>
      </trkpt>
      <trkpt lat="45.09661" lon="2.52731">
        <ele>926</ele>
        <time>2020-09-14T08:21:00Z</time>
      </trkpt>
      <trkpt lat="45.09654" lon="2.52737">
        <ele>928</ele>
        <time>2020-09-14T08:21:07Z</time>
      </trkpt>
      <trkpt lat="45.09647" lon="2.52743">
        <ele>929</ele>
        <time>2020-09-14T08:21:13Z</time>
      </trkpt>
      <trkpt lat="45.09642" lon="2.52751">
        <ele>930</ele>
        <time>2020-09-14T08:21:20Z</time>
      </trkpt>
      <trkpt lat="45.09637" lon="2.52761">
        <ele>932</ele>
        <time>2020-09-14T08:21:27Z</time>
      </trkpt>
      <trkpt lat="45.09634" lon="2.52773">
        <ele>934</ele>
        <time>2020-09-14T08:21:34Z</time>
      </trkpt>
      <trkpt lat="45.09633" lon="2.52784">
        <ele>935</ele>
        <time>2020-09-14T08:21:42Z</time>
      </trkpt>
      <trkpt lat="45.09632" lon="2.52797">
        <ele>936</ele>
        <time>2020-09-14T08:21:51Z</time>
      </trkpt>
      <trkpt lat="45.09629" lon="2.52808">
        <ele>935</ele>
        <time>2020-09-14T08:21:58Z</time>
      </trkpt>
      <trkpt lat="45.09628" lon="2.52819">
        <ele>936</ele>
        <time>2020-09-14T08:22:05Z</time>
      </trkpt>
      <trkpt lat="45.09625" lon="2.52831">
        <ele>936</ele>
        <time>2020-09-14T08:22:13Z</time>
      </trkpt>
      <trkpt lat="45.09625" lon="2.52842">
        <ele>936</ele>
        <time>2020-09-14T08:22:19Z</time>
      </trkpt>
      <trkpt lat="45.09623" lon="2.52855">
        <ele>937</ele>
        <time>2020-09-14T08:22:26Z</time>
      </trkpt>
      <trkpt lat="45.09621" lon="2.52867">
        <ele>937</ele>
        <time>2020-09-14T08:22:34Z</time>
      </trkpt>
      <trkpt lat="45.09619" lon="2.52878">
        <ele>939</ele>
        <time>2020-09-14T08:22:40Z</time>
      </trkpt>
      <trkpt lat="45.09618" lon="2.52889">
        <ele>939</ele>
        <time>2020-09-14T08:22:47Z</time>
      </trkpt>
      <trkpt lat="45.09615" lon="2.52901">
        <ele>938</ele>
        <time>2020-09-14T08:22:54Z</time>
      </trkpt>
      <trkpt lat="45.09613" lon="2.52911">
        <ele>938</ele>
        <time>2020-09-14T08:23:00Z</time>
      </trkpt>
      <trkpt lat="45.09612" lon="2.52922">
        <ele>938</ele>
        <time>2020-09-14T08:23:06Z</time>
      </trkpt>
      <trkpt lat="45.09611" lon="2.52934">
        <ele>938</ele>
        <time>2020-09-14T08:23:12Z</time>
      </trkpt>
      <trkpt lat="45.0961" lon="2.52944">
        <ele>937</ele>
        <time>2020-09-14T08:23:18Z</time>
      </trkpt>
      <trkpt lat="45.09609" lon="2.52955">
        <ele>939</ele>
        <time>2020-09-14T08:23:24Z</time>
      </trkpt>
      <trkpt lat="45.09608" lon="2.52967">
        <ele>938</ele>
        <time>2020-09-14T08:23:30Z</time>
      </trkpt>
      <trkpt lat="45.09607" lon="2.52979">
        <ele>938</ele>
        <time>2020-09-14T08:23:39Z</time>
      </trkpt>
      <trkpt lat="45.09606" lon="2.52991">
        <ele>937</ele>
        <time>2020-09-14T08:23:46Z</time>
      </trkpt>
      <trkpt lat="45.09604" lon="2.53003">
        <ele>937</ele>
        <time>2020-09-14T08:23:53Z</time>
      </trkpt>
      <trkpt lat="45.09603" lon="2.53014">
        <ele>936</ele>
        <time>2020-09-14T08:23:59Z</time>
      </trkpt>
      <trkpt lat="45.09601" lon="2.53025">
        <ele>935</ele>
        <time>2020-09-14T08:24:06Z</time>
      </trkpt>
      <trkpt lat="45.09599" lon="2.53038">
        <ele>935</ele>
        <time>2020-09-14T08:24:12Z</time>
      </trkpt>
      <trkpt lat="45.09595" lon="2.53049">
        <ele>936</ele>
        <time>2020-09-14T08:24:19Z</time>
      </trkpt>
      <trkpt lat="45.09592" lon="2.53058">
        <ele>936</ele>
        <time>2020-09-14T08:24:25Z</time>
      </trkpt>
      <trkpt lat="45.09587" lon="2.53069">
        <ele>936</ele>
        <time>2020-09-14T08:24:33Z</time>
      </trkpt>
      <trkpt lat="45.09583" lon="2.5308">
        <ele>936</ele>
        <time>2020-09-14T08:24:40Z</time>
      </trkpt>
      <trkpt lat="45.09578" lon="2.5309">
        <ele>935</ele>
        <time>2020-09-14T08:24:47Z</time>
      </trkpt>
      <trkpt lat="45.09574" lon="2.53101">
        <ele>936</ele>
        <time>2020-09-14T08:24:54Z</time>
      </trkpt>
      <trkpt lat="45.09571" lon="2.53113">
        <ele>935</ele>
        <time>2020-09-14T08:25:02Z</time>
      </trkpt>
      <trkpt lat="45.09568" lon="2.53123">
        <ele>936</ele>
        <time>2020-09-14T08:25:09Z</time>
      </trkpt>
      <trkpt lat="45.09566" lon="2.53135">
        <ele>935</ele>
        <time>2020-09-14T08:25:17Z</time>
      </trkpt>
      <trkpt lat="45.09564" lon="2.53146">
        <ele>935</ele>
        <time>2020-09-14T08:25:23Z</time>
      </trkpt>
      <trkpt lat="45.09561" lon="2.53157">
        <ele>934</ele>
        <time>2020-09-14T08:25:28Z</time>
      </trkpt>
      <trkpt lat="45.09559" lon="2.53168">
        <ele>935</ele>
        <time>2020-09-14T08:25:33Z</time>
      </trkpt>
      <trkpt lat="45.09558" lon="2.53169">
        <ele>927</ele>
        <time>2020-09-14T08:25:45Z</time>
      </trkpt>
      <trkpt lat="45.09553" lon="2.53202">
        <ele>934</ele>
        <time>2020-09-14T08:25:50Z</time>
      </trkpt>
      <trkpt lat="45.09552" lon="2.53214">
        <ele>934</ele>
        <time>2020-09-14T08:26:00Z</time>
      </trkpt>
      <trkpt lat="45.09551" lon="2.53226">
        <ele>932</ele>
        <time>2020-09-14T08:26:07Z</time>
      </trkpt>
      <trkpt lat="45.09552" lon="2.53236">
        <ele>931</ele>
        <time>2020-09-14T08:26:14Z</time>
      </trkpt>
      <trkpt lat="45.09553" lon="2.53247">
        <ele>930</ele>
        <time>2020-09-14T08:26:20Z</time>
      </trkpt>
      <trkpt lat="45.09554" lon="2.53257">
        <ele>931</ele>
        <time>2020-09-14T08:26:25Z</time>
      </trkpt>
      <trkpt lat="45.09554" lon="2.53269">
        <ele>930</ele>
        <time>2020-09-14T08:26:31Z</time>
      </trkpt>
      <trkpt lat="45.09554" lon="2.5328">
        <ele>930</ele>
        <time>2020-09-14T08:26:37Z</time>
      </trkpt>
      <trkpt lat="45.09555" lon="2.53292">
        <ele>930</ele>
        <time>2020-09-14T08:26:44Z</time>
      </trkpt>
      <trkpt lat="45.09556" lon="2.53305">
        <ele>932</ele>
        <time>2020-09-14T08:26:51Z</time>
      </trkpt>
      <trkpt lat="45.09558" lon="2.53317">
        <ele>933</ele>
        <time>2020-09-14T08:26:59Z</time>
      </trkpt>
      <trkpt lat="45.0956" lon="2.53329">
        <ele>933</ele>
        <time>2020-09-14T08:27:06Z</time>
      </trkpt>
      <trkpt lat="45.09561" lon="2.53341">
        <ele>933</ele>
        <time>2020-09-14T08:27:28Z</time>
      </trkpt>
      <trkpt lat="45.09564" lon="2.53353">
        <ele>932</ele>
        <time>2020-09-14T08:27:35Z</time>
      </trkpt>
      <trkpt lat="45.09564" lon="2.53365">
        <ele>932</ele>
        <time>2020-09-14T08:27:42Z</time>
      </trkpt>
      <trkpt lat="45.09564" lon="2.53377">
        <ele>931</ele>
        <time>2020-09-14T08:27:48Z</time>
      </trkpt>
      <trkpt lat="45.09564" lon="2.53388">
        <ele>932</ele>
        <time>2020-09-14T08:27:54Z</time>
      </trkpt>
      <trkpt lat="45.09562" lon="2.53398">
        <ele>933</ele>
        <time>2020-09-14T08:28:00Z</time>
      </trkpt>
      <trkpt lat="45.0956" lon="2.5341">
        <ele>933</ele>
        <time>2020-09-14T08:28:07Z</time>
      </trkpt>
      <trkpt lat="45.09559" lon="2.53422">
        <ele>932</ele>
        <time>2020-09-14T08:28:14Z</time>
      </trkpt>
      <trkpt lat="45.09556" lon="2.53434">
        <ele>931</ele>
        <time>2020-09-14T08:28:21Z</time>
      </trkpt>
      <trkpt lat="45.09555" lon="2.53445">
        <ele>929</ele>
        <time>2020-09-14T08:28:28Z</time>
      </trkpt>
      <trkpt lat="45.09554" lon="2.53456">
        <ele>929</ele>
        <time>2020-09-14T08:28:34Z</time>
      </trkpt>
      <trkpt lat="45.09552" lon="2.53466">
        <ele>929</ele>
        <time>2020-09-14T08:28:40Z</time>
      </trkpt>
      <trkpt lat="45.0955" lon="2.53478">
        <ele>930</ele>
        <time>2020-09-14T08:28:47Z</time>
      </trkpt>
      <trkpt lat="45.09547" lon="2.53488">
        <ele>931</ele>
        <time>2020-09-14T08:28:59Z</time>
      </trkpt>
      <trkpt lat="45.09543" lon="2.53499">
        <ele>930</ele>
        <time>2020-09-14T08:29:06Z</time>
      </trkpt>
      <trkpt lat="45.0954" lon="2.5351">
        <ele>929</ele>
        <time>2020-09-14T08:29:13Z</time>
      </trkpt>
      <trkpt lat="45.09536" lon="2.53519">
        <ele>930</ele>
        <time>2020-09-14T08:29:21Z</time>
      </trkpt>
      <trkpt lat="45.0953" lon="2.53528">
        <ele>929</ele>
        <time>2020-09-14T08:29:29Z</time>
      </trkpt>
      <trkpt lat="45.09524" lon="2.53535">
        <ele>929</ele>
        <time>2020-09-14T08:29:34Z</time>
      </trkpt>
      <trkpt lat="45.09516" lon="2.53541">
        <ele>929</ele>
        <time>2020-09-14T08:29:42Z</time>
      </trkpt>
      <trkpt lat="45.0951" lon="2.53548">
        <ele>930</ele>
        <time>2020-09-14T08:29:52Z</time>
      </trkpt>
      <trkpt lat="45.09505" lon="2.53556">
        <ele>931</ele>
        <time>2020-09-14T08:29:57Z</time>
      </trkpt>
      <trkpt lat="45.095" lon="2.53566">
        <ele>931</ele>
        <time>2020-09-14T08:30:04Z</time>
      </trkpt>
      <trkpt lat="45.09493" lon="2.53573">
        <ele>932</ele>
        <time>2020-09-14T08:30:11Z</time>
      </trkpt>
      <trkpt lat="45.09487" lon="2.5358">
        <ele>932</ele>
        <time>2020-09-14T08:30:17Z</time>
      </trkpt>
      <trkpt lat="45.0948" lon="2.53586">
        <ele>934</ele>
        <time>2020-09-14T08:30:24Z</time>
      </trkpt>
      <trkpt lat="45.09473" lon="2.53593">
        <ele>933</ele>
        <time>2020-09-14T08:30:30Z</time>
      </trkpt>
      <trkpt lat="45.09466" lon="2.53599">
        <ele>935</ele>
        <time>2020-09-14T08:30:37Z</time>
      </trkpt>
      <trkpt lat="45.09459" lon="2.53607">
        <ele>936</ele>
        <time>2020-09-14T08:30:45Z</time>
      </trkpt>
      <trkpt lat="45.09452" lon="2.53614">
        <ele>937</ele>
        <time>2020-09-14T08:30:51Z</time>
      </trkpt>
      <trkpt lat="45.09448" lon="2.53624">
        <ele>936</ele>
        <time>2020-09-14T08:30:58Z</time>
      </trkpt>
      <trkpt lat="45.09443" lon="2.53633">
        <ele>937</ele>
        <time>2020-09-14T08:31:04Z</time>
      </trkpt>
      <trkpt lat="45.09438" lon="2.53644">
        <ele>937</ele>
        <time>2020-09-14T08:31:11Z</time>
      </trkpt>
      <trkpt lat="45.09435" lon="2.53654">
        <ele>940</ele>
        <time>2020-09-14T08:31:20Z</time>
      </trkpt>
      <trkpt lat="45.09435" lon="2.53666">
        <ele>943</ele>
        <time>2020-09-14T08:31:28Z</time>
      </trkpt>
      <trkpt lat="45.09433" lon="2.53678">
        <ele>942</ele>
        <time>2020-09-14T08:31:35Z</time>
      </trkpt>
      <trkpt lat="45.09432" lon="2.5369">
        <ele>945</ele>
        <time>2020-09-14T08:31:46Z</time>
      </trkpt>
      <trkpt lat="45.09432" lon="2.53701">
        <ele>943</ele>
        <time>2020-09-14T08:31:52Z</time>
      </trkpt>
      <trkpt lat="45.09429" lon="2.53712">
        <ele>941</ele>
        <time>2020-09-14T08:31:59Z</time>
      </trkpt>
      <trkpt lat="45.09424" lon="2.53722">
        <ele>943</ele>
        <time>2020-09-14T08:32:06Z</time>
      </trkpt>
      <trkpt lat="45.09421" lon="2.53733">
        <ele>943</ele>
        <time>2020-09-14T08:32:14Z</time>
      </trkpt>
      <trkpt lat="45.09417" lon="2.53743">
        <ele>943</ele>
        <time>2020-09-14T08:32:20Z</time>
      </trkpt>
      <trkpt lat="45.09412" lon="2.53752">
        <ele>943</ele>
        <time>2020-09-14T08:32:26Z</time>
      </trkpt>
      <trkpt lat="45.0941" lon="2.53762">
        <ele>944</ele>
        <time>2020-09-14T08:32:33Z</time>
      </trkpt>
      <trkpt lat="45.09407" lon="2.53772">
        <ele>943</ele>
        <time>2020-09-14T08:32:40Z</time>
      </trkpt>
      <trkpt lat="45.09404" lon="2.53783">
        <ele>945</ele>
        <time>2020-09-14T08:32:46Z</time>
      </trkpt>
      <trkpt lat="45.09405" lon="2.53795">
        <ele>945</ele>
        <time>2020-09-14T08:32:52Z</time>
      </trkpt>
      <trkpt lat="45.09403" lon="2.53807">
        <ele>945</ele>
        <time>2020-09-14T08:32:59Z</time>
      </trkpt>
      <trkpt lat="45.09399" lon="2.53818">
        <ele>946</ele>
        <time>2020-09-14T08:33:04Z</time>
      </trkpt>
      <trkpt lat="45.09397" lon="2.53829">
        <ele>948</ele>
        <time>2020-09-14T08:33:10Z</time>
      </trkpt>
      <trkpt lat="45.094" lon="2.5384">
        <ele>948</ele>
        <time>2020-09-14T08:33:15Z</time>
      </trkpt>
      <trkpt lat="45.09402" lon="2.5385">
        <ele>950</ele>
        <time>2020-09-14T08:33:22Z</time>
      </trkpt>
      <trkpt lat="45.09402" lon="2.53862">
        <ele>951</ele>
        <time>2020-09-14T08:33:29Z</time>
      </trkpt>
      <trkpt lat="45.09405" lon="2.53874">
        <ele>952</ele>
        <time>2020-09-14T08:33:35Z</time>
      </trkpt>
      <trkpt lat="45.09407" lon="2.53885">
        <ele>953</ele>
        <time>2020-09-14T08:33:41Z</time>
      </trkpt>
      <trkpt lat="45.09408" lon="2.53896">
        <ele>952</ele>
        <time>2020-09-14T08:33:47Z</time>
      </trkpt>
      <trkpt lat="45.09411" lon="2.53908">
        <ele>952</ele>
        <time>2020-09-14T08:33:55Z</time>
      </trkpt>
      <trkpt lat="45.09415" lon="2.5392">
        <ele>954</ele>
        <time>2020-09-14T08:34:01Z</time>
      </trkpt>
      <trkpt lat="45.09418" lon="2.53931">
        <ele>955</ele>
        <time>2020-09-14T08:34:09Z</time>
      </trkpt>
      <trkpt lat="45.0942" lon="2.5394">
        <ele>956</ele>
        <time>2020-09-14T08:34:14Z</time>
      </trkpt>
      <trkpt lat="45.09423" lon="2.53951">
        <ele>957</ele>
        <time>2020-09-14T08:34:21Z</time>
      </trkpt>
      <trkpt lat="45.09426" lon="2.53962">
        <ele>958</ele>
        <time>2020-09-14T08:34:28Z</time>
      </trkpt>
      <trkpt lat="45.09429" lon="2.53972">
        <ele>957</ele>
        <time>2020-09-14T08:34:34Z</time>
      </trkpt>
      <trkpt lat="45.09429" lon="2.53985">
        <ele>958</ele>
        <time>2020-09-14T08:34:41Z</time>
      </trkpt>
      <trkpt lat="45.09429" lon="2.53996">
        <ele>959</ele>
        <time>2020-09-14T08:34:48Z</time>
      </trkpt>
      <trkpt lat="45.09429" lon="2.54008">
        <ele>960</ele>
        <time>2020-09-14T08:34:56Z</time>
      </trkpt>
      <trkpt lat="45.09426" lon="2.54019">
        <ele>962</ele>
        <time>2020-09-14T08:35:03Z</time>
      </trkpt>
      <trkpt lat="45.09425" lon="2.54031">
        <ele>961</ele>
        <time>2020-09-14T08:35:09Z</time>
      </trkpt>
      <trkpt lat="45.09423" lon="2.54042">
        <ele>960</ele>
        <time>2020-09-14T08:35:15Z</time>
      </trkpt>
      <trkpt lat="45.09419" lon="2.54052">
        <ele>959</ele>
        <time>2020-09-14T08:35:23Z</time>
      </trkpt>
      <trkpt lat="45.09416" lon="2.54062">
        <ele>960</ele>
        <time>2020-09-14T08:35:29Z</time>
      </trkpt>
      <trkpt lat="45.09413" lon="2.54072">
        <ele>961</ele>
        <time>2020-09-14T08:35:35Z</time>
      </trkpt>
      <trkpt lat="45.09409" lon="2.54084">
        <ele>962</ele>
        <time>2020-09-14T08:35:42Z</time>
      </trkpt>
      <trkpt lat="45.0941" lon="2.54096">
        <ele>962</ele>
        <time>2020-09-14T08:35:48Z</time>
      </trkpt>
      <trkpt lat="45.0941" lon="2.54108">
        <ele>961</ele>
        <time>2020-09-14T08:35:54Z</time>
      </trkpt>
      <trkpt lat="45.09409" lon="2.54119">
        <ele>963</ele>
        <time>2020-09-14T08:36:00Z</time>
      </trkpt>
      <trkpt lat="45.09409" lon="2.54131">
        <ele>963</ele>
        <time>2020-09-14T08:36:06Z</time>
      </trkpt>
      <trkpt lat="45.09407" lon="2.54141">
        <ele>963</ele>
        <time>2020-09-14T08:36:12Z</time>
      </trkpt>
      <trkpt lat="45.09405" lon="2.54153">
        <ele>962</ele>
        <time>2020-09-14T08:36:18Z</time>
      </trkpt>
      <trkpt lat="45.09404" lon="2.54165">
        <ele>963</ele>
        <time>2020-09-14T08:36:25Z</time>
      </trkpt>
      <trkpt lat="45.09402" lon="2.54178">
        <ele>962</ele>
        <time>2020-09-14T08:36:31Z</time>
      </trkpt>
      <trkpt lat="45.09402" lon="2.5419">
        <ele>963</ele>
        <time>2020-09-14T08:36:38Z</time>
      </trkpt>
      <trkpt lat="45.094" lon="2.54202">
        <ele>963</ele>
        <time>2020-09-14T08:36:47Z</time>
      </trkpt>
      <trkpt lat="45.094" lon="2.54213">
        <ele>964</ele>
        <time>2020-09-14T08:36:53Z</time>
      </trkpt>
      <trkpt lat="45.09398" lon="2.54226">
        <ele>967</ele>
        <time>2020-09-14T08:37:01Z</time>
      </trkpt>
      <trkpt lat="45.09396" lon="2.54236">
        <ele>967</ele>
        <time>2020-09-14T08:37:08Z</time>
      </trkpt>
      <trkpt lat="45.09395" lon="2.54246">
        <ele>967</ele>
        <time>2020-09-14T08:37:13Z</time>
      </trkpt>
      <trkpt lat="45.09394" lon="2.54259">
        <ele>968</ele>
        <time>2020-09-14T08:37:20Z</time>
      </trkpt>
      <trkpt lat="45.09396" lon="2.54271">
        <ele>968</ele>
        <time>2020-09-14T08:37:26Z</time>
      </trkpt>
      <trkpt lat="45.09397" lon="2.54282">
        <ele>969</ele>
        <time>2020-09-14T08:37:34Z</time>
      </trkpt>
      <trkpt lat="45.09399" lon="2.54294">
        <ele>969</ele>
        <time>2020-09-14T08:37:39Z</time>
      </trkpt>
      <trkpt lat="45.09403" lon="2.54306">
        <ele>969</ele>
        <time>2020-09-14T08:37:47Z</time>
      </trkpt>
      <trkpt lat="45.09403" lon="2.54318">
        <ele>970</ele>
        <time>2020-09-14T08:37:55Z</time>
      </trkpt>
      <trkpt lat="45.094" lon="2.54329">
        <ele>971</ele>
        <time>2020-09-14T08:38:03Z</time>
      </trkpt>
      <trkpt lat="45.09399" lon="2.54342">
        <ele>972</ele>
        <time>2020-09-14T08:38:10Z</time>
      </trkpt>
      <trkpt lat="45.09398" lon="2.54354">
        <ele>973</ele>
        <time>2020-09-14T08:38:18Z</time>
      </trkpt>
      <trkpt lat="45.09396" lon="2.54366">
        <ele>973</ele>
        <time>2020-09-14T08:38:25Z</time>
      </trkpt>
      <trkpt lat="45.09393" lon="2.54376">
        <ele>974</ele>
        <time>2020-09-14T08:38:34Z</time>
      </trkpt>
      <trkpt lat="45.09387" lon="2.54383">
        <ele>980</ele>
        <time>2020-09-14T08:38:40Z</time>
      </trkpt>
      <trkpt lat="45.09379" lon="2.54388">
        <ele>986</ele>
        <time>2020-09-14T08:38:47Z</time>
      </trkpt>
      <trkpt lat="45.09373" lon="2.54396">
        <ele>985</ele>
        <time>2020-09-14T08:38:54Z</time>
      </trkpt>
      <trkpt lat="45.09368" lon="2.54406">
        <ele>982</ele>
        <time>2020-09-14T08:39:02Z</time>
      </trkpt>
      <trkpt lat="45.09363" lon="2.54417">
        <ele>981</ele>
        <time>2020-09-14T08:39:10Z</time>
      </trkpt>
      <trkpt lat="45.0936" lon="2.54428">
        <ele>982</ele>
        <time>2020-09-14T08:39:18Z</time>
      </trkpt>
      <trkpt lat="45.09359" lon="2.54439">
        <ele>981</ele>
        <time>2020-09-14T08:39:26Z</time>
      </trkpt>
      <trkpt lat="45.09357" lon="2.54452">
        <ele>984</ele>
        <time>2020-09-14T08:39:33Z</time>
      </trkpt>
      <trkpt lat="45.09355" lon="2.54463">
        <ele>984</ele>
        <time>2020-09-14T08:39:42Z</time>
      </trkpt>
      <trkpt lat="45.09348" lon="2.54472">
        <ele>984</ele>
        <time>2020-09-14T08:39:49Z</time>
      </trkpt>
      <trkpt lat="45.09345" lon="2.54482">
        <ele>985</ele>
        <time>2020-09-14T08:39:57Z</time>
      </trkpt>
      <trkpt lat="45.09339" lon="2.54491">
        <ele>985</ele>
        <time>2020-09-14T08:40:05Z</time>
      </trkpt>
      <trkpt lat="45.09334" lon="2.54501">
        <ele>987</ele>
        <time>2020-09-14T08:40:13Z</time>
      </trkpt>
      <trkpt lat="45.09329" lon="2.5451">
        <ele>988</ele>
        <time>2020-09-14T08:40:20Z</time>
      </trkpt>
      <trkpt lat="45.09325" lon="2.5452">
        <ele>989</ele>
        <time>2020-09-14T08:40:27Z</time>
      </trkpt>
      <trkpt lat="45.09323" lon="2.54531">
        <ele>990</ele>
        <time>2020-09-14T08:40:34Z</time>
      </trkpt>
      <trkpt lat="45.09321" lon="2.54542">
        <ele>991</ele>
        <time>2020-09-14T08:40:40Z</time>
      </trkpt>
      <trkpt lat="45.09319" lon="2.54554">
        <ele>992</ele>
        <time>2020-09-14T08:40:49Z</time>
      </trkpt>
      <trkpt lat="45.09318" lon="2.54565">
        <ele>992</ele>
        <time>2020-09-14T08:40:56Z</time>
      </trkpt>
      <trkpt lat="45.09318" lon="2.54577">
        <ele>992</ele>
        <time>2020-09-14T08:41:04Z</time>
      </trkpt>
      <trkpt lat="45.09317" lon="2.54588">
        <ele>993</ele>
        <time>2020-09-14T08:41:12Z</time>
      </trkpt>
      <trkpt lat="45.09315" lon="2.546">
        <ele>994</ele>
        <time>2020-09-14T08:41:19Z</time>
      </trkpt>
      <trkpt lat="45.09314" lon="2.54612">
        <ele>995</ele>
        <time>2020-09-14T08:41:26Z</time>
      </trkpt>
      <trkpt lat="45.09314" lon="2.54624">
        <ele>997</ele>
        <time>2020-09-14T08:41:33Z</time>
      </trkpt>
      <trkpt lat="45.09314" lon="2.54636">
        <ele>998</ele>
        <time>2020-09-14T08:41:42Z</time>
      </trkpt>
      <trkpt lat="45.09316" lon="2.54648">
        <ele>998</ele>
        <time>2020-09-14T08:41:49Z</time>
      </trkpt>
      <trkpt lat="45.09319" lon="2.5466">
        <ele>999</ele>
        <time>2020-09-14T08:41:56Z</time>
      </trkpt>
      <trkpt lat="45.09322" lon="2.54671">
        <ele>1000</ele>
        <time>2020-09-14T08:42:04Z</time>
      </trkpt>
      <trkpt lat="45.09325" lon="2.54682">
        <ele>1000</ele>
        <time>2020-09-14T08:42:12Z</time>
      </trkpt>
      <trkpt lat="45.09329" lon="2.54693">
        <ele>1004</ele>
        <time>2020-09-14T08:42:21Z</time>
      </trkpt>
      <trkpt lat="45.09334" lon="2.54703">
        <ele>1005</ele>
        <time>2020-09-14T08:42:30Z</time>
      </trkpt>
      <trkpt lat="45.09336" lon="2.54715">
        <ele>1006</ele>
        <time>2020-09-14T08:42:38Z</time>
      </trkpt>
      <trkpt lat="45.09338" lon="2.54726">
        <ele>1007</ele>
        <time>2020-09-14T08:42:45Z</time>
      </trkpt>
      <trkpt lat="45.09339" lon="2.54739">
        <ele>1005</ele>
        <time>2020-09-14T08:42:52Z</time>
      </trkpt>
      <trkpt lat="45.09338" lon="2.5475">
        <ele>1004</ele>
        <time>2020-09-14T08:42:58Z</time>
      </trkpt>
      <trkpt lat="45.09338" lon="2.54762">
        <ele>1005</ele>
        <time>2020-09-14T08:43:06Z</time>
      </trkpt>
      <trkpt lat="45.09336" lon="2.54774">
        <ele>1005</ele>
        <time>2020-09-14T08:43:14Z</time>
      </trkpt>
      <trkpt lat="45.09335" lon="2.54785">
        <ele>1005</ele>
        <time>2020-09-14T08:43:21Z</time>
      </trkpt>
      <trkpt lat="45.09334" lon="2.54797">
        <ele>1005</ele>
        <time>2020-09-14T08:43:27Z</time>
      </trkpt>
      <trkpt lat="45.09332" lon="2.54808">
        <ele>1005</ele>
        <time>2020-09-14T08:43:32Z</time>
      </trkpt>
      <trkpt lat="45.09329" lon="2.54818">
        <ele>1007</ele>
        <time>2020-09-14T08:43:44Z</time>
      </trkpt>
      <trkpt lat="45.09325" lon="2.5483">
        <ele>1008</ele>
        <time>2020-09-14T08:43:51Z</time>
      </trkpt>
      <trkpt lat="45.09322" lon="2.54842">
        <ele>1007</ele>
        <time>2020-09-14T08:43:58Z</time>
      </trkpt>
      <trkpt lat="45.09318" lon="2.54852">
        <ele>1007</ele>
        <time>2020-09-14T08:44:07Z</time>
      </trkpt>
      <trkpt lat="45.09318" lon="2.54863">
        <ele>1007</ele>
        <time>2020-09-14T08:44:12Z</time>
      </trkpt>
      <trkpt lat="45.09316" lon="2.54875">
        <ele>1007</ele>
        <time>2020-09-14T08:44:18Z</time>
      </trkpt>
      <trkpt lat="45.09316" lon="2.54888">
        <ele>1007</ele>
        <time>2020-09-14T08:44:24Z</time>
      </trkpt>
      <trkpt lat="45.09317" lon="2.54899">
        <ele>1007</ele>
        <time>2020-09-14T08:44:31Z</time>
      </trkpt>
      <trkpt lat="45.09317" lon="2.54912">
        <ele>1007</ele>
        <time>2020-09-14T08:44:38Z</time>
      </trkpt>
      <trkpt lat="45.09315" lon="2.54924">
        <ele>1008</ele>
        <time>2020-09-14T08:44:45Z</time>
      </trkpt>
      <trkpt lat="45.09309" lon="2.54933">
        <ele>1007</ele>
        <time>2020-09-14T08:44:51Z</time>
      </trkpt>
      <trkpt lat="45.09304" lon="2.54942">
        <ele>1005</ele>
        <time>2020-09-14T08:44:57Z</time>
      </trkpt>
      <trkpt lat="45.09297" lon="2.5495">
        <ele>1004</ele>
        <time>2020-09-14T08:45:04Z</time>
      </trkpt>
      <trkpt lat="45.09293" lon="2.54961">
        <ele>1004</ele>
        <time>2020-09-14T08:45:11Z</time>
      </trkpt>
      <trkpt lat="45.09289" lon="2.54972">
        <ele>1004</ele>
        <time>2020-09-14T08:45:18Z</time>
      </trkpt>
      <trkpt lat="45.09285" lon="2.54983">
        <ele>1002</ele>
        <time>2020-09-14T08:45:25Z</time>
      </trkpt>
      <trkpt lat="45.09281" lon="2.54993">
        <ele>1002</ele>
        <time>2020-09-14T08:45:37Z</time>
      </trkpt>
      <trkpt lat="45.09276" lon="2.55003">
        <ele>1002</ele>
        <time>2020-09-14T08:45:43Z</time>
      </trkpt>
      <trkpt lat="45.09273" lon="2.55014">
        <ele>1001</ele>
        <time>2020-09-14T08:45:50Z</time>
      </trkpt>
      <trkpt lat="45.09269" lon="2.55025">
        <ele>1001</ele>
        <time>2020-09-14T08:45:57Z</time>
      </trkpt>
      <trkpt lat="45.09266" lon="2.55034">
        <ele>1001</ele>
        <time>2020-09-14T08:46:02Z</time>
      </trkpt>
      <trkpt lat="45.09263" lon="2.55045">
        <ele>1000</ele>
        <time>2020-09-14T08:46:09Z</time>
      </trkpt>
      <trkpt lat="45.0926" lon="2.55055">
        <ele>1000</ele>
        <time>2020-09-14T08:46:15Z</time>
      </trkpt>
      <trkpt lat="45.09259" lon="2.55067">
        <ele>999</ele>
        <time>2020-09-14T08:46:22Z</time>
      </trkpt>
      <trkpt lat="45.09257" lon="2.55078">
        <ele>999</ele>
        <time>2020-09-14T08:46:27Z</time>
      </trkpt>
      <trkpt lat="45.09257" lon="2.5509">
        <ele>998</ele>
        <time>2020-09-14T08:46:34Z</time>
      </trkpt>
      <trkpt lat="45.09258" lon="2.55103">
        <ele>998</ele>
        <time>2020-09-14T08:46:41Z</time>
      </trkpt>
      <trkpt lat="45.0926" lon="2.55115">
        <ele>997</ele>
        <time>2020-09-14T08:46:48Z</time>
      </trkpt>
      <trkpt lat="45.09263" lon="2.55126">
        <ele>997</ele>
        <time>2020-09-14T08:46:55Z</time>
      </trkpt>
      <trkpt lat="45.09267" lon="2.55136">
        <ele>997</ele>
        <time>2020-09-14T08:47:01Z</time>
      </trkpt>
      <trkpt lat="45.0927" lon="2.55147">
        <ele>996</ele>
        <time>2020-09-14T08:47:08Z</time>
      </trkpt>
      <trkpt lat="45.09273" lon="2.55159">
        <ele>995</ele>
        <time>2020-09-14T08:47:15Z</time>
      </trkpt>
      <trkpt lat="45.09275" lon="2.55169">
        <ele>995</ele>
        <time>2020-09-14T08:47:21Z</time>
      </trkpt>
      <trkpt lat="45.09277" lon="2.55181">
        <ele>995</ele>
        <time>2020-09-14T08:47:27Z</time>
      </trkpt>
      <trkpt lat="45.09278" lon="2.55192">
        <ele>994</ele>
        <time>2020-09-14T08:47:33Z</time>
      </trkpt>
      <trkpt lat="45.0928" lon="2.55205">
        <ele>994</ele>
        <time>2020-09-14T08:47:40Z</time>
      </trkpt>
      <trkpt lat="45.09282" lon="2.55216">
        <ele>993</ele>
        <time>2020-09-14T08:47:47Z</time>
      </trkpt>
      <trkpt lat="45.09283" lon="2.55225">
        <ele>993</ele>
        <time>2020-09-14T08:47:52Z</time>
      </trkpt>
      <trkpt lat="45.09285" lon="2.55236">
        <ele>993</ele>
        <time>2020-09-14T08:47:58Z</time>
      </trkpt>
      <trkpt lat="45.09286" lon="2.55246">
        <ele>993</ele>
        <time>2020-09-14T08:48:04Z</time>
      </trkpt>
      <trkpt lat="45.09289" lon="2.55257">
        <ele>992</ele>
        <time>2020-09-14T08:48:10Z</time>
      </trkpt>
      <trkpt lat="45.09293" lon="2.55268">
        <ele>991</ele>
        <time>2020-09-14T08:48:17Z</time>
      </trkpt>
      <trkpt lat="45.09296" lon="2.55275">
        <ele>990</ele>
        <time>2020-09-14T08:48:22Z</time>
      </trkpt>
      <trkpt lat="45.09301" lon="2.55285">
        <ele>989</ele>
        <time>2020-09-14T08:48:29Z</time>
      </trkpt>
      <trkpt lat="45.09307" lon="2.55295">
        <ele>990</ele>
        <time>2020-09-14T08:48:36Z</time>
      </trkpt>
      <trkpt lat="45.09312" lon="2.55303">
        <ele>990</ele>
        <time>2020-09-14T08:48:42Z</time>
      </trkpt>
      <trkpt lat="45.09317" lon="2.55312">
        <ele>990</ele>
        <time>2020-09-14T08:48:47Z</time>
      </trkpt>
      <trkpt lat="45.09322" lon="2.55322">
        <ele>989</ele>
        <time>2020-09-14T08:48:54Z</time>
      </trkpt>
      <trkpt lat="45.09328" lon="2.55332">
        <ele>988</ele>
        <time>2020-09-14T08:49:01Z</time>
      </trkpt>
      <trkpt lat="45.0933" lon="2.5534">
        <ele>987</ele>
        <time>2020-09-14T08:49:07Z</time>
      </trkpt>
      <trkpt lat="45.09333" lon="2.55351">
        <ele>987</ele>
        <time>2020-09-14T08:49:12Z</time>
      </trkpt>
      <trkpt lat="45.09336" lon="2.55363">
        <ele>986</ele>
        <time>2020-09-14T08:49:20Z</time>
      </trkpt>
      <trkpt lat="45.09337" lon="2.55375">
        <ele>985</ele>
        <time>2020-09-14T08:49:26Z</time>
      </trkpt>
      <trkpt lat="45.09336" lon="2.55386">
        <ele>985</ele>
        <time>2020-09-14T08:49:32Z</time>
      </trkpt>
      <trkpt lat="45.09332" lon="2.55397">
        <ele>985</ele>
        <time>2020-09-14T08:49:37Z</time>
      </trkpt>
      <trkpt lat="45.09329" lon="2.55408">
        <ele>984</ele>
        <time>2020-09-14T08:49:43Z</time>
      </trkpt>
      <trkpt lat="45.09325" lon="2.55418">
        <ele>983</ele>
        <time>2020-09-14T08:49:49Z</time>
      </trkpt>
      <trkpt lat="45.09321" lon="2.55429">
        <ele>983</ele>
        <time>2020-09-14T08:49:56Z</time>
      </trkpt>
      <trkpt lat="45.09319" lon="2.5544">
        <ele>983</ele>
        <time>2020-09-14T08:50:02Z</time>
      </trkpt>
      <trkpt lat="45.09319" lon="2.55452">
        <ele>982</ele>
        <time>2020-09-14T08:50:08Z</time>
      </trkpt>
      <trkpt lat="45.09318" lon="2.55463">
        <ele>981</ele>
        <time>2020-09-14T08:50:14Z</time>
      </trkpt>
      <trkpt lat="45.09319" lon="2.55474">
        <ele>980</ele>
        <time>2020-09-14T08:50:20Z</time>
      </trkpt>
      <trkpt lat="45.0932" lon="2.55486">
        <ele>980</ele>
        <time>2020-09-14T08:50:26Z</time>
      </trkpt>
      <trkpt lat="45.0932" lon="2.55498">
        <ele>980</ele>
        <time>2020-09-14T08:50:32Z</time>
      </trkpt>
      <trkpt lat="45.0932" lon="2.55509">
        <ele>979</ele>
        <time>2020-09-14T08:50:38Z</time>
      </trkpt>
      <trkpt lat="45.09321" lon="2.5552">
        <ele>978</ele>
        <time>2020-09-14T08:50:43Z</time>
      </trkpt>
      <trkpt lat="45.09322" lon="2.55531">
        <ele>977</ele>
        <time>2020-09-14T08:50:49Z</time>
      </trkpt>
      <trkpt lat="45.09322" lon="2.55543">
        <ele>977</ele>
        <time>2020-09-14T08:50:55Z</time>
      </trkpt>
      <trkpt lat="45.09323" lon="2.55555">
        <ele>977</ele>
        <time>2020-09-14T08:51:01Z</time>
      </trkpt>
      <trkpt lat="45.09322" lon="2.55568">
        <ele>976</ele>
        <time>2020-09-14T08:51:08Z</time>
      </trkpt>
      <trkpt lat="45.09321" lon="2.5558">
        <ele>975</ele>
        <time>2020-09-14T08:51:14Z</time>
      </trkpt>
      <trkpt lat="45.0932" lon="2.55592">
        <ele>975</ele>
        <time>2020-09-14T08:51:20Z</time>
      </trkpt>
      <trkpt lat="45.09318" lon="2.55603">
        <ele>975</ele>
        <time>2020-09-14T08:51:26Z</time>
      </trkpt>
      <trkpt lat="45.09315" lon="2.55613">
        <ele>973</ele>
        <time>2020-09-14T08:51:32Z</time>
      </trkpt>
      <trkpt lat="45.09313" lon="2.55625">
        <ele>972</ele>
        <time>2020-09-14T08:51:39Z</time>
      </trkpt>
      <trkpt lat="45.0931" lon="2.55636">
        <ele>973</ele>
        <time>2020-09-14T08:51:45Z</time>
      </trkpt>
      <trkpt lat="45.09309" lon="2.55648">
        <ele>973</ele>
        <time>2020-09-14T08:51:52Z</time>
      </trkpt>
      <trkpt lat="45.09307" lon="2.5566">
        <ele>972</ele>
        <time>2020-09-14T08:51:59Z</time>
      </trkpt>
      <trkpt lat="45.09306" lon="2.55671">
        <ele>971</ele>
        <time>2020-09-14T08:52:05Z</time>
      </trkpt>
      <trkpt lat="45.09304" lon="2.55683">
        <ele>971</ele>
        <time>2020-09-14T08:52:11Z</time>
      </trkpt>
      <trkpt lat="45.09303" lon="2.55694">
        <ele>971</ele>
        <time>2020-09-14T08:52:17Z</time>
      </trkpt>
      <trkpt lat="45.093" lon="2.55706">
        <ele>971</ele>
        <time>2020-09-14T08:52:23Z</time>
      </trkpt>
      <trkpt lat="45.09299" lon="2.55718">
        <ele>971</ele>
        <time>2020-09-14T08:52:30Z</time>
      </trkpt>
      <trkpt lat="45.09297" lon="2.55731">
        <ele>971</ele>
        <time>2020-09-14T08:52:36Z</time>
      </trkpt>
      <trkpt lat="45.09296" lon="2.55742">
        <ele>970</ele>
        <time>2020-09-14T08:52:42Z</time>
      </trkpt>
      <trkpt lat="45.09294" lon="2.55753">
        <ele>968</ele>
        <time>2020-09-14T08:52:48Z</time>
      </trkpt>
      <trkpt lat="45.09293" lon="2.55765">
        <ele>966</ele>
        <time>2020-09-14T08:52:54Z</time>
      </trkpt>
      <trkpt lat="45.09291" lon="2.55777">
        <ele>966</ele>
        <time>2020-09-14T08:53:01Z</time>
      </trkpt>
      <trkpt lat="45.09289" lon="2.55789">
        <ele>965</ele>
        <time>2020-09-14T08:53:07Z</time>
      </trkpt>
      <trkpt lat="45.09287" lon="2.55799">
        <ele>965</ele>
        <time>2020-09-14T08:53:12Z</time>
      </trkpt>
      <trkpt lat="45.09285" lon="2.55811">
        <ele>966</ele>
        <time>2020-09-14T08:53:18Z</time>
      </trkpt>
      <trkpt lat="45.09282" lon="2.55823">
        <ele>965</ele>
        <time>2020-09-14T08:53:25Z</time>
      </trkpt>
      <trkpt lat="45.0928" lon="2.55834">
        <ele>964</ele>
        <time>2020-09-14T08:53:30Z</time>
      </trkpt>
      <trkpt lat="45.09279" lon="2.55845">
        <ele>964</ele>
        <time>2020-09-14T08:53:37Z</time>
      </trkpt>
      <trkpt lat="45.09276" lon="2.55855">
        <ele>964</ele>
        <time>2020-09-14T08:53:42Z</time>
      </trkpt>
      <trkpt lat="45.09273" lon="2.55866">
        <ele>963</ele>
        <time>2020-09-14T08:53:49Z</time>
      </trkpt>
      <trkpt lat="45.09271" lon="2.55877">
        <ele>963</ele>
        <time>2020-09-14T08:53:55Z</time>
      </trkpt>
      <trkpt lat="45.09269" lon="2.55888">
        <ele>963</ele>
        <time>2020-09-14T08:54:01Z</time>
      </trkpt>
      <trkpt lat="45.09267" lon="2.55899">
        <ele>962</ele>
        <time>2020-09-14T08:54:07Z</time>
      </trkpt>
      <trkpt lat="45.09264" lon="2.55911">
        <ele>961</ele>
        <time>2020-09-14T08:54:13Z</time>
      </trkpt>
      <trkpt lat="45.09261" lon="2.55921">
        <ele>960</ele>
        <time>2020-09-14T08:54:19Z</time>
      </trkpt>
      <trkpt lat="45.09259" lon="2.55933">
        <ele>960</ele>
        <time>2020-09-14T08:54:26Z</time>
      </trkpt>
      <trkpt lat="45.09257" lon="2.55945">
        <ele>960</ele>
        <time>2020-09-14T08:54:32Z</time>
      </trkpt>
      <trkpt lat="45.09255" lon="2.55956">
        <ele>960</ele>
        <time>2020-09-14T08:54:38Z</time>
      </trkpt>
      <trkpt lat="45.09254" lon="2.55967">
        <ele>958</ele>
        <time>2020-09-14T08:54:45Z</time>
      </trkpt>
      <trkpt lat="45.09252" lon="2.55979">
        <ele>957</ele>
        <time>2020-09-14T08:54:52Z</time>
      </trkpt>
      <trkpt lat="45.09252" lon="2.5599">
        <ele>958</ele>
        <time>2020-09-14T08:54:58Z</time>
      </trkpt>
      <trkpt lat="45.0925" lon="2.56001">
        <ele>957</ele>
        <time>2020-09-14T08:55:04Z</time>
      </trkpt>
      <trkpt lat="45.09249" lon="2.56013">
        <ele>957</ele>
        <time>2020-09-14T08:55:11Z</time>
      </trkpt>
      <trkpt lat="45.09249" lon="2.56023">
        <ele>957</ele>
        <time>2020-09-14T08:55:17Z</time>
      </trkpt>
      <trkpt lat="45.09249" lon="2.56036">
        <ele>958</ele>
        <time>2020-09-14T08:55:24Z</time>
      </trkpt>
      <trkpt lat="45.09251" lon="2.56048">
        <ele>957</ele>
        <time>2020-09-14T08:55:31Z</time>
      </trkpt>
      <trkpt lat="45.09252" lon="2.5606">
        <ele>956</ele>
        <time>2020-09-14T08:55:39Z</time>
      </trkpt>
      <trkpt lat="45.09251" lon="2.56072">
        <ele>956</ele>
        <time>2020-09-14T08:55:46Z</time>
      </trkpt>
      <trkpt lat="45.09249" lon="2.56083">
        <ele>956</ele>
        <time>2020-09-14T08:55:53Z</time>
      </trkpt>
      <trkpt lat="45.09248" lon="2.56096">
        <ele>956</ele>
        <time>2020-09-14T08:56:01Z</time>
      </trkpt>
      <trkpt lat="45.09243" lon="2.56105">
        <ele>959</ele>
        <time>2020-09-14T08:56:19Z</time>
      </trkpt>
      <trkpt lat="45.09241" lon="2.56116">
        <ele>959</ele>
        <time>2020-09-14T08:56:24Z</time>
      </trkpt>
      <trkpt lat="45.09241" lon="2.56127">
        <ele>959</ele>
        <time>2020-09-14T08:56:31Z</time>
      </trkpt>
      <trkpt lat="45.09241" lon="2.5614">
        <ele>958</ele>
        <time>2020-09-14T08:56:40Z</time>
      </trkpt>
      <trkpt lat="45.09242" lon="2.56151">
        <ele>958</ele>
        <time>2020-09-14T08:56:47Z</time>
      </trkpt>
      <trkpt lat="45.09242" lon="2.56151">
        <ele>958</ele>
        <time>2020-09-14T08:56:48Z</time>
      </trkpt>
      <trkpt lat="45.09243" lon="2.56159">
        <ele>957</ele>
        <time>2020-09-14T08:57:19Z</time>
      </trkpt>
      <trkpt lat="45.09239" lon="2.56169">
        <ele>956</ele>
        <time>2020-09-14T08:57:27Z</time>
      </trkpt>
      <trkpt lat="45.09237" lon="2.56174">
        <ele>956</ele>
        <time>2020-09-14T08:57:31Z</time>
      </trkpt>
      <trkpt lat="45.09237" lon="2.56174">
        <ele>956</ele>
        <time>2020-09-14T08:57:32Z</time>
      </trkpt>
      <trkpt lat="45.09239" lon="2.56175">
        <ele>955</ele>
        <time>2020-09-14T09:03:33Z</time>
      </trkpt>
      <trkpt lat="45.09247" lon="2.56175">
        <ele>955</ele>
        <time>2020-09-14T09:03:45Z</time>
      </trkpt>
      <trkpt lat="45.09249" lon="2.56186">
        <ele>955</ele>
        <time>2020-09-14T09:03:52Z</time>
      </trkpt>
      <trkpt lat="45.09251" lon="2.56197">
        <ele>956</ele>
        <time>2020-09-14T09:03:58Z</time>
      </trkpt>
      <trkpt lat="45.09251" lon="2.56209">
        <ele>956</ele>
        <time>2020-09-14T09:04:05Z</time>
      </trkpt>
      <trkpt lat="45.09252" lon="2.56219">
        <ele>957</ele>
        <time>2020-09-14T09:04:10Z</time>
      </trkpt>
      <trkpt lat="45.09253" lon="2.56231">
        <ele>957</ele>
        <time>2020-09-14T09:04:18Z</time>
      </trkpt>
      <trkpt lat="45.09253" lon="2.56244">
        <ele>957</ele>
        <time>2020-09-14T09:04:25Z</time>
      </trkpt>
      <trkpt lat="45.09254" lon="2.56255">
        <ele>957</ele>
        <time>2020-09-14T09:04:32Z</time>
      </trkpt>
      <trkpt lat="45.09255" lon="2.56267">
        <ele>957</ele>
        <time>2020-09-14T09:04:39Z</time>
      </trkpt>
      <trkpt lat="45.09255" lon="2.56279">
        <ele>956</ele>
        <time>2020-09-14T09:04:45Z</time>
      </trkpt>
      <trkpt lat="45.09256" lon="2.56291">
        <ele>956</ele>
        <time>2020-09-14T09:04:52Z</time>
      </trkpt>
      <trkpt lat="45.09259" lon="2.56301">
        <ele>957</ele>
        <time>2020-09-14T09:04:59Z</time>
      </trkpt>
      <trkpt lat="45.0926" lon="2.56313">
        <ele>957</ele>
        <time>2020-09-14T09:05:06Z</time>
      </trkpt>
      <trkpt lat="45.0926" lon="2.56325">
        <ele>956</ele>
        <time>2020-09-14T09:05:13Z</time>
      </trkpt>
      <trkpt lat="45.09258" lon="2.56336">
        <ele>956</ele>
        <time>2020-09-14T09:05:19Z</time>
      </trkpt>
      <trkpt lat="45.0926" lon="2.56348">
        <ele>956</ele>
        <time>2020-09-14T09:05:26Z</time>
      </trkpt>
      <trkpt lat="45.09263" lon="2.5636">
        <ele>957</ele>
        <time>2020-09-14T09:05:32Z</time>
      </trkpt>
      <trkpt lat="45.09264" lon="2.56371">
        <ele>957</ele>
        <time>2020-09-14T09:05:38Z</time>
      </trkpt>
      <trkpt lat="45.09265" lon="2.56383">
        <ele>955</ele>
        <time>2020-09-14T09:05:45Z</time>
      </trkpt>
      <trkpt lat="45.09267" lon="2.56395">
        <ele>954</ele>
        <time>2020-09-14T09:05:52Z</time>
      </trkpt>
      <trkpt lat="45.09268" lon="2.56407">
        <ele>955</ele>
        <time>2020-09-14T09:05:59Z</time>
      </trkpt>
      <trkpt lat="45.09269" lon="2.56418">
        <ele>955</ele>
        <time>2020-09-14T09:06:05Z</time>
      </trkpt>
      <trkpt lat="45.0927" lon="2.5643">
        <ele>955</ele>
        <time>2020-09-14T09:06:11Z</time>
      </trkpt>
      <trkpt lat="45.09272" lon="2.56442">
        <ele>956</ele>
        <time>2020-09-14T09:06:18Z</time>
      </trkpt>
      <trkpt lat="45.09273" lon="2.56454">
        <ele>955</ele>
        <time>2020-09-14T09:06:25Z</time>
      </trkpt>
      <trkpt lat="45.09276" lon="2.56464">
        <ele>954</ele>
        <time>2020-09-14T09:06:31Z</time>
      </trkpt>
      <trkpt lat="45.09278" lon="2.56475">
        <ele>955</ele>
        <time>2020-09-14T09:06:37Z</time>
      </trkpt>
      <trkpt lat="45.09279" lon="2.56486">
        <ele>955</ele>
        <time>2020-09-14T09:06:44Z</time>
      </trkpt>
      <trkpt lat="45.09282" lon="2.56495">
        <ele>954</ele>
        <time>2020-09-14T09:06:50Z</time>
      </trkpt>
      <trkpt lat="45.09283" lon="2.56507">
        <ele>955</ele>
        <time>2020-09-14T09:06:57Z</time>
      </trkpt>
      <trkpt lat="45.09285" lon="2.56519">
        <ele>954</ele>
        <time>2020-09-14T09:07:04Z</time>
      </trkpt>
      <trkpt lat="45.09285" lon="2.56531">
        <ele>955</ele>
        <time>2020-09-14T09:07:10Z</time>
      </trkpt>
      <trkpt lat="45.09287" lon="2.56543">
        <ele>954</ele>
        <time>2020-09-14T09:07:17Z</time>
      </trkpt>
      <trkpt lat="45.09289" lon="2.56556">
        <ele>955</ele>
        <time>2020-09-14T09:07:24Z</time>
      </trkpt>
      <trkpt lat="45.09291" lon="2.56566">
        <ele>954</ele>
        <time>2020-09-14T09:07:30Z</time>
      </trkpt>
      <trkpt lat="45.09293" lon="2.56579">
        <ele>956</ele>
        <time>2020-09-14T09:07:37Z</time>
      </trkpt>
      <trkpt lat="45.09293" lon="2.5659">
        <ele>957</ele>
        <time>2020-09-14T09:07:44Z</time>
      </trkpt>
      <trkpt lat="45.09292" lon="2.56602">
        <ele>958</ele>
        <time>2020-09-14T09:07:51Z</time>
      </trkpt>
      <trkpt lat="45.0929" lon="2.56613">
        <ele>958</ele>
        <time>2020-09-14T09:07:56Z</time>
      </trkpt>
      <trkpt lat="45.09289" lon="2.56625">
        <ele>960</ele>
        <time>2020-09-14T09:08:02Z</time>
      </trkpt>
      <trkpt lat="45.09289" lon="2.56637">
        <ele>959</ele>
        <time>2020-09-14T09:08:09Z</time>
      </trkpt>
      <trkpt lat="45.0929" lon="2.5665">
        <ele>960</ele>
        <time>2020-09-14T09:08:17Z</time>
      </trkpt>
      <trkpt lat="45.09291" lon="2.56662">
        <ele>962</ele>
        <time>2020-09-14T09:08:24Z</time>
      </trkpt>
      <trkpt lat="45.09294" lon="2.56673">
        <ele>963</ele>
        <time>2020-09-14T09:08:33Z</time>
      </trkpt>
      <trkpt lat="45.09297" lon="2.56683">
        <ele>963</ele>
        <time>2020-09-14T09:08:39Z</time>
      </trkpt>
      <trkpt lat="45.09298" lon="2.56695">
        <ele>962</ele>
        <time>2020-09-14T09:08:45Z</time>
      </trkpt>
      <trkpt lat="45.09299" lon="2.56703">
        <ele>962</ele>
        <time>2020-09-14T09:08:49Z</time>
      </trkpt>
      <trkpt lat="45.09302" lon="2.56715">
        <ele>963</ele>
        <time>2020-09-14T09:08:55Z</time>
      </trkpt>
      <trkpt lat="45.09303" lon="2.56727">
        <ele>963</ele>
        <time>2020-09-14T09:09:01Z</time>
      </trkpt>
      <trkpt lat="45.09302" lon="2.56739">
        <ele>964</ele>
        <time>2020-09-14T09:09:07Z</time>
      </trkpt>
      <trkpt lat="45.09299" lon="2.56751">
        <ele>963</ele>
        <time>2020-09-14T09:09:13Z</time>
      </trkpt>
      <trkpt lat="45.09297" lon="2.56761">
        <ele>961</ele>
        <time>2020-09-14T09:09:18Z</time>
      </trkpt>
      <trkpt lat="45.09296" lon="2.56773">
        <ele>959</ele>
        <time>2020-09-14T09:09:25Z</time>
      </trkpt>
      <trkpt lat="45.09298" lon="2.56785">
        <ele>959</ele>
        <time>2020-09-14T09:09:33Z</time>
      </trkpt>
      <trkpt lat="45.09302" lon="2.56796">
        <ele>958</ele>
        <time>2020-09-14T09:09:41Z</time>
      </trkpt>
      <trkpt lat="45.09307" lon="2.56804">
        <ele>957</ele>
        <time>2020-09-14T09:09:47Z</time>
      </trkpt>
      <trkpt lat="45.09311" lon="2.56814">
        <ele>958</ele>
        <time>2020-09-14T09:09:54Z</time>
      </trkpt>
      <trkpt lat="45.09314" lon="2.56825">
        <ele>958</ele>
        <time>2020-09-14T09:10:01Z</time>
      </trkpt>
      <trkpt lat="45.0932" lon="2.56834">
        <ele>958</ele>
        <time>2020-09-14T09:10:07Z</time>
      </trkpt>
      <trkpt lat="45.09323" lon="2.56846">
        <ele>957</ele>
        <time>2020-09-14T09:10:15Z</time>
      </trkpt>
      <trkpt lat="45.09326" lon="2.56857">
        <ele>957</ele>
        <time>2020-09-14T09:10:21Z</time>
      </trkpt>
      <trkpt lat="45.0933" lon="2.56867">
        <ele>956</ele>
        <time>2020-09-14T09:10:28Z</time>
      </trkpt>
      <trkpt lat="45.09328" lon="2.56878">
        <ele>955</ele>
        <time>2020-09-14T09:10:34Z</time>
      </trkpt>
      <trkpt lat="45.09328" lon="2.5689">
        <ele>954</ele>
        <time>2020-09-14T09:10:40Z</time>
      </trkpt>
      <trkpt lat="45.09329" lon="2.56902">
        <ele>953</ele>
        <time>2020-09-14T09:10:47Z</time>
      </trkpt>
      <trkpt lat="45.09331" lon="2.56914">
        <ele>954</ele>
        <time>2020-09-14T09:10:53Z</time>
      </trkpt>
      <trkpt lat="45.09333" lon="2.56926">
        <ele>955</ele>
        <time>2020-09-14T09:11:00Z</time>
      </trkpt>
      <trkpt lat="45.09335" lon="2.56938">
        <ele>955</ele>
        <time>2020-09-14T09:11:06Z</time>
      </trkpt>
      <trkpt lat="45.09337" lon="2.5695">
        <ele>956</ele>
        <time>2020-09-14T09:11:14Z</time>
      </trkpt>
      <trkpt lat="45.09339" lon="2.56962">
        <ele>955</ele>
        <time>2020-09-14T09:11:20Z</time>
      </trkpt>
      <trkpt lat="45.09342" lon="2.56972">
        <ele>954</ele>
        <time>2020-09-14T09:11:27Z</time>
      </trkpt>
      <trkpt lat="45.09341" lon="2.56985">
        <ele>954</ele>
        <time>2020-09-14T09:11:34Z</time>
      </trkpt>
      <trkpt lat="45.09344" lon="2.56995">
        <ele>954</ele>
        <time>2020-09-14T09:11:39Z</time>
      </trkpt>
      <trkpt lat="45.09345" lon="2.57007">
        <ele>954</ele>
        <time>2020-09-14T09:11:46Z</time>
      </trkpt>
      <trkpt lat="45.09347" lon="2.57019">
        <ele>954</ele>
        <time>2020-09-14T09:11:53Z</time>
      </trkpt>
      <trkpt lat="45.09349" lon="2.57031">
        <ele>954</ele>
        <time>2020-09-14T09:12:00Z</time>
      </trkpt>
      <trkpt lat="45.09351" lon="2.57042">
        <ele>955</ele>
        <time>2020-09-14T09:12:06Z</time>
      </trkpt>
      <trkpt lat="45.09353" lon="2.57054">
        <ele>955</ele>
        <time>2020-09-14T09:12:13Z</time>
      </trkpt>
      <trkpt lat="45.09355" lon="2.57065">
        <ele>956</ele>
        <time>2020-09-14T09:12:20Z</time>
      </trkpt>
      <trkpt lat="45.09357" lon="2.57076">
        <ele>956</ele>
        <time>2020-09-14T09:12:27Z</time>
      </trkpt>
      <trkpt lat="45.09361" lon="2.57087">
        <ele>956</ele>
        <time>2020-09-14T09:12:33Z</time>
      </trkpt>
      <trkpt lat="45.09365" lon="2.57097">
        <ele>956</ele>
        <time>2020-09-14T09:12:39Z</time>
      </trkpt>
      <trkpt lat="45.09369" lon="2.57108">
        <ele>955</ele>
        <time>2020-09-14T09:12:47Z</time>
      </trkpt>
      <trkpt lat="45.09375" lon="2.57116">
        <ele>955</ele>
        <time>2020-09-14T09:12:54Z</time>
      </trkpt>
      <trkpt lat="45.09381" lon="2.57124">
        <ele>954</ele>
        <time>2020-09-14T09:13:01Z</time>
      </trkpt>
      <trkpt lat="45.09386" lon="2.57134">
        <ele>954</ele>
        <time>2020-09-14T09:13:08Z</time>
      </trkpt>
      <trkpt lat="45.09392" lon="2.57143">
        <ele>952</ele>
        <time>2020-09-14T09:13:15Z</time>
      </trkpt>
      <trkpt lat="45.09397" lon="2.57152">
        <ele>952</ele>
        <time>2020-09-14T09:13:21Z</time>
      </trkpt>
      <trkpt lat="45.09404" lon="2.5716">
        <ele>952</ele>
        <time>2020-09-14T09:13:28Z</time>
      </trkpt>
      <trkpt lat="45.09411" lon="2.57168">
        <ele>952</ele>
        <time>2020-09-14T09:13:35Z</time>
      </trkpt>
      <trkpt lat="45.09417" lon="2.57176">
        <ele>953</ele>
        <time>2020-09-14T09:13:42Z</time>
      </trkpt>
      <trkpt lat="45.09422" lon="2.57187">
        <ele>953</ele>
        <time>2020-09-14T09:13:50Z</time>
      </trkpt>
      <trkpt lat="45.09426" lon="2.57197">
        <ele>953</ele>
        <time>2020-09-14T09:13:56Z</time>
      </trkpt>
      <trkpt lat="45.09428" lon="2.57209">
        <ele>953</ele>
        <time>2020-09-14T09:14:03Z</time>
      </trkpt>
      <trkpt lat="45.09431" lon="2.5722">
        <ele>952</ele>
        <time>2020-09-14T09:14:09Z</time>
      </trkpt>
      <trkpt lat="45.09436" lon="2.57229">
        <ele>952</ele>
        <time>2020-09-14T09:14:16Z</time>
      </trkpt>
      <trkpt lat="45.09438" lon="2.5724">
        <ele>952</ele>
        <time>2020-09-14T09:14:23Z</time>
      </trkpt>
      <trkpt lat="45.0944" lon="2.57249">
        <ele>950</ele>
        <time>2020-09-14T09:14:28Z</time>
      </trkpt>
      <trkpt lat="45.09442" lon="2.5726">
        <ele>951</ele>
        <time>2020-09-14T09:14:35Z</time>
      </trkpt>
      <trkpt lat="45.09445" lon="2.57271">
        <ele>953</ele>
        <time>2020-09-14T09:14:42Z</time>
      </trkpt>
      <trkpt lat="45.09447" lon="2.57282">
        <ele>952</ele>
        <time>2020-09-14T09:14:48Z</time>
      </trkpt>
      <trkpt lat="45.0945" lon="2.57291">
        <ele>951</ele>
        <time>2020-09-14T09:14:54Z</time>
      </trkpt>
      <trkpt lat="45.09453" lon="2.57302">
        <ele>951</ele>
        <time>2020-09-14T09:15:00Z</time>
      </trkpt>
      <trkpt lat="45.09456" lon="2.57313">
        <ele>949</ele>
        <time>2020-09-14T09:15:07Z</time>
      </trkpt>
      <trkpt lat="45.0946" lon="2.57324">
        <ele>949</ele>
        <time>2020-09-14T09:15:14Z</time>
      </trkpt>
      <trkpt lat="45.09463" lon="2.57334">
        <ele>950</ele>
        <time>2020-09-14T09:15:20Z</time>
      </trkpt>
      <trkpt lat="45.09466" lon="2.57345">
        <ele>948</ele>
        <time>2020-09-14T09:15:27Z</time>
      </trkpt>
      <trkpt lat="45.0947" lon="2.57356">
        <ele>949</ele>
        <time>2020-09-14T09:15:34Z</time>
      </trkpt>
      <trkpt lat="45.09473" lon="2.57368">
        <ele>947</ele>
        <time>2020-09-14T09:15:41Z</time>
      </trkpt>
      <trkpt lat="45.09476" lon="2.57379">
        <ele>949</ele>
        <time>2020-09-14T09:15:48Z</time>
      </trkpt>
      <trkpt lat="45.09478" lon="2.5739">
        <ele>950</ele>
        <time>2020-09-14T09:15:55Z</time>
      </trkpt>
      <trkpt lat="45.09482" lon="2.57398">
        <ele>949</ele>
        <time>2020-09-14T09:16:00Z</time>
      </trkpt>
      <trkpt lat="45.09485" lon="2.57409">
        <ele>948</ele>
        <time>2020-09-14T09:16:06Z</time>
      </trkpt>
      <trkpt lat="45.09488" lon="2.5742">
        <ele>949</ele>
        <time>2020-09-14T09:16:12Z</time>
      </trkpt>
      <trkpt lat="45.09494" lon="2.57428">
        <ele>950</ele>
        <time>2020-09-14T09:16:17Z</time>
      </trkpt>
      <trkpt lat="45.095" lon="2.57436">
        <ele>950</ele>
        <time>2020-09-14T09:16:24Z</time>
      </trkpt>
      <trkpt lat="45.09504" lon="2.57445">
        <ele>950</ele>
        <time>2020-09-14T09:16:30Z</time>
      </trkpt>
      <trkpt lat="45.09507" lon="2.57456">
        <ele>948</ele>
        <time>2020-09-14T09:16:38Z</time>
      </trkpt>
      <trkpt lat="45.0951" lon="2.57466">
        <ele>948</ele>
        <time>2020-09-14T09:16:44Z</time>
      </trkpt>
      <trkpt lat="45.09514" lon="2.57475">
        <ele>948</ele>
        <time>2020-09-14T09:16:49Z</time>
      </trkpt>
      <trkpt lat="45.09519" lon="2.57482">
        <ele>949</ele>
        <time>2020-09-14T09:16:55Z</time>
      </trkpt>
      <trkpt lat="45.09523" lon="2.57492">
        <ele>949</ele>
        <time>2020-09-14T09:17:00Z</time>
      </trkpt>
      <trkpt lat="45.09527" lon="2.57502">
        <ele>949</ele>
        <time>2020-09-14T09:17:06Z</time>
      </trkpt>
      <trkpt lat="45.09533" lon="2.57511">
        <ele>949</ele>
        <time>2020-09-14T09:17:13Z</time>
      </trkpt>
      <trkpt lat="45.09539" lon="2.57518">
        <ele>949</ele>
        <time>2020-09-14T09:17:19Z</time>
      </trkpt>
      <trkpt lat="45.09544" lon="2.57525">
        <ele>948</ele>
        <time>2020-09-14T09:17:25Z</time>
      </trkpt>
      <trkpt lat="45.09549" lon="2.57535">
        <ele>949</ele>
        <time>2020-09-14T09:17:31Z</time>
      </trkpt>
      <trkpt lat="45.09552" lon="2.57546">
        <ele>947</ele>
        <time>2020-09-14T09:17:38Z</time>
      </trkpt>
      <trkpt lat="45.09555" lon="2.57558">
        <ele>946</ele>
        <time>2020-09-14T09:17:45Z</time>
      </trkpt>
      <trkpt lat="45.09556" lon="2.5757">
        <ele>944</ele>
        <time>2020-09-14T09:17:51Z</time>
      </trkpt>
      <trkpt lat="45.09557" lon="2.57581">
        <ele>944</ele>
        <time>2020-09-14T09:17:59Z</time>
      </trkpt>
      <trkpt lat="45.0956" lon="2.5759">
        <ele>944</ele>
        <time>2020-09-14T09:18:05Z</time>
      </trkpt>
      <trkpt lat="45.09564" lon="2.57601">
        <ele>945</ele>
        <time>2020-09-14T09:18:11Z</time>
      </trkpt>
      <trkpt lat="45.09564" lon="2.57613">
        <ele>943</ele>
        <time>2020-09-14T09:18:17Z</time>
      </trkpt>
      <trkpt lat="45.09565" lon="2.57625">
        <ele>942</ele>
        <time>2020-09-14T09:18:24Z</time>
      </trkpt>
      <trkpt lat="45.09567" lon="2.57638">
        <ele>942</ele>
        <time>2020-09-14T09:18:31Z</time>
      </trkpt>
      <trkpt lat="45.09567" lon="2.5765">
        <ele>941</ele>
        <time>2020-09-14T09:18:38Z</time>
      </trkpt>
      <trkpt lat="45.09566" lon="2.57663">
        <ele>941</ele>
        <time>2020-09-14T09:18:45Z</time>
      </trkpt>
      <trkpt lat="45.09567" lon="2.57672">
        <ele>941</ele>
        <time>2020-09-14T09:18:50Z</time>
      </trkpt>
      <trkpt lat="45.09566" lon="2.57683">
        <ele>942</ele>
        <time>2020-09-14T09:18:56Z</time>
      </trkpt>
      <trkpt lat="45.09566" lon="2.57695">
        <ele>942</ele>
        <time>2020-09-14T09:19:02Z</time>
      </trkpt>
      <trkpt lat="45.09565" lon="2.57706">
        <ele>941</ele>
        <time>2020-09-14T09:19:08Z</time>
      </trkpt>
      <trkpt lat="45.09565" lon="2.57719">
        <ele>942</ele>
        <time>2020-09-14T09:19:15Z</time>
      </trkpt>
      <trkpt lat="45.09565" lon="2.57731">
        <ele>942</ele>
        <time>2020-09-14T09:19:22Z</time>
      </trkpt>
      <trkpt lat="45.09564" lon="2.57744">
        <ele>941</ele>
        <time>2020-09-14T09:19:29Z</time>
      </trkpt>
      <trkpt lat="45.09562" lon="2.57756">
        <ele>940</ele>
        <time>2020-09-14T09:19:36Z</time>
      </trkpt>
      <trkpt lat="45.09561" lon="2.57768">
        <ele>941</ele>
        <time>2020-09-14T09:19:42Z</time>
      </trkpt>
      <trkpt lat="45.09559" lon="2.5778">
        <ele>941</ele>
        <time>2020-09-14T09:19:49Z</time>
      </trkpt>
      <trkpt lat="45.0956" lon="2.57792">
        <ele>941</ele>
        <time>2020-09-14T09:19:56Z</time>
      </trkpt>
      <trkpt lat="45.0956" lon="2.57805">
        <ele>942</ele>
        <time>2020-09-14T09:20:03Z</time>
      </trkpt>
      <trkpt lat="45.09557" lon="2.57817">
        <ele>943</ele>
        <time>2020-09-14T09:20:09Z</time>
      </trkpt>
      <trkpt lat="45.09556" lon="2.57827">
        <ele>943</ele>
        <time>2020-09-14T09:20:15Z</time>
      </trkpt>
      <trkpt lat="45.09552" lon="2.57839">
        <ele>942</ele>
        <time>2020-09-14T09:20:22Z</time>
      </trkpt>
      <trkpt lat="45.09549" lon="2.5785">
        <ele>941</ele>
        <time>2020-09-14T09:20:29Z</time>
      </trkpt>
      <trkpt lat="45.09546" lon="2.57862">
        <ele>940</ele>
        <time>2020-09-14T09:20:36Z</time>
      </trkpt>
      <trkpt lat="45.09546" lon="2.57873">
        <ele>940</ele>
        <time>2020-09-14T09:20:43Z</time>
      </trkpt>
      <trkpt lat="45.09546" lon="2.57885">
        <ele>940</ele>
        <time>2020-09-14T09:20:49Z</time>
      </trkpt>
      <trkpt lat="45.09547" lon="2.57895">
        <ele>941</ele>
        <time>2020-09-14T09:20:54Z</time>
      </trkpt>
      <trkpt lat="45.09546" lon="2.57905">
        <ele>941</ele>
        <time>2020-09-14T09:21:00Z</time>
      </trkpt>
      <trkpt lat="45.09544" lon="2.57917">
        <ele>941</ele>
        <time>2020-09-14T09:21:07Z</time>
      </trkpt>
      <trkpt lat="45.09542" lon="2.57928">
        <ele>942</ele>
        <time>2020-09-14T09:21:13Z</time>
      </trkpt>
      <trkpt lat="45.09542" lon="2.57939">
        <ele>943</ele>
        <time>2020-09-14T09:21:22Z</time>
      </trkpt>
      <trkpt lat="45.09541" lon="2.5795">
        <ele>942</ele>
        <time>2020-09-14T09:21:29Z</time>
      </trkpt>
      <trkpt lat="45.0954" lon="2.57962">
        <ele>942</ele>
        <time>2020-09-14T09:21:36Z</time>
      </trkpt>
      <trkpt lat="45.09538" lon="2.57972">
        <ele>943</ele>
        <time>2020-09-14T09:21:42Z</time>
      </trkpt>
      <trkpt lat="45.0954" lon="2.57983">
        <ele>942</ele>
        <time>2020-09-14T09:21:48Z</time>
      </trkpt>
      <trkpt lat="45.0954" lon="2.57994">
        <ele>942</ele>
        <time>2020-09-14T09:21:55Z</time>
      </trkpt>
      <trkpt lat="45.09541" lon="2.58007">
        <ele>943</ele>
        <time>2020-09-14T09:22:01Z</time>
      </trkpt>
      <trkpt lat="45.09542" lon="2.58019">
        <ele>942</ele>
        <time>2020-09-14T09:22:08Z</time>
      </trkpt>
      <trkpt lat="45.09543" lon="2.58031">
        <ele>943</ele>
        <time>2020-09-14T09:22:14Z</time>
      </trkpt>
      <trkpt lat="45.09545" lon="2.58042">
        <ele>942</ele>
        <time>2020-09-14T09:22:21Z</time>
      </trkpt>
      <trkpt lat="45.09546" lon="2.58054">
        <ele>942</ele>
        <time>2020-09-14T09:22:27Z</time>
      </trkpt>
      <trkpt lat="45.09546" lon="2.58065">
        <ele>941</ele>
        <time>2020-09-14T09:22:34Z</time>
      </trkpt>
      <trkpt lat="45.09548" lon="2.58077">
        <ele>942</ele>
        <time>2020-09-14T09:22:40Z</time>
      </trkpt>
      <trkpt lat="45.09549" lon="2.58089">
        <ele>942</ele>
        <time>2020-09-14T09:22:46Z</time>
      </trkpt>
      <trkpt lat="45.09551" lon="2.58101">
        <ele>944</ele>
        <time>2020-09-14T09:22:53Z</time>
      </trkpt>
      <trkpt lat="45.09553" lon="2.58112">
        <ele>944</ele>
        <time>2020-09-14T09:22:59Z</time>
      </trkpt>
      <trkpt lat="45.09557" lon="2.58123">
        <ele>944</ele>
        <time>2020-09-14T09:23:06Z</time>
      </trkpt>
      <trkpt lat="45.09561" lon="2.58134">
        <ele>944</ele>
        <time>2020-09-14T09:23:13Z</time>
      </trkpt>
      <trkpt lat="45.09564" lon="2.58145">
        <ele>944</ele>
        <time>2020-09-14T09:23:20Z</time>
      </trkpt>
      <trkpt lat="45.09565" lon="2.58156">
        <ele>946</ele>
        <time>2020-09-14T09:23:25Z</time>
      </trkpt>
      <trkpt lat="45.09566" lon="2.58168">
        <ele>946</ele>
        <time>2020-09-14T09:23:31Z</time>
      </trkpt>
      <trkpt lat="45.09567" lon="2.58177">
        <ele>945</ele>
        <time>2020-09-14T09:23:36Z</time>
      </trkpt>
      <trkpt lat="45.09568" lon="2.58189">
        <ele>945</ele>
        <time>2020-09-14T09:23:42Z</time>
      </trkpt>
      <trkpt lat="45.0957" lon="2.58199">
        <ele>946</ele>
        <time>2020-09-14T09:23:49Z</time>
      </trkpt>
      <trkpt lat="45.09573" lon="2.58209">
        <ele>945</ele>
        <time>2020-09-14T09:23:55Z</time>
      </trkpt>
      <trkpt lat="45.09579" lon="2.58218">
        <ele>946</ele>
        <time>2020-09-14T09:24:03Z</time>
      </trkpt>
      <trkpt lat="45.09582" lon="2.58228">
        <ele>944</ele>
        <time>2020-09-14T09:24:09Z</time>
      </trkpt>
      <trkpt lat="45.09587" lon="2.58239">
        <ele>945</ele>
        <time>2020-09-14T09:24:16Z</time>
      </trkpt>
      <trkpt lat="45.09591" lon="2.58249">
        <ele>945</ele>
        <time>2020-09-14T09:24:23Z</time>
      </trkpt>
      <trkpt lat="45.09595" lon="2.58259">
        <ele>947</ele>
        <time>2020-09-14T09:24:30Z</time>
      </trkpt>
      <trkpt lat="45.09599" lon="2.58269">
        <ele>947</ele>
        <time>2020-09-14T09:24:37Z</time>
      </trkpt>
      <trkpt lat="45.09602" lon="2.58281">
        <ele>946</ele>
        <time>2020-09-14T09:24:44Z</time>
      </trkpt>
      <trkpt lat="45.09605" lon="2.58291">
        <ele>948</ele>
        <time>2020-09-14T09:24:52Z</time>
      </trkpt>
      <trkpt lat="45.09607" lon="2.58303">
        <ele>947</ele>
        <time>2020-09-14T09:24:58Z</time>
      </trkpt>
      <trkpt lat="45.09606" lon="2.58314">
        <ele>949</ele>
        <time>2020-09-14T09:25:05Z</time>
      </trkpt>
      <trkpt lat="45.09609" lon="2.58325">
        <ele>948</ele>
        <time>2020-09-14T09:25:11Z</time>
      </trkpt>
      <trkpt lat="45.09609" lon="2.58336">
        <ele>947</ele>
        <time>2020-09-14T09:25:17Z</time>
      </trkpt>
      <trkpt lat="45.0961" lon="2.58348">
        <ele>947</ele>
        <time>2020-09-14T09:25:23Z</time>
      </trkpt>
      <trkpt lat="45.09617" lon="2.58357">
        <ele>946</ele>
        <time>2020-09-14T09:25:30Z</time>
      </trkpt>
      <trkpt lat="45.09619" lon="2.58369">
        <ele>946</ele>
        <time>2020-09-14T09:25:37Z</time>
      </trkpt>
      <trkpt lat="45.09621" lon="2.58381">
        <ele>946</ele>
        <time>2020-09-14T09:25:43Z</time>
      </trkpt>
      <trkpt lat="45.09623" lon="2.58392">
        <ele>946</ele>
        <time>2020-09-14T09:25:49Z</time>
      </trkpt>
      <trkpt lat="45.09623" lon="2.58402">
        <ele>946</ele>
        <time>2020-09-14T09:25:55Z</time>
      </trkpt>
      <trkpt lat="45.09626" lon="2.58413">
        <ele>945</ele>
        <time>2020-09-14T09:26:01Z</time>
      </trkpt>
      <trkpt lat="45.09628" lon="2.58424">
        <ele>945</ele>
        <time>2020-09-14T09:26:07Z</time>
      </trkpt>
      <trkpt lat="45.0963" lon="2.58436">
        <ele>945</ele>
        <time>2020-09-14T09:26:13Z</time>
      </trkpt>
      <trkpt lat="45.09632" lon="2.58448">
        <ele>946</ele>
        <time>2020-09-14T09:26:20Z</time>
      </trkpt>
      <trkpt lat="45.09632" lon="2.58461">
        <ele>946</ele>
        <time>2020-09-14T09:26:28Z</time>
      </trkpt>
      <trkpt lat="45.09633" lon="2.58472">
        <ele>945</ele>
        <time>2020-09-14T09:26:35Z</time>
      </trkpt>
      <trkpt lat="45.09635" lon="2.58483">
        <ele>944</ele>
        <time>2020-09-14T09:26:41Z</time>
      </trkpt>
      <trkpt lat="45.09637" lon="2.58495">
        <ele>944</ele>
        <time>2020-09-14T09:26:49Z</time>
      </trkpt>
      <trkpt lat="45.09641" lon="2.58506">
        <ele>942</ele>
        <time>2020-09-14T09:26:56Z</time>
      </trkpt>
      <trkpt lat="45.09643" lon="2.58519">
        <ele>944</ele>
        <time>2020-09-14T09:27:03Z</time>
      </trkpt>
      <trkpt lat="45.09644" lon="2.5853">
        <ele>944</ele>
        <time>2020-09-14T09:27:10Z</time>
      </trkpt>
      <trkpt lat="45.09648" lon="2.5854">
        <ele>945</ele>
        <time>2020-09-14T09:27:17Z</time>
      </trkpt>
      <trkpt lat="45.0965" lon="2.58549">
        <ele>945</ele>
        <time>2020-09-14T09:27:22Z</time>
      </trkpt>
      <trkpt lat="45.09651" lon="2.58559">
        <ele>946</ele>
        <time>2020-09-14T09:27:28Z</time>
      </trkpt>
      <trkpt lat="45.09653" lon="2.5857">
        <ele>946</ele>
        <time>2020-09-14T09:27:34Z</time>
      </trkpt>
      <trkpt lat="45.09659" lon="2.5858">
        <ele>947</ele>
        <time>2020-09-14T09:27:40Z</time>
      </trkpt>
      <trkpt lat="45.09663" lon="2.58589">
        <ele>948</ele>
        <time>2020-09-14T09:27:45Z</time>
      </trkpt>
      <trkpt lat="45.09668" lon="2.58598">
        <ele>948</ele>
        <time>2020-09-14T09:27:51Z</time>
      </trkpt>
      <trkpt lat="45.09674" lon="2.58605">
        <ele>949</ele>
        <time>2020-09-14T09:27:57Z</time>
      </trkpt>
      <trkpt lat="45.09679" lon="2.58616">
        <ele>950</ele>
        <time>2020-09-14T09:28:03Z</time>
      </trkpt>
      <trkpt lat="45.09686" lon="2.58623">
        <ele>950</ele>
        <time>2020-09-14T09:28:09Z</time>
      </trkpt>
      <trkpt lat="45.09692" lon="2.5863">
        <ele>952</ele>
        <time>2020-09-14T09:28:16Z</time>
      </trkpt>
      <trkpt lat="45.09698" lon="2.58638">
        <ele>952</ele>
        <time>2020-09-14T09:28:23Z</time>
      </trkpt>
      <trkpt lat="45.09706" lon="2.58644">
        <ele>950</ele>
        <time>2020-09-14T09:28:31Z</time>
      </trkpt>
      <trkpt lat="45.09714" lon="2.58646">
        <ele>948</ele>
        <time>2020-09-14T09:28:38Z</time>
      </trkpt>
      <trkpt lat="45.09722" lon="2.58649">
        <ele>948</ele>
        <time>2020-09-14T09:28:45Z</time>
      </trkpt>
      <trkpt lat="45.09731" lon="2.58652">
        <ele>948</ele>
        <time>2020-09-14T09:28:51Z</time>
      </trkpt>
      <trkpt lat="45.09739" lon="2.58655">
        <ele>947</ele>
        <time>2020-09-14T09:28:57Z</time>
      </trkpt>
      <trkpt lat="45.09747" lon="2.5866">
        <ele>947</ele>
        <time>2020-09-14T09:29:04Z</time>
      </trkpt>
      <trkpt lat="45.09754" lon="2.58665">
        <ele>944</ele>
        <time>2020-09-14T09:29:10Z</time>
      </trkpt>
      <trkpt lat="45.0976" lon="2.58673">
        <ele>943</ele>
        <time>2020-09-14T09:29:16Z</time>
      </trkpt>
      <trkpt lat="45.09763" lon="2.58684">
        <ele>944</ele>
        <time>2020-09-14T09:29:22Z</time>
      </trkpt>
      <trkpt lat="45.09766" lon="2.58695">
        <ele>943</ele>
        <time>2020-09-14T09:29:28Z</time>
      </trkpt>
      <trkpt lat="45.09771" lon="2.58706">
        <ele>943</ele>
        <time>2020-09-14T09:29:36Z</time>
      </trkpt>
      <trkpt lat="45.09773" lon="2.58718">
        <ele>943</ele>
        <time>2020-09-14T09:29:43Z</time>
      </trkpt>
      <trkpt lat="45.09776" lon="2.58728">
        <ele>943</ele>
        <time>2020-09-14T09:29:49Z</time>
      </trkpt>
      <trkpt lat="45.09778" lon="2.5874">
        <ele>944</ele>
        <time>2020-09-14T09:29:56Z</time>
      </trkpt>
      <trkpt lat="45.09781" lon="2.58752">
        <ele>944</ele>
        <time>2020-09-14T09:30:03Z</time>
      </trkpt>
      <trkpt lat="45.09784" lon="2.58764">
        <ele>946</ele>
        <time>2020-09-14T09:30:09Z</time>
      </trkpt>
      <trkpt lat="45.09785" lon="2.58775">
        <ele>945</ele>
        <time>2020-09-14T09:30:16Z</time>
      </trkpt>
      <trkpt lat="45.09787" lon="2.58787">
        <ele>946</ele>
        <time>2020-09-14T09:30:24Z</time>
      </trkpt>
      <trkpt lat="45.09789" lon="2.58798">
        <ele>946</ele>
        <time>2020-09-14T09:30:30Z</time>
      </trkpt>
      <trkpt lat="45.09792" lon="2.58809">
        <ele>946</ele>
        <time>2020-09-14T09:30:36Z</time>
      </trkpt>
      <trkpt lat="45.09797" lon="2.58819">
        <ele>946</ele>
        <time>2020-09-14T09:30:43Z</time>
      </trkpt>
      <trkpt lat="45.09801" lon="2.58827">
        <ele>944</ele>
        <time>2020-09-14T09:30:48Z</time>
      </trkpt>
      <trkpt lat="45.09807" lon="2.58837">
        <ele>945</ele>
        <time>2020-09-14T09:30:55Z</time>
      </trkpt>
      <trkpt lat="45.09812" lon="2.58844">
        <ele>946</ele>
        <time>2020-09-14T09:31:02Z</time>
      </trkpt>
      <trkpt lat="45.09818" lon="2.58854">
        <ele>946</ele>
        <time>2020-09-14T09:31:09Z</time>
      </trkpt>
      <trkpt lat="45.09824" lon="2.58863">
        <ele>945</ele>
        <time>2020-09-14T09:31:16Z</time>
      </trkpt>
      <trkpt lat="45.09829" lon="2.58872">
        <ele>947</ele>
        <time>2020-09-14T09:31:23Z</time>
      </trkpt>
      <trkpt lat="45.09834" lon="2.58881">
        <ele>946</ele>
        <time>2020-09-14T09:31:30Z</time>
      </trkpt>
      <trkpt lat="45.09839" lon="2.5889">
        <ele>946</ele>
        <time>2020-09-14T09:31:37Z</time>
      </trkpt>
      <trkpt lat="45.09845" lon="2.58899">
        <ele>947</ele>
        <time>2020-09-14T09:31:43Z</time>
      </trkpt>
      <trkpt lat="45.09851" lon="2.58907">
        <ele>947</ele>
        <time>2020-09-14T09:31:50Z</time>
      </trkpt>
      <trkpt lat="45.09856" lon="2.58916">
        <ele>949</ele>
        <time>2020-09-14T09:31:56Z</time>
      </trkpt>
      <trkpt lat="45.09861" lon="2.58925">
        <ele>949</ele>
        <time>2020-09-14T09:32:03Z</time>
      </trkpt>
      <trkpt lat="45.09867" lon="2.58933">
        <ele>949</ele>
        <time>2020-09-14T09:32:10Z</time>
      </trkpt>
      <trkpt lat="45.09874" lon="2.58941">
        <ele>949</ele>
        <time>2020-09-14T09:32:17Z</time>
      </trkpt>
      <trkpt lat="45.0988" lon="2.58948">
        <ele>949</ele>
        <time>2020-09-14T09:32:23Z</time>
      </trkpt>
      <trkpt lat="45.09885" lon="2.58956">
        <ele>949</ele>
        <time>2020-09-14T09:32:30Z</time>
      </trkpt>
      <trkpt lat="45.0989" lon="2.58965">
        <ele>950</ele>
        <time>2020-09-14T09:32:36Z</time>
      </trkpt>
      <trkpt lat="45.09897" lon="2.58972">
        <ele>949</ele>
        <time>2020-09-14T09:32:42Z</time>
      </trkpt>
      <trkpt lat="45.09901" lon="2.58979">
        <ele>949</ele>
        <time>2020-09-14T09:32:47Z</time>
      </trkpt>
      <trkpt lat="45.09908" lon="2.58985">
        <ele>950</ele>
        <time>2020-09-14T09:32:53Z</time>
      </trkpt>
      <trkpt lat="45.09914" lon="2.58992">
        <ele>949</ele>
        <time>2020-09-14T09:32:59Z</time>
      </trkpt>
      <trkpt lat="45.0992" lon="2.58999">
        <ele>948</ele>
        <time>2020-09-14T09:33:04Z</time>
      </trkpt>
      <trkpt lat="45.09926" lon="2.59007">
        <ele>948</ele>
        <time>2020-09-14T09:33:10Z</time>
      </trkpt>
      <trkpt lat="45.09932" lon="2.59014">
        <ele>948</ele>
        <time>2020-09-14T09:33:17Z</time>
      </trkpt>
      <trkpt lat="45.09938" lon="2.59022">
        <ele>948</ele>
        <time>2020-09-14T09:33:23Z</time>
      </trkpt>
      <trkpt lat="45.09944" lon="2.59031">
        <ele>948</ele>
        <time>2020-09-14T09:33:30Z</time>
      </trkpt>
      <trkpt lat="45.0995" lon="2.59039">
        <ele>948</ele>
        <time>2020-09-14T09:33:37Z</time>
      </trkpt>
      <trkpt lat="45.09956" lon="2.59048">
        <ele>948</ele>
        <time>2020-09-14T09:33:43Z</time>
      </trkpt>
      <trkpt lat="45.09962" lon="2.59057">
        <ele>947</ele>
        <time>2020-09-14T09:33:50Z</time>
      </trkpt>
      <trkpt lat="45.09968" lon="2.59065">
        <ele>946</ele>
        <time>2020-09-14T09:33:56Z</time>
      </trkpt>
      <trkpt lat="45.09972" lon="2.59076">
        <ele>947</ele>
        <time>2020-09-14T09:34:02Z</time>
      </trkpt>
      <trkpt lat="45.09976" lon="2.59083">
        <ele>947</ele>
        <time>2020-09-14T09:34:07Z</time>
      </trkpt>
      <trkpt lat="45.0998" lon="2.59093">
        <ele>948</ele>
        <time>2020-09-14T09:34:13Z</time>
      </trkpt>
      <trkpt lat="45.09985" lon="2.59104">
        <ele>948</ele>
        <time>2020-09-14T09:34:19Z</time>
      </trkpt>
      <trkpt lat="45.09988" lon="2.59115">
        <ele>947</ele>
        <time>2020-09-14T09:34:26Z</time>
      </trkpt>
      <trkpt lat="45.09991" lon="2.59126">
        <ele>947</ele>
        <time>2020-09-14T09:34:33Z</time>
      </trkpt>
      <trkpt lat="45.09995" lon="2.59137">
        <ele>947</ele>
        <time>2020-09-14T09:34:40Z</time>
      </trkpt>
      <trkpt lat="45.09999" lon="2.59147">
        <ele>946</ele>
        <time>2020-09-14T09:34:46Z</time>
      </trkpt>
      <trkpt lat="45.10005" lon="2.59155">
        <ele>946</ele>
        <time>2020-09-14T09:34:53Z</time>
      </trkpt>
      <trkpt lat="45.10011" lon="2.59164">
        <ele>948</ele>
        <time>2020-09-14T09:35:02Z</time>
      </trkpt>
      <trkpt lat="45.10018" lon="2.59171">
        <ele>948</ele>
        <time>2020-09-14T09:35:08Z</time>
      </trkpt>
      <trkpt lat="45.10023" lon="2.59179">
        <ele>948</ele>
        <time>2020-09-14T09:35:13Z</time>
      </trkpt>
      <trkpt lat="45.10029" lon="2.59186">
        <ele>948</ele>
        <time>2020-09-14T09:35:20Z</time>
      </trkpt>
      <trkpt lat="45.10034" lon="2.59194">
        <ele>948</ele>
        <time>2020-09-14T09:35:26Z</time>
      </trkpt>
      <trkpt lat="45.10041" lon="2.59202">
        <ele>947</ele>
        <time>2020-09-14T09:35:33Z</time>
      </trkpt>
      <trkpt lat="45.10047" lon="2.5921">
        <ele>947</ele>
        <time>2020-09-14T09:35:40Z</time>
      </trkpt>
      <trkpt lat="45.10053" lon="2.59219">
        <ele>946</ele>
        <time>2020-09-14T09:35:48Z</time>
      </trkpt>
      <trkpt lat="45.1006" lon="2.59226">
        <ele>946</ele>
        <time>2020-09-14T09:35:54Z</time>
      </trkpt>
      <trkpt lat="45.10066" lon="2.59233">
        <ele>945</ele>
        <time>2020-09-14T09:36:01Z</time>
      </trkpt>
      <trkpt lat="45.10072" lon="2.59242">
        <ele>946</ele>
        <time>2020-09-14T09:36:08Z</time>
      </trkpt>
      <trkpt lat="45.10077" lon="2.5925">
        <ele>944</ele>
        <time>2020-09-14T09:36:15Z</time>
      </trkpt>
      <trkpt lat="45.10082" lon="2.5926">
        <ele>943</ele>
        <time>2020-09-14T09:36:21Z</time>
      </trkpt>
      <trkpt lat="45.10088" lon="2.59268">
        <ele>944</ele>
        <time>2020-09-14T09:36:27Z</time>
      </trkpt>
      <trkpt lat="45.10094" lon="2.59277">
        <ele>943</ele>
        <time>2020-09-14T09:36:34Z</time>
      </trkpt>
      <trkpt lat="45.101" lon="2.59286">
        <ele>943</ele>
        <time>2020-09-14T09:36:42Z</time>
      </trkpt>
      <trkpt lat="45.10104" lon="2.59298">
        <ele>943</ele>
        <time>2020-09-14T09:36:50Z</time>
      </trkpt>
      <trkpt lat="45.1011" lon="2.59305">
        <ele>943</ele>
        <time>2020-09-14T09:36:58Z</time>
      </trkpt>
      <trkpt lat="45.10114" lon="2.59316">
        <ele>944</ele>
        <time>2020-09-14T09:37:04Z</time>
      </trkpt>
      <trkpt lat="45.10117" lon="2.59326">
        <ele>942</ele>
        <time>2020-09-14T09:37:10Z</time>
      </trkpt>
      <trkpt lat="45.10122" lon="2.59337">
        <ele>942</ele>
        <time>2020-09-14T09:37:16Z</time>
      </trkpt>
      <trkpt lat="45.10124" lon="2.59349">
        <ele>942</ele>
        <time>2020-09-14T09:37:23Z</time>
      </trkpt>
      <trkpt lat="45.10128" lon="2.59358">
        <ele>941</ele>
        <time>2020-09-14T09:37:29Z</time>
      </trkpt>
      <trkpt lat="45.10131" lon="2.59368">
        <ele>942</ele>
        <time>2020-09-14T09:37:34Z</time>
      </trkpt>
      <trkpt lat="45.10135" lon="2.59378">
        <ele>941</ele>
        <time>2020-09-14T09:37:41Z</time>
      </trkpt>
      <trkpt lat="45.10137" lon="2.59389">
        <ele>941</ele>
        <time>2020-09-14T09:37:48Z</time>
      </trkpt>
      <trkpt lat="45.1014" lon="2.59399">
        <ele>942</ele>
        <time>2020-09-14T09:37:54Z</time>
      </trkpt>
      <trkpt lat="45.10145" lon="2.5941">
        <ele>942</ele>
        <time>2020-09-14T09:38:01Z</time>
      </trkpt>
      <trkpt lat="45.10148" lon="2.59422">
        <ele>942</ele>
        <time>2020-09-14T09:38:08Z</time>
      </trkpt>
      <trkpt lat="45.10151" lon="2.59433">
        <ele>943</ele>
        <time>2020-09-14T09:38:14Z</time>
      </trkpt>
      <trkpt lat="45.10156" lon="2.59443">
        <ele>942</ele>
        <time>2020-09-14T09:38:21Z</time>
      </trkpt>
      <trkpt lat="45.10163" lon="2.5945">
        <ele>942</ele>
        <time>2020-09-14T09:38:28Z</time>
      </trkpt>
      <trkpt lat="45.10167" lon="2.59453">
        <ele>941</ele>
        <time>2020-09-14T09:38:33Z</time>
      </trkpt>
      <trkpt lat="45.10167" lon="2.59453">
        <ele>941</ele>
        <time>2020-09-14T09:38:34Z</time>
      </trkpt>
    </trkseg>
  </trk>
  <trk>
    <name><![CDATA[Vous suivez Bastide Aspre (Cantal)]]></name>
    <extensions>
      <line xmlns="http://www.topografix.com/GPX/gpx_style/0/2">
        <color>0000FF</color>
        <width>4</width>
      </line>
    </extensions>
    <trkseg>
      <trkpt lat="45.10177" lon="2.59457">
        <ele>939</ele>
        <time>2020-09-14T10:08:03Z</time>
      </trkpt>
      <trkpt lat="45.10186" lon="2.59461">
        <ele>938</ele>
        <time>2020-09-14T10:08:14Z</time>
      </trkpt>
      <trkpt lat="45.10193" lon="2.59466">
        <ele>939</ele>
        <time>2020-09-14T10:08:20Z</time>
      </trkpt>
      <trkpt lat="45.10202" lon="2.59463">
        <ele>938</ele>
        <time>2020-09-14T10:08:26Z</time>
      </trkpt>
      <trkpt lat="45.1021" lon="2.59463">
        <ele>938</ele>
        <time>2020-09-14T10:08:33Z</time>
      </trkpt>
      <trkpt lat="45.10218" lon="2.59463">
        <ele>938</ele>
        <time>2020-09-14T10:08:39Z</time>
      </trkpt>
      <trkpt lat="45.10226" lon="2.59465">
        <ele>938</ele>
        <time>2020-09-14T10:08:46Z</time>
      </trkpt>
      <trkpt lat="45.10234" lon="2.59466">
        <ele>938</ele>
        <time>2020-09-14T10:08:53Z</time>
      </trkpt>
      <trkpt lat="45.10242" lon="2.59467">
        <ele>937</ele>
        <time>2020-09-14T10:09:00Z</time>
      </trkpt>
      <trkpt lat="45.10251" lon="2.59468">
        <ele>939</ele>
        <time>2020-09-14T10:09:08Z</time>
      </trkpt>
      <trkpt lat="45.10259" lon="2.59465">
        <ele>940</ele>
        <time>2020-09-14T10:09:14Z</time>
      </trkpt>
      <trkpt lat="45.10265" lon="2.59459">
        <ele>940</ele>
        <time>2020-09-14T10:09:20Z</time>
      </trkpt>
      <trkpt lat="45.10273" lon="2.59456">
        <ele>940</ele>
        <time>2020-09-14T10:09:24Z</time>
      </trkpt>
      <trkpt lat="45.10273" lon="2.59456">
        <ele>940</ele>
        <time>2020-09-14T10:09:25Z</time>
      </trkpt>
      <trkpt lat="45.10275" lon="2.59458">
        <ele>939</ele>
        <time>2020-09-14T10:10:28Z</time>
      </trkpt>
      <trkpt lat="45.10282" lon="2.59451">
        <ele>939</ele>
        <time>2020-09-14T10:10:36Z</time>
      </trkpt>
      <trkpt lat="45.1029" lon="2.59451">
        <ele>940</ele>
        <time>2020-09-14T10:10:43Z</time>
      </trkpt>
      <trkpt lat="45.10296" lon="2.5946">
        <ele>940</ele>
        <time>2020-09-14T10:10:49Z</time>
      </trkpt>
      <trkpt lat="45.103" lon="2.5947">
        <ele>941</ele>
        <time>2020-09-14T10:10:56Z</time>
      </trkpt>
      <trkpt lat="45.10303" lon="2.59481">
        <ele>942</ele>
        <time>2020-09-14T10:11:03Z</time>
      </trkpt>
      <trkpt lat="45.10306" lon="2.59491">
        <ele>944</ele>
        <time>2020-09-14T10:11:09Z</time>
      </trkpt>
      <trkpt lat="45.1031" lon="2.59502">
        <ele>945</ele>
        <time>2020-09-14T10:11:17Z</time>
      </trkpt>
      <trkpt lat="45.10316" lon="2.59511">
        <ele>946</ele>
        <time>2020-09-14T10:11:25Z</time>
      </trkpt>
      <trkpt lat="45.10323" lon="2.59519">
        <ele>948</ele>
        <time>2020-09-14T10:11:33Z</time>
      </trkpt>
      <trkpt lat="45.10329" lon="2.59527">
        <ele>949</ele>
        <time>2020-09-14T10:11:42Z</time>
      </trkpt>
      <trkpt lat="45.10335" lon="2.59536">
        <ele>952</ele>
        <time>2020-09-14T10:11:49Z</time>
      </trkpt>
      <trkpt lat="45.10341" lon="2.59544">
        <ele>954</ele>
        <time>2020-09-14T10:11:55Z</time>
      </trkpt>
      <trkpt lat="45.10348" lon="2.59552">
        <ele>954</ele>
        <time>2020-09-14T10:12:02Z</time>
      </trkpt>
      <trkpt lat="45.10355" lon="2.59557">
        <ele>955</ele>
        <time>2020-09-14T10:12:08Z</time>
      </trkpt>
      <trkpt lat="45.10363" lon="2.59562">
        <ele>955</ele>
        <time>2020-09-14T10:12:15Z</time>
      </trkpt>
      <trkpt lat="45.10372" lon="2.59562">
        <ele>954</ele>
        <time>2020-09-14T10:12:22Z</time>
      </trkpt>
      <trkpt lat="45.10379" lon="2.59563">
        <ele>955</ele>
        <time>2020-09-14T10:12:29Z</time>
      </trkpt>
      <trkpt lat="45.10387" lon="2.59567">
        <ele>957</ele>
        <time>2020-09-14T10:12:35Z</time>
      </trkpt>
      <trkpt lat="45.10394" lon="2.59572">
        <ele>956</ele>
        <time>2020-09-14T10:12:42Z</time>
      </trkpt>
      <trkpt lat="45.10401" lon="2.59578">
        <ele>957</ele>
        <time>2020-09-14T10:12:48Z</time>
      </trkpt>
      <trkpt lat="45.10408" lon="2.59585">
        <ele>956</ele>
        <time>2020-09-14T10:12:56Z</time>
      </trkpt>
      <trkpt lat="45.10415" lon="2.59589">
        <ele>956</ele>
        <time>2020-09-14T10:13:03Z</time>
      </trkpt>
      <trkpt lat="45.10423" lon="2.59593">
        <ele>956</ele>
        <time>2020-09-14T10:13:09Z</time>
      </trkpt>
      <trkpt lat="45.10429" lon="2.59599">
        <ele>956</ele>
        <time>2020-09-14T10:13:15Z</time>
      </trkpt>
      <trkpt lat="45.10434" lon="2.59608">
        <ele>956</ele>
        <time>2020-09-14T10:13:20Z</time>
      </trkpt>
      <trkpt lat="45.10438" lon="2.59619">
        <ele>956</ele>
        <time>2020-09-14T10:13:28Z</time>
      </trkpt>
      <trkpt lat="45.10442" lon="2.59629">
        <ele>957</ele>
        <time>2020-09-14T10:13:34Z</time>
      </trkpt>
      <trkpt lat="45.10446" lon="2.59639">
        <ele>957</ele>
        <time>2020-09-14T10:13:40Z</time>
      </trkpt>
      <trkpt lat="45.10449" lon="2.59651">
        <ele>958</ele>
        <time>2020-09-14T10:13:46Z</time>
      </trkpt>
      <trkpt lat="45.10447" lon="2.59661">
        <ele>958</ele>
        <time>2020-09-14T10:13:52Z</time>
      </trkpt>
      <trkpt lat="45.10445" lon="2.59673">
        <ele>959</ele>
        <time>2020-09-14T10:14:00Z</time>
      </trkpt>
      <trkpt lat="45.10442" lon="2.59684">
        <ele>958</ele>
        <time>2020-09-14T10:14:06Z</time>
      </trkpt>
      <trkpt lat="45.10442" lon="2.59696">
        <ele>957</ele>
        <time>2020-09-14T10:14:13Z</time>
      </trkpt>
      <trkpt lat="45.10445" lon="2.59706">
        <ele>959</ele>
        <time>2020-09-14T10:14:21Z</time>
      </trkpt>
      <trkpt lat="45.10446" lon="2.59718">
        <ele>960</ele>
        <time>2020-09-14T10:14:29Z</time>
      </trkpt>
      <trkpt lat="45.10449" lon="2.5973">
        <ele>962</ele>
        <time>2020-09-14T10:14:37Z</time>
      </trkpt>
      <trkpt lat="45.10453" lon="2.59742">
        <ele>962</ele>
        <time>2020-09-14T10:14:45Z</time>
      </trkpt>
      <trkpt lat="45.10456" lon="2.59753">
        <ele>963</ele>
        <time>2020-09-14T10:14:54Z</time>
      </trkpt>
      <trkpt lat="45.10459" lon="2.59764">
        <ele>965</ele>
        <time>2020-09-14T10:15:03Z</time>
      </trkpt>
      <trkpt lat="45.10461" lon="2.59776">
        <ele>966</ele>
        <time>2020-09-14T10:15:11Z</time>
      </trkpt>
      <trkpt lat="45.10461" lon="2.59788">
        <ele>968</ele>
        <time>2020-09-14T10:15:21Z</time>
      </trkpt>
      <trkpt lat="45.10463" lon="2.598">
        <ele>971</ele>
        <time>2020-09-14T10:15:30Z</time>
      </trkpt>
      <trkpt lat="45.10466" lon="2.59811">
        <ele>972</ele>
        <time>2020-09-14T10:15:38Z</time>
      </trkpt>
      <trkpt lat="45.1047" lon="2.59822">
        <ele>973</ele>
        <time>2020-09-14T10:15:46Z</time>
      </trkpt>
      <trkpt lat="45.10476" lon="2.59831">
        <ele>974</ele>
        <time>2020-09-14T10:15:55Z</time>
      </trkpt>
      <trkpt lat="45.10479" lon="2.59842">
        <ele>974</ele>
        <time>2020-09-14T10:16:04Z</time>
      </trkpt>
      <trkpt lat="45.10484" lon="2.59851">
        <ele>975</ele>
        <time>2020-09-14T10:16:12Z</time>
      </trkpt>
      <trkpt lat="45.10488" lon="2.59862">
        <ele>977</ele>
        <time>2020-09-14T10:16:22Z</time>
      </trkpt>
      <trkpt lat="45.10493" lon="2.5987">
        <ele>978</ele>
        <time>2020-09-14T10:16:28Z</time>
      </trkpt>
      <trkpt lat="45.10498" lon="2.5988">
        <ele>978</ele>
        <time>2020-09-14T10:16:35Z</time>
      </trkpt>
      <trkpt lat="45.10503" lon="2.5989">
        <ele>978</ele>
        <time>2020-09-14T10:16:43Z</time>
      </trkpt>
      <trkpt lat="45.10507" lon="2.59901">
        <ele>977</ele>
        <time>2020-09-14T10:16:51Z</time>
      </trkpt>
      <trkpt lat="45.10511" lon="2.59912">
        <ele>977</ele>
        <time>2020-09-14T10:16:59Z</time>
      </trkpt>
      <trkpt lat="45.10516" lon="2.59921">
        <ele>978</ele>
        <time>2020-09-14T10:17:07Z</time>
      </trkpt>
      <trkpt lat="45.10521" lon="2.59931">
        <ele>979</ele>
        <time>2020-09-14T10:17:15Z</time>
      </trkpt>
      <trkpt lat="45.10526" lon="2.5994">
        <ele>980</ele>
        <time>2020-09-14T10:17:22Z</time>
      </trkpt>
      <trkpt lat="45.10531" lon="2.59949">
        <ele>980</ele>
        <time>2020-09-14T10:17:30Z</time>
      </trkpt>
      <trkpt lat="45.10537" lon="2.59956">
        <ele>981</ele>
        <time>2020-09-14T10:17:38Z</time>
      </trkpt>
      <trkpt lat="45.10543" lon="2.59965">
        <ele>982</ele>
        <time>2020-09-14T10:17:45Z</time>
      </trkpt>
      <trkpt lat="45.10549" lon="2.59974">
        <ele>984</ele>
        <time>2020-09-14T10:17:52Z</time>
      </trkpt>
      <trkpt lat="45.10554" lon="2.59983">
        <ele>984</ele>
        <time>2020-09-14T10:18:00Z</time>
      </trkpt>
      <trkpt lat="45.10561" lon="2.59991">
        <ele>984</ele>
        <time>2020-09-14T10:18:08Z</time>
      </trkpt>
      <trkpt lat="45.10567" lon="2.59998">
        <ele>985</ele>
        <time>2020-09-14T10:18:15Z</time>
      </trkpt>
      <trkpt lat="45.10572" lon="2.60007">
        <ele>986</ele>
        <time>2020-09-14T10:18:24Z</time>
      </trkpt>
      <trkpt lat="45.10577" lon="2.60016">
        <ele>987</ele>
        <time>2020-09-14T10:18:33Z</time>
      </trkpt>
      <trkpt lat="45.10584" lon="2.60024">
        <ele>988</ele>
        <time>2020-09-14T10:18:41Z</time>
      </trkpt>
      <trkpt lat="45.1059" lon="2.60032">
        <ele>989</ele>
        <time>2020-09-14T10:18:49Z</time>
      </trkpt>
      <trkpt lat="45.10597" lon="2.6004">
        <ele>992</ele>
        <time>2020-09-14T10:18:57Z</time>
      </trkpt>
      <trkpt lat="45.10603" lon="2.60049">
        <ele>993</ele>
        <time>2020-09-14T10:19:05Z</time>
      </trkpt>
      <trkpt lat="45.10608" lon="2.60058">
        <ele>994</ele>
        <time>2020-09-14T10:19:12Z</time>
      </trkpt>
      <trkpt lat="45.10612" lon="2.60068">
        <ele>997</ele>
        <time>2020-09-14T10:19:20Z</time>
      </trkpt>
      <trkpt lat="45.10617" lon="2.60078">
        <ele>997</ele>
        <time>2020-09-14T10:19:29Z</time>
      </trkpt>
      <trkpt lat="45.10622" lon="2.60087">
        <ele>999</ele>
        <time>2020-09-14T10:19:38Z</time>
      </trkpt>
      <trkpt lat="45.10626" lon="2.60098">
        <ele>1000</ele>
        <time>2020-09-14T10:19:45Z</time>
      </trkpt>
      <trkpt lat="45.1063" lon="2.60109">
        <ele>1002</ele>
        <time>2020-09-14T10:19:54Z</time>
      </trkpt>
      <trkpt lat="45.10634" lon="2.6012">
        <ele>1003</ele>
        <time>2020-09-14T10:20:02Z</time>
      </trkpt>
      <trkpt lat="45.10639" lon="2.60131">
        <ele>1005</ele>
        <time>2020-09-14T10:20:11Z</time>
      </trkpt>
      <trkpt lat="45.10645" lon="2.60139">
        <ele>1007</ele>
        <time>2020-09-14T10:20:22Z</time>
      </trkpt>
      <trkpt lat="45.10651" lon="2.60148">
        <ele>1007</ele>
        <time>2020-09-14T10:20:31Z</time>
      </trkpt>
      <trkpt lat="45.1066" lon="2.60145">
        <ele>1006</ele>
        <time>2020-09-14T10:20:45Z</time>
      </trkpt>
      <trkpt lat="45.10667" lon="2.60142">
        <ele>1006</ele>
        <time>2020-09-14T10:20:52Z</time>
      </trkpt>
      <trkpt lat="45.10676" lon="2.60141">
        <ele>1007</ele>
        <time>2020-09-14T10:20:59Z</time>
      </trkpt>
      <trkpt lat="45.10683" lon="2.60139">
        <ele>1007</ele>
        <time>2020-09-14T10:21:06Z</time>
      </trkpt>
      <trkpt lat="45.10691" lon="2.60135">
        <ele>1004</ele>
        <time>2020-09-14T10:21:12Z</time>
      </trkpt>
      <trkpt lat="45.10698" lon="2.6013">
        <ele>1001</ele>
        <time>2020-09-14T10:21:18Z</time>
      </trkpt>
      <trkpt lat="45.10706" lon="2.60124">
        <ele>999</ele>
        <time>2020-09-14T10:21:26Z</time>
      </trkpt>
      <trkpt lat="45.10714" lon="2.60125">
        <ele>999</ele>
        <time>2020-09-14T10:21:34Z</time>
      </trkpt>
      <trkpt lat="45.10722" lon="2.60127">
        <ele>999</ele>
        <time>2020-09-14T10:21:43Z</time>
      </trkpt>
      <trkpt lat="45.1073" lon="2.60125">
        <ele>1000</ele>
        <time>2020-09-14T10:21:51Z</time>
      </trkpt>
      <trkpt lat="45.10737" lon="2.60126">
        <ele>1002</ele>
        <time>2020-09-14T10:21:57Z</time>
      </trkpt>
      <trkpt lat="45.10745" lon="2.60129">
        <ele>1000</ele>
        <time>2020-09-14T10:22:03Z</time>
      </trkpt>
      <trkpt lat="45.10754" lon="2.60127">
        <ele>999</ele>
        <time>2020-09-14T10:22:19Z</time>
      </trkpt>
      <trkpt lat="45.10762" lon="2.60125">
        <ele>1000</ele>
        <time>2020-09-14T10:22:24Z</time>
      </trkpt>
      <trkpt lat="45.1077" lon="2.60124">
        <ele>1002</ele>
        <time>2020-09-14T10:22:31Z</time>
      </trkpt>
      <trkpt lat="45.10777" lon="2.60121">
        <ele>1001</ele>
        <time>2020-09-14T10:22:36Z</time>
      </trkpt>
      <trkpt lat="45.10785" lon="2.60124">
        <ele>1001</ele>
        <time>2020-09-14T10:22:42Z</time>
      </trkpt>
      <trkpt lat="45.10792" lon="2.60132">
        <ele>1005</ele>
        <time>2020-09-14T10:22:51Z</time>
      </trkpt>
      <trkpt lat="45.108" lon="2.60135">
        <ele>1006</ele>
        <time>2020-09-14T10:22:59Z</time>
      </trkpt>
      <trkpt lat="45.10807" lon="2.60142">
        <ele>1006</ele>
        <time>2020-09-14T10:23:05Z</time>
      </trkpt>
      <trkpt lat="45.10812" lon="2.60152">
        <ele>1007</ele>
        <time>2020-09-14T10:23:10Z</time>
      </trkpt>
      <trkpt lat="45.1082" lon="2.60158">
        <ele>1005</ele>
        <time>2020-09-14T10:23:16Z</time>
      </trkpt>
      <trkpt lat="45.10826" lon="2.60167">
        <ele>1005</ele>
        <time>2020-09-14T10:23:23Z</time>
      </trkpt>
      <trkpt lat="45.10834" lon="2.6017">
        <ele>1005</ele>
        <time>2020-09-14T10:23:34Z</time>
      </trkpt>
      <trkpt lat="45.10842" lon="2.60166">
        <ele>1005</ele>
        <time>2020-09-14T10:23:41Z</time>
      </trkpt>
      <trkpt lat="45.1085" lon="2.60163">
        <ele>1007</ele>
        <time>2020-09-14T10:23:48Z</time>
      </trkpt>
      <trkpt lat="45.10855" lon="2.60154">
        <ele>1004</ele>
        <time>2020-09-14T10:23:55Z</time>
      </trkpt>
      <trkpt lat="45.10861" lon="2.6015">
        <ele>1003</ele>
        <time>2020-09-14T10:24:05Z</time>
      </trkpt>
      <trkpt lat="45.10869" lon="2.60143">
        <ele>1000</ele>
        <time>2020-09-14T10:24:25Z</time>
      </trkpt>
      <trkpt lat="45.10869" lon="2.60143">
        <ele>1000</ele>
        <time>2020-09-14T10:24:25Z</time>
      </trkpt>
      <trkpt lat="45.10864" lon="2.60135">
        <ele>1005</ele>
        <time>2020-09-14T10:54:25Z</time>
      </trkpt>
      <trkpt lat="45.10866" lon="2.60147">
        <ele>998</ele>
        <time>2020-09-14T10:54:42Z</time>
      </trkpt>
      <trkpt lat="45.10866" lon="2.60153">
        <ele>999</ele>
        <time>2020-09-14T10:54:49Z</time>
      </trkpt>
      <trkpt lat="45.10866" lon="2.60153">
        <ele>999</ele>
        <time>2020-09-14T10:54:50Z</time>
      </trkpt>
      <trkpt lat="45.10865" lon="2.60155">
        <ele>1001</ele>
        <time>2020-09-14T10:54:54Z</time>
      </trkpt>
      <trkpt lat="45.10859" lon="2.60165">
        <ele>1004</ele>
        <time>2020-09-14T10:55:35Z</time>
      </trkpt>
      <trkpt lat="45.10851" lon="2.60168">
        <ele>1005</ele>
        <time>2020-09-14T10:55:44Z</time>
      </trkpt>
      <trkpt lat="45.10843" lon="2.60173">
        <ele>1007</ele>
        <time>2020-09-14T10:55:52Z</time>
      </trkpt>
      <trkpt lat="45.10835" lon="2.60171">
        <ele>1006</ele>
        <time>2020-09-14T10:56:02Z</time>
      </trkpt>
      <trkpt lat="45.10831" lon="2.6016">
        <ele>1005</ele>
        <time>2020-09-14T10:56:09Z</time>
      </trkpt>
      <trkpt lat="45.10824" lon="2.60155">
        <ele>1004</ele>
        <time>2020-09-14T10:56:17Z</time>
      </trkpt>
      <trkpt lat="45.10817" lon="2.60154">
        <ele>1004</ele>
        <time>2020-09-14T10:56:28Z</time>
      </trkpt>
      <trkpt lat="45.10812" lon="2.60146">
        <ele>1006</ele>
        <time>2020-09-14T10:56:35Z</time>
      </trkpt>
      <trkpt lat="45.10805" lon="2.60139">
        <ele>1006</ele>
        <time>2020-09-14T10:56:42Z</time>
      </trkpt>
      <trkpt lat="45.10798" lon="2.60135">
        <ele>1005</ele>
        <time>2020-09-14T10:56:49Z</time>
      </trkpt>
      <trkpt lat="45.1079" lon="2.60129">
        <ele>1006</ele>
        <time>2020-09-14T10:56:55Z</time>
      </trkpt>
      <trkpt lat="45.10781" lon="2.60128">
        <ele>1007</ele>
        <time>2020-09-14T10:57:02Z</time>
      </trkpt>
      <trkpt lat="45.10774" lon="2.60132">
        <ele>1006</ele>
        <time>2020-09-14T10:57:12Z</time>
      </trkpt>
      <trkpt lat="45.10766" lon="2.60131">
        <ele>1004</ele>
        <time>2020-09-14T10:57:19Z</time>
      </trkpt>
      <trkpt lat="45.10758" lon="2.60132">
        <ele>1003</ele>
        <time>2020-09-14T10:57:28Z</time>
      </trkpt>
      <trkpt lat="45.10749" lon="2.6013">
        <ele>1005</ele>
        <time>2020-09-14T10:57:39Z</time>
      </trkpt>
      <trkpt lat="45.10742" lon="2.60125">
        <ele>1005</ele>
        <time>2020-09-14T10:57:48Z</time>
      </trkpt>
      <trkpt lat="45.10733" lon="2.60122">
        <ele>1006</ele>
        <time>2020-09-14T10:57:56Z</time>
      </trkpt>
      <trkpt lat="45.10725" lon="2.60122">
        <ele>1005</ele>
        <time>2020-09-14T10:58:03Z</time>
      </trkpt>
      <trkpt lat="45.10716" lon="2.60123">
        <ele>1005</ele>
        <time>2020-09-14T10:58:11Z</time>
      </trkpt>
      <trkpt lat="45.10708" lon="2.60126">
        <ele>1005</ele>
        <time>2020-09-14T10:58:18Z</time>
      </trkpt>
      <trkpt lat="45.107" lon="2.6013">
        <ele>1003</ele>
        <time>2020-09-14T10:58:26Z</time>
      </trkpt>
      <trkpt lat="45.10693" lon="2.60134">
        <ele>1003</ele>
        <time>2020-09-14T10:58:34Z</time>
      </trkpt>
      <trkpt lat="45.10685" lon="2.60135">
        <ele>1002</ele>
        <time>2020-09-14T10:58:39Z</time>
      </trkpt>
      <trkpt lat="45.10677" lon="2.60139">
        <ele>1003</ele>
        <time>2020-09-14T10:58:46Z</time>
      </trkpt>
      <trkpt lat="45.10669" lon="2.60145">
        <ele>1005</ele>
        <time>2020-09-14T10:58:56Z</time>
      </trkpt>
      <trkpt lat="45.10661" lon="2.60148">
        <ele>1007</ele>
        <time>2020-09-14T10:59:05Z</time>
      </trkpt>
      <trkpt lat="45.10659" lon="2.60154">
        <ele>1007</ele>
        <time>2020-09-14T10:59:15Z</time>
      </trkpt>
      <trkpt lat="45.10659" lon="2.60154">
        <ele>1007</ele>
        <time>2020-09-14T10:59:15Z</time>
      </trkpt>
      <trkpt lat="45.10655" lon="2.60154">
        <ele>1008</ele>
        <time>2020-09-14T10:59:40Z</time>
      </trkpt>
      <trkpt lat="45.10663" lon="2.60153">
        <ele>1004</ele>
        <time>2020-09-14T10:59:50Z</time>
      </trkpt>
      <trkpt lat="45.10671" lon="2.60154">
        <ele>1004</ele>
        <time>2020-09-14T10:59:57Z</time>
      </trkpt>
      <trkpt lat="45.1068" lon="2.60157">
        <ele>1003</ele>
        <time>2020-09-14T11:00:06Z</time>
      </trkpt>
      <trkpt lat="45.10688" lon="2.6016">
        <ele>1003</ele>
        <time>2020-09-14T11:00:14Z</time>
      </trkpt>
      <trkpt lat="45.10696" lon="2.60163">
        <ele>1005</ele>
        <time>2020-09-14T11:00:22Z</time>
      </trkpt>
      <trkpt lat="45.10704" lon="2.60165">
        <ele>1006</ele>
        <time>2020-09-14T11:00:30Z</time>
      </trkpt>
      <trkpt lat="45.10712" lon="2.60165">
        <ele>1007</ele>
        <time>2020-09-14T11:00:38Z</time>
      </trkpt>
      <trkpt lat="45.1072" lon="2.60166">
        <ele>1009</ele>
        <time>2020-09-14T11:00:48Z</time>
      </trkpt>
      <trkpt lat="45.10728" lon="2.60168">
        <ele>1009</ele>
        <time>2020-09-14T11:00:57Z</time>
      </trkpt>
      <trkpt lat="45.10737" lon="2.60171">
        <ele>1012</ele>
        <time>2020-09-14T11:01:04Z</time>
      </trkpt>
      <trkpt lat="45.10744" lon="2.60176">
        <ele>1012</ele>
        <time>2020-09-14T11:01:13Z</time>
      </trkpt>
      <trkpt lat="45.1075" lon="2.60183">
        <ele>1014</ele>
        <time>2020-09-14T11:01:22Z</time>
      </trkpt>
      <trkpt lat="45.10756" lon="2.60191">
        <ele>1015</ele>
        <time>2020-09-14T11:01:31Z</time>
      </trkpt>
      <trkpt lat="45.10764" lon="2.60196">
        <ele>1016</ele>
        <time>2020-09-14T11:01:39Z</time>
      </trkpt>
      <trkpt lat="45.10771" lon="2.60201">
        <ele>1017</ele>
        <time>2020-09-14T11:01:48Z</time>
      </trkpt>
      <trkpt lat="45.10778" lon="2.6021">
        <ele>1016</ele>
        <time>2020-09-14T11:01:58Z</time>
      </trkpt>
      <trkpt lat="45.10786" lon="2.60215">
        <ele>1017</ele>
        <time>2020-09-14T11:02:09Z</time>
      </trkpt>
      <trkpt lat="45.10793" lon="2.60221">
        <ele>1018</ele>
        <time>2020-09-14T11:02:18Z</time>
      </trkpt>
      <trkpt lat="45.108" lon="2.60229">
        <ele>1020</ele>
        <time>2020-09-14T11:02:29Z</time>
      </trkpt>
      <trkpt lat="45.10806" lon="2.60236">
        <ele>1021</ele>
        <time>2020-09-14T11:02:38Z</time>
      </trkpt>
      <trkpt lat="45.10813" lon="2.60242">
        <ele>1022</ele>
        <time>2020-09-14T11:02:49Z</time>
      </trkpt>
      <trkpt lat="45.10818" lon="2.6025">
        <ele>1025</ele>
        <time>2020-09-14T11:02:58Z</time>
      </trkpt>
      <trkpt lat="45.10826" lon="2.60256">
        <ele>1025</ele>
        <time>2020-09-14T11:03:07Z</time>
      </trkpt>
      <trkpt lat="45.10834" lon="2.60261">
        <ele>1029</ele>
        <time>2020-09-14T11:03:21Z</time>
      </trkpt>
      <trkpt lat="45.10842" lon="2.60264">
        <ele>1031</ele>
        <time>2020-09-14T11:03:33Z</time>
      </trkpt>
      <trkpt lat="45.10849" lon="2.60271">
        <ele>1035</ele>
        <time>2020-09-14T11:03:46Z</time>
      </trkpt>
      <trkpt lat="45.10857" lon="2.60275">
        <ele>1036</ele>
        <time>2020-09-14T11:03:55Z</time>
      </trkpt>
      <trkpt lat="45.10864" lon="2.60281">
        <ele>1034</ele>
        <time>2020-09-14T11:04:05Z</time>
      </trkpt>
      <trkpt lat="45.10872" lon="2.60286">
        <ele>1034</ele>
        <time>2020-09-14T11:04:12Z</time>
      </trkpt>
      <trkpt lat="45.1088" lon="2.6029">
        <ele>1037</ele>
        <time>2020-09-14T11:04:23Z</time>
      </trkpt>
      <trkpt lat="45.10886" lon="2.60298">
        <ele>1039</ele>
        <time>2020-09-14T11:04:34Z</time>
      </trkpt>
      <trkpt lat="45.10892" lon="2.60305">
        <ele>1040</ele>
        <time>2020-09-14T11:04:42Z</time>
      </trkpt>
      <trkpt lat="45.10899" lon="2.60312">
        <ele>1041</ele>
        <time>2020-09-14T11:04:49Z</time>
      </trkpt>
      <trkpt lat="45.10904" lon="2.60321">
        <ele>1042</ele>
        <time>2020-09-14T11:04:55Z</time>
      </trkpt>
      <trkpt lat="45.10912" lon="2.60327">
        <ele>1043</ele>
        <time>2020-09-14T11:05:03Z</time>
      </trkpt>
      <trkpt lat="45.10917" lon="2.60337">
        <ele>1042</ele>
        <time>2020-09-14T11:05:14Z</time>
      </trkpt>
      <trkpt lat="45.10925" lon="2.60343">
        <ele>1046</ele>
        <time>2020-09-14T11:05:23Z</time>
      </trkpt>
      <trkpt lat="45.1093" lon="2.60353">
        <ele>1044</ele>
        <time>2020-09-14T11:05:31Z</time>
      </trkpt>
      <trkpt lat="45.10935" lon="2.60363">
        <ele>1046</ele>
        <time>2020-09-14T11:05:42Z</time>
      </trkpt>
      <trkpt lat="45.1094" lon="2.60372">
        <ele>1046</ele>
        <time>2020-09-14T11:05:51Z</time>
      </trkpt>
      <trkpt lat="45.10944" lon="2.60383">
        <ele>1047</ele>
        <time>2020-09-14T11:05:59Z</time>
      </trkpt>
      <trkpt lat="45.10951" lon="2.6039">
        <ele>1048</ele>
        <time>2020-09-14T11:06:06Z</time>
      </trkpt>
      <trkpt lat="45.1096" lon="2.60394">
        <ele>1048</ele>
        <time>2020-09-14T11:06:14Z</time>
      </trkpt>
      <trkpt lat="45.10966" lon="2.60399">
        <ele>1048</ele>
        <time>2020-09-14T11:06:20Z</time>
      </trkpt>
      <trkpt lat="45.10973" lon="2.60405">
        <ele>1047</ele>
        <time>2020-09-14T11:06:29Z</time>
      </trkpt>
      <trkpt lat="45.10979" lon="2.60412">
        <ele>1047</ele>
        <time>2020-09-14T11:06:39Z</time>
      </trkpt>
      <trkpt lat="45.10985" lon="2.60419">
        <ele>1047</ele>
        <time>2020-09-14T11:06:46Z</time>
      </trkpt>
      <trkpt lat="45.10991" lon="2.60429">
        <ele>1048</ele>
        <time>2020-09-14T11:06:54Z</time>
      </trkpt>
      <trkpt lat="45.10997" lon="2.60436">
        <ele>1046</ele>
        <time>2020-09-14T11:07:01Z</time>
      </trkpt>
      <trkpt lat="45.11004" lon="2.60444">
        <ele>1048</ele>
        <time>2020-09-14T11:07:09Z</time>
      </trkpt>
      <trkpt lat="45.11008" lon="2.60454">
        <ele>1049</ele>
        <time>2020-09-14T11:07:18Z</time>
      </trkpt>
      <trkpt lat="45.11014" lon="2.60464">
        <ele>1051</ele>
        <time>2020-09-14T11:07:27Z</time>
      </trkpt>
      <trkpt lat="45.1102" lon="2.60473">
        <ele>1051</ele>
        <time>2020-09-14T11:07:36Z</time>
      </trkpt>
      <trkpt lat="45.11021" lon="2.60484">
        <ele>1052</ele>
        <time>2020-09-14T11:07:46Z</time>
      </trkpt>
      <trkpt lat="45.11028" lon="2.60492">
        <ele>1054</ele>
        <time>2020-09-14T11:07:56Z</time>
      </trkpt>
      <trkpt lat="45.11035" lon="2.60498">
        <ele>1056</ele>
        <time>2020-09-14T11:08:05Z</time>
      </trkpt>
      <trkpt lat="45.11043" lon="2.60503">
        <ele>1057</ele>
        <time>2020-09-14T11:08:14Z</time>
      </trkpt>
      <trkpt lat="45.1105" lon="2.60509">
        <ele>1057</ele>
        <time>2020-09-14T11:08:21Z</time>
      </trkpt>
      <trkpt lat="45.11053" lon="2.6052">
        <ele>1057</ele>
        <time>2020-09-14T11:08:30Z</time>
      </trkpt>
      <trkpt lat="45.11057" lon="2.60531">
        <ele>1058</ele>
        <time>2020-09-14T11:08:39Z</time>
      </trkpt>
      <trkpt lat="45.11063" lon="2.60539">
        <ele>1061</ele>
        <time>2020-09-14T11:08:49Z</time>
      </trkpt>
      <trkpt lat="45.11063" lon="2.60551">
        <ele>1062</ele>
        <time>2020-09-14T11:08:57Z</time>
      </trkpt>
      <trkpt lat="45.11071" lon="2.6055">
        <ele>1065</ele>
        <time>2020-09-14T11:09:06Z</time>
      </trkpt>
      <trkpt lat="45.11079" lon="2.60553">
        <ele>1065</ele>
        <time>2020-09-14T11:09:14Z</time>
      </trkpt>
      <trkpt lat="45.11087" lon="2.60557">
        <ele>1064</ele>
        <time>2020-09-14T11:09:19Z</time>
      </trkpt>
      <trkpt lat="45.11096" lon="2.6056">
        <ele>1064</ele>
        <time>2020-09-14T11:09:25Z</time>
      </trkpt>
      <trkpt lat="45.11102" lon="2.60568">
        <ele>1064</ele>
        <time>2020-09-14T11:09:33Z</time>
      </trkpt>
      <trkpt lat="45.1111" lon="2.60575">
        <ele>1064</ele>
        <time>2020-09-14T11:09:40Z</time>
      </trkpt>
      <trkpt lat="45.11112" lon="2.60586">
        <ele>1063</ele>
        <time>2020-09-14T11:09:47Z</time>
      </trkpt>
      <trkpt lat="45.11118" lon="2.60594">
        <ele>1063</ele>
        <time>2020-09-14T11:09:55Z</time>
      </trkpt>
      <trkpt lat="45.11117" lon="2.60606">
        <ele>1064</ele>
        <time>2020-09-14T11:10:01Z</time>
      </trkpt>
      <trkpt lat="45.11121" lon="2.60617">
        <ele>1064</ele>
        <time>2020-09-14T11:10:11Z</time>
      </trkpt>
      <trkpt lat="45.11125" lon="2.60627">
        <ele>1063</ele>
        <time>2020-09-14T11:10:18Z</time>
      </trkpt>
      <trkpt lat="45.11132" lon="2.60635">
        <ele>1065</ele>
        <time>2020-09-14T11:10:26Z</time>
      </trkpt>
      <trkpt lat="45.11136" lon="2.60645">
        <ele>1065</ele>
        <time>2020-09-14T11:10:34Z</time>
      </trkpt>
      <trkpt lat="45.11139" lon="2.60656">
        <ele>1066</ele>
        <time>2020-09-14T11:10:43Z</time>
      </trkpt>
      <trkpt lat="45.11142" lon="2.60668">
        <ele>1069</ele>
        <time>2020-09-14T11:10:51Z</time>
      </trkpt>
      <trkpt lat="45.11143" lon="2.60679">
        <ele>1070</ele>
        <time>2020-09-14T11:10:59Z</time>
      </trkpt>
      <trkpt lat="45.11145" lon="2.60691">
        <ele>1069</ele>
        <time>2020-09-14T11:11:07Z</time>
      </trkpt>
      <trkpt lat="45.1115" lon="2.60702">
        <ele>1069</ele>
        <time>2020-09-14T11:11:15Z</time>
      </trkpt>
      <trkpt lat="45.11155" lon="2.60712">
        <ele>1068</ele>
        <time>2020-09-14T11:11:25Z</time>
      </trkpt>
      <trkpt lat="45.1115" lon="2.60702">
        <ele>1070</ele>
        <time>2020-09-14T11:11:47Z</time>
      </trkpt>
      <trkpt lat="45.11146" lon="2.60693">
        <ele>1071</ele>
        <time>2020-09-14T11:11:54Z</time>
      </trkpt>
      <trkpt lat="45.11142" lon="2.60682">
        <ele>1072</ele>
        <time>2020-09-14T11:12:00Z</time>
      </trkpt>
      <trkpt lat="45.11138" lon="2.60672">
        <ele>1072</ele>
        <time>2020-09-14T11:12:07Z</time>
      </trkpt>
      <trkpt lat="45.11136" lon="2.60662">
        <ele>1072</ele>
        <time>2020-09-14T11:12:14Z</time>
      </trkpt>
      <trkpt lat="45.11131" lon="2.60653">
        <ele>1074</ele>
        <time>2020-09-14T11:12:20Z</time>
      </trkpt>
      <trkpt lat="45.11127" lon="2.60642">
        <ele>1075</ele>
        <time>2020-09-14T11:12:28Z</time>
      </trkpt>
      <trkpt lat="45.11126" lon="2.6063">
        <ele>1074</ele>
        <time>2020-09-14T11:12:34Z</time>
      </trkpt>
      <trkpt lat="45.11121" lon="2.60621">
        <ele>1074</ele>
        <time>2020-09-14T11:12:40Z</time>
      </trkpt>
      <trkpt lat="45.11117" lon="2.60611">
        <ele>1073</ele>
        <time>2020-09-14T11:12:46Z</time>
      </trkpt>
      <trkpt lat="45.11113" lon="2.60602">
        <ele>1074</ele>
        <time>2020-09-14T11:12:53Z</time>
      </trkpt>
      <trkpt lat="45.1111" lon="2.6059">
        <ele>1075</ele>
        <time>2020-09-14T11:13:00Z</time>
      </trkpt>
      <trkpt lat="45.11106" lon="2.6058">
        <ele>1076</ele>
        <time>2020-09-14T11:13:07Z</time>
      </trkpt>
      <trkpt lat="45.11101" lon="2.6057">
        <ele>1076</ele>
        <time>2020-09-14T11:13:16Z</time>
      </trkpt>
      <trkpt lat="45.11093" lon="2.60564">
        <ele>1076</ele>
        <time>2020-09-14T11:13:24Z</time>
      </trkpt>
      <trkpt lat="45.11086" lon="2.6056">
        <ele>1077</ele>
        <time>2020-09-14T11:13:31Z</time>
      </trkpt>
      <trkpt lat="45.11077" lon="2.60558">
        <ele>1077</ele>
        <time>2020-09-14T11:13:38Z</time>
      </trkpt>
      <trkpt lat="45.1107" lon="2.60553">
        <ele>1078</ele>
        <time>2020-09-14T11:13:46Z</time>
      </trkpt>
      <trkpt lat="45.11066" lon="2.60564">
        <ele>1076</ele>
        <time>2020-09-14T11:14:00Z</time>
      </trkpt>
      <trkpt lat="45.11071" lon="2.60575">
        <ele>1069</ele>
        <time>2020-09-14T11:14:15Z</time>
      </trkpt>
      <trkpt lat="45.11075" lon="2.60585">
        <ele>1070</ele>
        <time>2020-09-14T11:14:25Z</time>
      </trkpt>
      <trkpt lat="45.11078" lon="2.60597">
        <ele>1069</ele>
        <time>2020-09-14T11:14:37Z</time>
      </trkpt>
      <trkpt lat="45.11083" lon="2.60607">
        <ele>1068</ele>
        <time>2020-09-14T11:14:48Z</time>
      </trkpt>
      <trkpt lat="45.11086" lon="2.60617">
        <ele>1068</ele>
        <time>2020-09-14T11:14:57Z</time>
      </trkpt>
      <trkpt lat="45.11084" lon="2.60629">
        <ele>1070</ele>
        <time>2020-09-14T11:15:06Z</time>
      </trkpt>
      <trkpt lat="45.11087" lon="2.6064">
        <ele>1073</ele>
        <time>2020-09-14T11:15:13Z</time>
      </trkpt>
      <trkpt lat="45.11088" lon="2.60652">
        <ele>1074</ele>
        <time>2020-09-14T11:15:20Z</time>
      </trkpt>
      <trkpt lat="45.11091" lon="2.60663">
        <ele>1077</ele>
        <time>2020-09-14T11:15:31Z</time>
      </trkpt>
      <trkpt lat="45.11095" lon="2.60674">
        <ele>1079</ele>
        <time>2020-09-14T11:15:41Z</time>
      </trkpt>
      <trkpt lat="45.11097" lon="2.60685">
        <ele>1081</ele>
        <time>2020-09-14T11:15:52Z</time>
      </trkpt>
      <trkpt lat="45.11103" lon="2.60694">
        <ele>1081</ele>
        <time>2020-09-14T11:16:00Z</time>
      </trkpt>
      <trkpt lat="45.11108" lon="2.60703">
        <ele>1080</ele>
        <time>2020-09-14T11:16:08Z</time>
      </trkpt>
      <trkpt lat="45.1111" lon="2.60715">
        <ele>1081</ele>
        <time>2020-09-14T11:16:15Z</time>
      </trkpt>
      <trkpt lat="45.11108" lon="2.60727">
        <ele>1079</ele>
        <time>2020-09-14T11:16:25Z</time>
      </trkpt>
      <trkpt lat="45.11113" lon="2.60738">
        <ele>1079</ele>
        <time>2020-09-14T11:16:37Z</time>
      </trkpt>
      <trkpt lat="45.11115" lon="2.60749">
        <ele>1081</ele>
        <time>2020-09-14T11:16:47Z</time>
      </trkpt>
      <trkpt lat="45.11116" lon="2.60762">
        <ele>1082</ele>
        <time>2020-09-14T11:16:58Z</time>
      </trkpt>
      <trkpt lat="45.11116" lon="2.60773">
        <ele>1082</ele>
        <time>2020-09-14T11:17:04Z</time>
      </trkpt>
      <trkpt lat="45.11119" lon="2.60783">
        <ele>1083</ele>
        <time>2020-09-14T11:17:12Z</time>
      </trkpt>
      <trkpt lat="45.11121" lon="2.60795">
        <ele>1085</ele>
        <time>2020-09-14T11:17:23Z</time>
      </trkpt>
      <trkpt lat="45.11126" lon="2.60804">
        <ele>1087</ele>
        <time>2020-09-14T11:17:32Z</time>
      </trkpt>
      <trkpt lat="45.11127" lon="2.60815">
        <ele>1087</ele>
        <time>2020-09-14T11:17:40Z</time>
      </trkpt>
      <trkpt lat="45.11128" lon="2.60827">
        <ele>1087</ele>
        <time>2020-09-14T11:17:47Z</time>
      </trkpt>
      <trkpt lat="45.11131" lon="2.60839">
        <ele>1088</ele>
        <time>2020-09-14T11:17:58Z</time>
      </trkpt>
      <trkpt lat="45.11136" lon="2.60848">
        <ele>1091</ele>
        <time>2020-09-14T11:18:07Z</time>
      </trkpt>
      <trkpt lat="45.11141" lon="2.60858">
        <ele>1093</ele>
        <time>2020-09-14T11:18:17Z</time>
      </trkpt>
      <trkpt lat="45.11147" lon="2.60865">
        <ele>1092</ele>
        <time>2020-09-14T11:18:24Z</time>
      </trkpt>
      <trkpt lat="45.11151" lon="2.60876">
        <ele>1091</ele>
        <time>2020-09-14T11:18:31Z</time>
      </trkpt>
      <trkpt lat="45.11152" lon="2.60886">
        <ele>1091</ele>
        <time>2020-09-14T11:18:38Z</time>
      </trkpt>
      <trkpt lat="45.11151" lon="2.60896">
        <ele>1092</ele>
        <time>2020-09-14T11:18:44Z</time>
      </trkpt>
      <trkpt lat="45.11154" lon="2.60907">
        <ele>1094</ele>
        <time>2020-09-14T11:18:54Z</time>
      </trkpt>
      <trkpt lat="45.11156" lon="2.60919">
        <ele>1095</ele>
        <time>2020-09-14T11:19:03Z</time>
      </trkpt>
      <trkpt lat="45.11157" lon="2.60928">
        <ele>1096</ele>
        <time>2020-09-14T11:19:11Z</time>
      </trkpt>
      <trkpt lat="45.11157" lon="2.60928">
        <ele>1096</ele>
        <time>2020-09-14T11:19:12Z</time>
      </trkpt>
      <trkpt lat="45.11155" lon="2.60938">
        <ele>1102</ele>
        <time>2020-09-14T11:27:27Z</time>
      </trkpt>
      <trkpt lat="45.11157" lon="2.60949">
        <ele>1098</ele>
        <time>2020-09-14T11:27:37Z</time>
      </trkpt>
      <trkpt lat="45.1116" lon="2.6096">
        <ele>1099</ele>
        <time>2020-09-14T11:27:45Z</time>
      </trkpt>
      <trkpt lat="45.1116" lon="2.60971">
        <ele>1098</ele>
        <time>2020-09-14T11:27:57Z</time>
      </trkpt>
      <trkpt lat="45.11164" lon="2.60982">
        <ele>1099</ele>
        <time>2020-09-14T11:28:05Z</time>
      </trkpt>
      <trkpt lat="45.11167" lon="2.60992">
        <ele>1102</ele>
        <time>2020-09-14T11:28:15Z</time>
      </trkpt>
      <trkpt lat="45.1117" lon="2.61002">
        <ele>1104</ele>
        <time>2020-09-14T11:28:25Z</time>
      </trkpt>
      <trkpt lat="45.11173" lon="2.61013">
        <ele>1106</ele>
        <time>2020-09-14T11:28:34Z</time>
      </trkpt>
      <trkpt lat="45.11179" lon="2.61021">
        <ele>1108</ele>
        <time>2020-09-14T11:28:42Z</time>
      </trkpt>
      <trkpt lat="45.11179" lon="2.61033">
        <ele>1112</ele>
        <time>2020-09-14T11:28:51Z</time>
      </trkpt>
      <trkpt lat="45.1118" lon="2.61045">
        <ele>1112</ele>
        <time>2020-09-14T11:28:59Z</time>
      </trkpt>
      <trkpt lat="45.11182" lon="2.61056">
        <ele>1117</ele>
        <time>2020-09-14T11:29:11Z</time>
      </trkpt>
      <trkpt lat="45.11182" lon="2.61068">
        <ele>1118</ele>
        <time>2020-09-14T11:29:19Z</time>
      </trkpt>
      <trkpt lat="45.11185" lon="2.6108">
        <ele>1117</ele>
        <time>2020-09-14T11:29:30Z</time>
      </trkpt>
      <trkpt lat="45.11187" lon="2.61091">
        <ele>1118</ele>
        <time>2020-09-14T11:29:43Z</time>
      </trkpt>
      <trkpt lat="45.11186" lon="2.61102">
        <ele>1119</ele>
        <time>2020-09-14T11:29:52Z</time>
      </trkpt>
      <trkpt lat="45.11188" lon="2.61112">
        <ele>1120</ele>
        <time>2020-09-14T11:30:01Z</time>
      </trkpt>
      <trkpt lat="45.11189" lon="2.61124">
        <ele>1122</ele>
        <time>2020-09-14T11:30:10Z</time>
      </trkpt>
      <trkpt lat="45.1119" lon="2.61136">
        <ele>1122</ele>
        <time>2020-09-14T11:30:21Z</time>
      </trkpt>
      <trkpt lat="45.11188" lon="2.61147">
        <ele>1123</ele>
        <time>2020-09-14T11:30:31Z</time>
      </trkpt>
      <trkpt lat="45.11191" lon="2.61159">
        <ele>1124</ele>
        <time>2020-09-14T11:30:43Z</time>
      </trkpt>
      <trkpt lat="45.11189" lon="2.6117">
        <ele>1124</ele>
        <time>2020-09-14T11:30:51Z</time>
      </trkpt>
      <trkpt lat="45.11194" lon="2.6118">
        <ele>1120</ele>
        <time>2020-09-14T11:30:58Z</time>
      </trkpt>
      <trkpt lat="45.11195" lon="2.61191">
        <ele>1120</ele>
        <time>2020-09-14T11:31:08Z</time>
      </trkpt>
      <trkpt lat="45.11195" lon="2.61203">
        <ele>1122</ele>
        <time>2020-09-14T11:31:19Z</time>
      </trkpt>
      <trkpt lat="45.11194" lon="2.61215">
        <ele>1124</ele>
        <time>2020-09-14T11:31:27Z</time>
      </trkpt>
      <trkpt lat="45.11197" lon="2.61227">
        <ele>1122</ele>
        <time>2020-09-14T11:31:39Z</time>
      </trkpt>
      <trkpt lat="45.112" lon="2.61236">
        <ele>1125</ele>
        <time>2020-09-14T11:31:47Z</time>
      </trkpt>
      <trkpt lat="45.11204" lon="2.61246">
        <ele>1125</ele>
        <time>2020-09-14T11:31:57Z</time>
      </trkpt>
      <trkpt lat="45.11209" lon="2.61256">
        <ele>1122</ele>
        <time>2020-09-14T11:32:06Z</time>
      </trkpt>
      <trkpt lat="45.11217" lon="2.61262">
        <ele>1121</ele>
        <time>2020-09-14T11:32:16Z</time>
      </trkpt>
      <trkpt lat="45.11221" lon="2.61271">
        <ele>1122</ele>
        <time>2020-09-14T11:32:26Z</time>
      </trkpt>
      <trkpt lat="45.11228" lon="2.61279">
        <ele>1124</ele>
        <time>2020-09-14T11:32:37Z</time>
      </trkpt>
      <trkpt lat="45.11234" lon="2.61288">
        <ele>1126</ele>
        <time>2020-09-14T11:32:47Z</time>
      </trkpt>
      <trkpt lat="45.11241" lon="2.61295">
        <ele>1127</ele>
        <time>2020-09-14T11:32:56Z</time>
      </trkpt>
      <trkpt lat="45.11247" lon="2.61304">
        <ele>1129</ele>
        <time>2020-09-14T11:33:07Z</time>
      </trkpt>
      <trkpt lat="45.11252" lon="2.61314">
        <ele>1129</ele>
        <time>2020-09-14T11:33:20Z</time>
      </trkpt>
      <trkpt lat="45.11258" lon="2.61323">
        <ele>1131</ele>
        <time>2020-09-14T11:33:32Z</time>
      </trkpt>
      <trkpt lat="45.11264" lon="2.61333">
        <ele>1132</ele>
        <time>2020-09-14T11:33:43Z</time>
      </trkpt>
      <trkpt lat="45.11265" lon="2.61344">
        <ele>1133</ele>
        <time>2020-09-14T11:33:55Z</time>
      </trkpt>
      <trkpt lat="45.1127" lon="2.61352">
        <ele>1134</ele>
        <time>2020-09-14T11:34:03Z</time>
      </trkpt>
      <trkpt lat="45.11273" lon="2.61362">
        <ele>1135</ele>
        <time>2020-09-14T11:34:10Z</time>
      </trkpt>
      <trkpt lat="45.11279" lon="2.61371">
        <ele>1139</ele>
        <time>2020-09-14T11:34:23Z</time>
      </trkpt>
      <trkpt lat="45.11281" lon="2.61383">
        <ele>1138</ele>
        <time>2020-09-14T11:34:31Z</time>
      </trkpt>
      <trkpt lat="45.11287" lon="2.61392">
        <ele>1140</ele>
        <time>2020-09-14T11:34:38Z</time>
      </trkpt>
      <trkpt lat="45.11288" lon="2.61403">
        <ele>1141</ele>
        <time>2020-09-14T11:34:51Z</time>
      </trkpt>
      <trkpt lat="45.11288" lon="2.61415">
        <ele>1141</ele>
        <time>2020-09-14T11:35:03Z</time>
      </trkpt>
      <trkpt lat="45.11288" lon="2.61427">
        <ele>1142</ele>
        <time>2020-09-14T11:35:12Z</time>
      </trkpt>
      <trkpt lat="45.11291" lon="2.61439">
        <ele>1141</ele>
        <time>2020-09-14T11:35:22Z</time>
      </trkpt>
      <trkpt lat="45.11293" lon="2.61451">
        <ele>1142</ele>
        <time>2020-09-14T11:35:33Z</time>
      </trkpt>
      <trkpt lat="45.11291" lon="2.61462">
        <ele>1144</ele>
        <time>2020-09-14T11:35:43Z</time>
      </trkpt>
      <trkpt lat="45.11293" lon="2.61474">
        <ele>1146</ele>
        <time>2020-09-14T11:35:54Z</time>
      </trkpt>
      <trkpt lat="45.11296" lon="2.61485">
        <ele>1148</ele>
        <time>2020-09-14T11:36:04Z</time>
      </trkpt>
      <trkpt lat="45.11301" lon="2.61494">
        <ele>1149</ele>
        <time>2020-09-14T11:36:12Z</time>
      </trkpt>
      <trkpt lat="45.11302" lon="2.61507">
        <ele>1151</ele>
        <time>2020-09-14T11:36:24Z</time>
      </trkpt>
      <trkpt lat="45.11304" lon="2.61517">
        <ele>1154</ele>
        <time>2020-09-14T11:36:34Z</time>
      </trkpt>
      <trkpt lat="45.11303" lon="2.61528">
        <ele>1153</ele>
        <time>2020-09-14T11:36:40Z</time>
      </trkpt>
      <trkpt lat="45.11308" lon="2.61538">
        <ele>1154</ele>
        <time>2020-09-14T11:36:48Z</time>
      </trkpt>
      <trkpt lat="45.1131" lon="2.61549">
        <ele>1154</ele>
        <time>2020-09-14T11:36:57Z</time>
      </trkpt>
      <trkpt lat="45.11312" lon="2.61562">
        <ele>1151</ele>
        <time>2020-09-14T11:37:04Z</time>
      </trkpt>
      <trkpt lat="45.11318" lon="2.6157">
        <ele>1152</ele>
        <time>2020-09-14T11:37:17Z</time>
      </trkpt>
      <trkpt lat="45.11326" lon="2.61573">
        <ele>1153</ele>
        <time>2020-09-14T11:37:26Z</time>
      </trkpt>
      <trkpt lat="45.1133" lon="2.61582">
        <ele>1156</ele>
        <time>2020-09-14T11:37:36Z</time>
      </trkpt>
      <trkpt lat="45.11333" lon="2.61592">
        <ele>1157</ele>
        <time>2020-09-14T11:37:44Z</time>
      </trkpt>
      <trkpt lat="45.11337" lon="2.61603">
        <ele>1156</ele>
        <time>2020-09-14T11:37:52Z</time>
      </trkpt>
      <trkpt lat="45.1134" lon="2.61615">
        <ele>1156</ele>
        <time>2020-09-14T11:38:01Z</time>
      </trkpt>
      <trkpt lat="45.11343" lon="2.61625">
        <ele>1160</ele>
        <time>2020-09-14T11:38:11Z</time>
      </trkpt>
      <trkpt lat="45.11345" lon="2.61637">
        <ele>1161</ele>
        <time>2020-09-14T11:38:19Z</time>
      </trkpt>
      <trkpt lat="45.11342" lon="2.61648">
        <ele>1164</ele>
        <time>2020-09-14T11:38:29Z</time>
      </trkpt>
      <trkpt lat="45.11344" lon="2.6166">
        <ele>1166</ele>
        <time>2020-09-14T11:38:39Z</time>
      </trkpt>
      <trkpt lat="45.11341" lon="2.61671">
        <ele>1166</ele>
        <time>2020-09-14T11:38:45Z</time>
      </trkpt>
      <trkpt lat="45.11338" lon="2.61683">
        <ele>1166</ele>
        <time>2020-09-14T11:38:53Z</time>
      </trkpt>
      <trkpt lat="45.11336" lon="2.61694">
        <ele>1168</ele>
        <time>2020-09-14T11:39:00Z</time>
      </trkpt>
      <trkpt lat="45.11336" lon="2.61705">
        <ele>1166</ele>
        <time>2020-09-14T11:39:08Z</time>
      </trkpt>
      <trkpt lat="45.11336" lon="2.61708">
        <ele>1165</ele>
        <time>2020-09-14T11:39:09Z</time>
      </trkpt>
      <trkpt lat="45.11336" lon="2.61708">
        <ele>1165</ele>
        <time>2020-09-14T11:39:09Z</time>
      </trkpt>
      <trkpt lat="45.11339" lon="2.61703">
        <ele>1167</ele>
        <time>2020-09-14T12:06:13Z</time>
      </trkpt>
      <trkpt lat="45.11336" lon="2.61715">
        <ele>1167</ele>
        <time>2020-09-14T12:06:23Z</time>
      </trkpt>
      <trkpt lat="45.11336" lon="2.61727">
        <ele>1170</ele>
        <time>2020-09-14T12:06:32Z</time>
      </trkpt>
      <trkpt lat="45.11336" lon="2.6174">
        <ele>1174</ele>
        <time>2020-09-14T12:06:44Z</time>
      </trkpt>
      <trkpt lat="45.11334" lon="2.61752">
        <ele>1178</ele>
        <time>2020-09-14T12:06:55Z</time>
      </trkpt>
      <trkpt lat="45.11334" lon="2.61764">
        <ele>1184</ele>
        <time>2020-09-14T12:07:12Z</time>
      </trkpt>
      <trkpt lat="45.11335" lon="2.61775">
        <ele>1185</ele>
        <time>2020-09-14T12:07:18Z</time>
      </trkpt>
      <trkpt lat="45.11334" lon="2.61787">
        <ele>1187</ele>
        <time>2020-09-14T12:07:29Z</time>
      </trkpt>
      <trkpt lat="45.11333" lon="2.61798">
        <ele>1190</ele>
        <time>2020-09-14T12:07:40Z</time>
      </trkpt>
      <trkpt lat="45.11332" lon="2.61809">
        <ele>1190</ele>
        <time>2020-09-14T12:07:49Z</time>
      </trkpt>
      <trkpt lat="45.11328" lon="2.61819">
        <ele>1192</ele>
        <time>2020-09-14T12:08:01Z</time>
      </trkpt>
      <trkpt lat="45.11332" lon="2.6183">
        <ele>1195</ele>
        <time>2020-09-14T12:08:10Z</time>
      </trkpt>
      <trkpt lat="45.11333" lon="2.61842">
        <ele>1192</ele>
        <time>2020-09-14T12:08:22Z</time>
      </trkpt>
      <trkpt lat="45.11335" lon="2.61855">
        <ele>1189</ele>
        <time>2020-09-14T12:08:34Z</time>
      </trkpt>
      <trkpt lat="45.11339" lon="2.61866">
        <ele>1190</ele>
        <time>2020-09-14T12:08:44Z</time>
      </trkpt>
      <trkpt lat="45.11341" lon="2.61877">
        <ele>1191</ele>
        <time>2020-09-14T12:08:57Z</time>
      </trkpt>
      <trkpt lat="45.11346" lon="2.61888">
        <ele>1192</ele>
        <time>2020-09-14T12:09:05Z</time>
      </trkpt>
      <trkpt lat="45.11343" lon="2.61899">
        <ele>1195</ele>
        <time>2020-09-14T12:09:18Z</time>
      </trkpt>
      <trkpt lat="45.11347" lon="2.61909">
        <ele>1195</ele>
        <time>2020-09-14T12:09:25Z</time>
      </trkpt>
      <trkpt lat="45.11345" lon="2.6192">
        <ele>1197</ele>
        <time>2020-09-14T12:09:34Z</time>
      </trkpt>
      <trkpt lat="45.11339" lon="2.61929">
        <ele>1194</ele>
        <time>2020-09-14T12:09:42Z</time>
      </trkpt>
      <trkpt lat="45.11338" lon="2.61941">
        <ele>1195</ele>
        <time>2020-09-14T12:09:54Z</time>
      </trkpt>
      <trkpt lat="45.11338" lon="2.61953">
        <ele>1196</ele>
        <time>2020-09-14T12:10:04Z</time>
      </trkpt>
      <trkpt lat="45.11339" lon="2.61957">
        <ele>1197</ele>
        <time>2020-09-14T12:10:07Z</time>
      </trkpt>
      <trkpt lat="45.11339" lon="2.61957">
        <ele>1197</ele>
        <time>2020-09-14T12:10:07Z</time>
      </trkpt>
      <trkpt lat="45.11339" lon="2.61962">
        <ele>1191</ele>
        <time>2020-09-14T12:25:00Z</time>
      </trkpt>
      <trkpt lat="45.11334" lon="2.61971">
        <ele>1192</ele>
        <time>2020-09-14T12:25:09Z</time>
      </trkpt>
      <trkpt lat="45.11331" lon="2.61982">
        <ele>1193</ele>
        <time>2020-09-14T12:25:19Z</time>
      </trkpt>
      <trkpt lat="45.11328" lon="2.61992">
        <ele>1194</ele>
        <time>2020-09-14T12:25:29Z</time>
      </trkpt>
      <trkpt lat="45.11321" lon="2.62001">
        <ele>1194</ele>
        <time>2020-09-14T12:25:37Z</time>
      </trkpt>
      <trkpt lat="45.1132" lon="2.62013">
        <ele>1196</ele>
        <time>2020-09-14T12:25:48Z</time>
      </trkpt>
      <trkpt lat="45.11317" lon="2.62024">
        <ele>1197</ele>
        <time>2020-09-14T12:25:58Z</time>
      </trkpt>
      <trkpt lat="45.1131" lon="2.62031">
        <ele>1200</ele>
        <time>2020-09-14T12:26:08Z</time>
      </trkpt>
      <trkpt lat="45.11308" lon="2.62043">
        <ele>1202</ele>
        <time>2020-09-14T12:26:21Z</time>
      </trkpt>
      <trkpt lat="45.11304" lon="2.62053">
        <ele>1205</ele>
        <time>2020-09-14T12:26:29Z</time>
      </trkpt>
      <trkpt lat="45.113" lon="2.62064">
        <ele>1205</ele>
        <time>2020-09-14T12:26:38Z</time>
      </trkpt>
      <trkpt lat="45.113" lon="2.62076">
        <ele>1205</ele>
        <time>2020-09-14T12:26:45Z</time>
      </trkpt>
      <trkpt lat="45.11299" lon="2.62089">
        <ele>1206</ele>
        <time>2020-09-14T12:26:58Z</time>
      </trkpt>
      <trkpt lat="45.11305" lon="2.62097">
        <ele>1208</ele>
        <time>2020-09-14T12:27:07Z</time>
      </trkpt>
      <trkpt lat="45.11308" lon="2.62109">
        <ele>1208</ele>
        <time>2020-09-14T12:27:17Z</time>
      </trkpt>
      <trkpt lat="45.11306" lon="2.62121">
        <ele>1207</ele>
        <time>2020-09-14T12:27:29Z</time>
      </trkpt>
      <trkpt lat="45.11308" lon="2.62132">
        <ele>1210</ele>
        <time>2020-09-14T12:27:42Z</time>
      </trkpt>
      <trkpt lat="45.11305" lon="2.62143">
        <ele>1210</ele>
        <time>2020-09-14T12:27:53Z</time>
      </trkpt>
      <trkpt lat="45.11302" lon="2.62154">
        <ele>1209</ele>
        <time>2020-09-14T12:28:01Z</time>
      </trkpt>
      <trkpt lat="45.11302" lon="2.62166">
        <ele>1212</ele>
        <time>2020-09-14T12:28:16Z</time>
      </trkpt>
      <trkpt lat="45.11302" lon="2.62179">
        <ele>1213</ele>
        <time>2020-09-14T12:28:24Z</time>
      </trkpt>
      <trkpt lat="45.11302" lon="2.62191">
        <ele>1213</ele>
        <time>2020-09-14T12:28:37Z</time>
      </trkpt>
      <trkpt lat="45.11303" lon="2.62203">
        <ele>1213</ele>
        <time>2020-09-14T12:28:48Z</time>
      </trkpt>
      <trkpt lat="45.11306" lon="2.62213">
        <ele>1214</ele>
        <time>2020-09-14T12:28:59Z</time>
      </trkpt>
      <trkpt lat="45.11309" lon="2.62225">
        <ele>1216</ele>
        <time>2020-09-14T12:29:06Z</time>
      </trkpt>
      <trkpt lat="45.11311" lon="2.62237">
        <ele>1219</ele>
        <time>2020-09-14T12:29:19Z</time>
      </trkpt>
      <trkpt lat="45.11313" lon="2.62249">
        <ele>1219</ele>
        <time>2020-09-14T12:29:28Z</time>
      </trkpt>
      <trkpt lat="45.11314" lon="2.62261">
        <ele>1221</ele>
        <time>2020-09-14T12:29:38Z</time>
      </trkpt>
      <trkpt lat="45.11315" lon="2.62273">
        <ele>1218</ele>
        <time>2020-09-14T12:29:50Z</time>
      </trkpt>
      <trkpt lat="45.11318" lon="2.62283">
        <ele>1220</ele>
        <time>2020-09-14T12:30:02Z</time>
      </trkpt>
      <trkpt lat="45.1132" lon="2.62294">
        <ele>1221</ele>
        <time>2020-09-14T12:30:11Z</time>
      </trkpt>
      <trkpt lat="45.11321" lon="2.62306">
        <ele>1223</ele>
        <time>2020-09-14T12:30:22Z</time>
      </trkpt>
      <trkpt lat="45.11319" lon="2.62317">
        <ele>1224</ele>
        <time>2020-09-14T12:30:28Z</time>
      </trkpt>
      <trkpt lat="45.11324" lon="2.62327">
        <ele>1223</ele>
        <time>2020-09-14T12:30:38Z</time>
      </trkpt>
      <trkpt lat="45.11328" lon="2.62339">
        <ele>1225</ele>
        <time>2020-09-14T12:30:51Z</time>
      </trkpt>
      <trkpt lat="45.11335" lon="2.62347">
        <ele>1227</ele>
        <time>2020-09-14T12:30:59Z</time>
      </trkpt>
      <trkpt lat="45.11338" lon="2.62358">
        <ele>1225</ele>
        <time>2020-09-14T12:31:10Z</time>
      </trkpt>
      <trkpt lat="45.11342" lon="2.62369">
        <ele>1229</ele>
        <time>2020-09-14T12:31:21Z</time>
      </trkpt>
      <trkpt lat="45.11345" lon="2.6238">
        <ele>1230</ele>
        <time>2020-09-14T12:31:32Z</time>
      </trkpt>
      <trkpt lat="45.1135" lon="2.62389">
        <ele>1231</ele>
        <time>2020-09-14T12:31:40Z</time>
      </trkpt>
      <trkpt lat="45.11353" lon="2.62399">
        <ele>1234</ele>
        <time>2020-09-14T12:31:53Z</time>
      </trkpt>
      <trkpt lat="45.1136" lon="2.62408">
        <ele>1233</ele>
        <time>2020-09-14T12:31:59Z</time>
      </trkpt>
      <trkpt lat="45.11366" lon="2.62414">
        <ele>1233</ele>
        <time>2020-09-14T12:32:04Z</time>
      </trkpt>
      <trkpt lat="45.11366" lon="2.62426">
        <ele>1233</ele>
        <time>2020-09-14T12:32:18Z</time>
      </trkpt>
      <trkpt lat="45.1137" lon="2.62436">
        <ele>1236</ele>
        <time>2020-09-14T12:32:30Z</time>
      </trkpt>
      <trkpt lat="45.11374" lon="2.62446">
        <ele>1237</ele>
        <time>2020-09-14T12:32:38Z</time>
      </trkpt>
      <trkpt lat="45.11377" lon="2.62457">
        <ele>1238</ele>
        <time>2020-09-14T12:32:49Z</time>
      </trkpt>
      <trkpt lat="45.11376" lon="2.6247">
        <ele>1242</ele>
        <time>2020-09-14T12:33:06Z</time>
      </trkpt>
      <trkpt lat="45.11383" lon="2.62478">
        <ele>1244</ele>
        <time>2020-09-14T12:33:15Z</time>
      </trkpt>
      <trkpt lat="45.1139" lon="2.62484">
        <ele>1245</ele>
        <time>2020-09-14T12:33:20Z</time>
      </trkpt>
      <trkpt lat="45.11397" lon="2.62493">
        <ele>1245</ele>
        <time>2020-09-14T12:33:35Z</time>
      </trkpt>
      <trkpt lat="45.11402" lon="2.62501">
        <ele>1246</ele>
        <time>2020-09-14T12:33:42Z</time>
      </trkpt>
      <trkpt lat="45.11408" lon="2.6251">
        <ele>1246</ele>
        <time>2020-09-14T12:33:48Z</time>
      </trkpt>
      <trkpt lat="45.11414" lon="2.6252">
        <ele>1242</ele>
        <time>2020-09-14T12:34:02Z</time>
      </trkpt>
      <trkpt lat="45.11419" lon="2.62529">
        <ele>1243</ele>
        <time>2020-09-14T12:34:12Z</time>
      </trkpt>
      <trkpt lat="45.11424" lon="2.62538">
        <ele>1242</ele>
        <time>2020-09-14T12:34:21Z</time>
      </trkpt>
      <trkpt lat="45.11426" lon="2.6255">
        <ele>1245</ele>
        <time>2020-09-14T12:34:30Z</time>
      </trkpt>
      <trkpt lat="45.11426" lon="2.62562">
        <ele>1245</ele>
        <time>2020-09-14T12:34:41Z</time>
      </trkpt>
      <trkpt lat="45.11431" lon="2.62573">
        <ele>1248</ele>
        <time>2020-09-14T12:34:52Z</time>
      </trkpt>
      <trkpt lat="45.11433" lon="2.62584">
        <ele>1249</ele>
        <time>2020-09-14T12:35:05Z</time>
      </trkpt>
      <trkpt lat="45.11437" lon="2.62595">
        <ele>1248</ele>
        <time>2020-09-14T12:35:16Z</time>
      </trkpt>
      <trkpt lat="45.1144" lon="2.62607">
        <ele>1249</ele>
        <time>2020-09-14T12:35:25Z</time>
      </trkpt>
      <trkpt lat="45.11446" lon="2.62612">
        <ele>1251</ele>
        <time>2020-09-14T12:35:32Z</time>
      </trkpt>
      <trkpt lat="45.11455" lon="2.6261">
        <ele>1251</ele>
        <time>2020-09-14T12:35:39Z</time>
      </trkpt>
      <trkpt lat="45.11463" lon="2.62614">
        <ele>1253</ele>
        <time>2020-09-14T12:35:49Z</time>
      </trkpt>
      <trkpt lat="45.1147" lon="2.62619">
        <ele>1252</ele>
        <time>2020-09-14T12:35:58Z</time>
      </trkpt>
      <trkpt lat="45.11477" lon="2.62627">
        <ele>1251</ele>
        <time>2020-09-14T12:36:07Z</time>
      </trkpt>
      <trkpt lat="45.11483" lon="2.62635">
        <ele>1253</ele>
        <time>2020-09-14T12:36:17Z</time>
      </trkpt>
      <trkpt lat="45.11488" lon="2.62643">
        <ele>1254</ele>
        <time>2020-09-14T12:36:28Z</time>
      </trkpt>
      <trkpt lat="45.11495" lon="2.62651">
        <ele>1255</ele>
        <time>2020-09-14T12:36:37Z</time>
      </trkpt>
      <trkpt lat="45.115" lon="2.6266">
        <ele>1254</ele>
        <time>2020-09-14T12:36:47Z</time>
      </trkpt>
      <trkpt lat="45.11507" lon="2.62667">
        <ele>1257</ele>
        <time>2020-09-14T12:36:54Z</time>
      </trkpt>
      <trkpt lat="45.11514" lon="2.6267">
        <ele>1257</ele>
        <time>2020-09-14T12:37:02Z</time>
      </trkpt>
      <trkpt lat="45.11522" lon="2.62672">
        <ele>1259</ele>
        <time>2020-09-14T12:37:10Z</time>
      </trkpt>
      <trkpt lat="45.11531" lon="2.62674">
        <ele>1260</ele>
        <time>2020-09-14T12:37:18Z</time>
      </trkpt>
      <trkpt lat="45.11539" lon="2.62671">
        <ele>1261</ele>
        <time>2020-09-14T12:37:28Z</time>
      </trkpt>
      <trkpt lat="45.11542" lon="2.6266">
        <ele>1261</ele>
        <time>2020-09-14T12:37:39Z</time>
      </trkpt>
      <trkpt lat="45.11546" lon="2.62649">
        <ele>1259</ele>
        <time>2020-09-14T12:37:51Z</time>
      </trkpt>
      <trkpt lat="45.11548" lon="2.62644">
        <ele>1258</ele>
        <time>2020-09-14T12:37:57Z</time>
      </trkpt>
      <trkpt lat="45.11548" lon="2.62644">
        <ele>1258</ele>
        <time>2020-09-14T12:37:58Z</time>
      </trkpt>
      <trkpt lat="45.11546" lon="2.62637">
        <ele>1256</ele>
        <time>2020-09-14T12:56:00Z</time>
      </trkpt>
      <trkpt lat="45.11553" lon="2.62641">
        <ele>1254</ele>
        <time>2020-09-14T12:56:09Z</time>
      </trkpt>
      <trkpt lat="45.11561" lon="2.62642">
        <ele>1257</ele>
        <time>2020-09-14T12:56:19Z</time>
      </trkpt>
      <trkpt lat="45.11569" lon="2.62636">
        <ele>1261</ele>
        <time>2020-09-14T12:56:29Z</time>
      </trkpt>
      <trkpt lat="45.11576" lon="2.62631">
        <ele>1260</ele>
        <time>2020-09-14T12:56:47Z</time>
      </trkpt>
      <trkpt lat="45.11584" lon="2.62627">
        <ele>1260</ele>
        <time>2020-09-14T12:56:57Z</time>
      </trkpt>
      <trkpt lat="45.11591" lon="2.62621">
        <ele>1259</ele>
        <time>2020-09-14T12:57:07Z</time>
      </trkpt>
      <trkpt lat="45.116" lon="2.62617">
        <ele>1261</ele>
        <time>2020-09-14T12:57:17Z</time>
      </trkpt>
      <trkpt lat="45.11607" lon="2.62613">
        <ele>1262</ele>
        <time>2020-09-14T12:57:28Z</time>
      </trkpt>
      <trkpt lat="45.11615" lon="2.62606">
        <ele>1262</ele>
        <time>2020-09-14T12:57:39Z</time>
      </trkpt>
      <trkpt lat="45.11623" lon="2.62603">
        <ele>1262</ele>
        <time>2020-09-14T12:57:49Z</time>
      </trkpt>
      <trkpt lat="45.11616" lon="2.62609">
        <ele>1261</ele>
        <time>2020-09-14T12:58:16Z</time>
      </trkpt>
      <trkpt lat="45.11608" lon="2.62613">
        <ele>1262</ele>
        <time>2020-09-14T12:58:23Z</time>
      </trkpt>
      <trkpt lat="45.116" lon="2.62618">
        <ele>1264</ele>
        <time>2020-09-14T12:58:32Z</time>
      </trkpt>
      <trkpt lat="45.11592" lon="2.62622">
        <ele>1263</ele>
        <time>2020-09-14T12:58:39Z</time>
      </trkpt>
      <trkpt lat="45.11584" lon="2.62627">
        <ele>1263</ele>
        <time>2020-09-14T12:58:46Z</time>
      </trkpt>
      <trkpt lat="45.11577" lon="2.62631">
        <ele>1263</ele>
        <time>2020-09-14T12:58:53Z</time>
      </trkpt>
      <trkpt lat="45.11569" lon="2.62636">
        <ele>1264</ele>
        <time>2020-09-14T12:59:05Z</time>
      </trkpt>
      <trkpt lat="45.1156" lon="2.62638">
        <ele>1262</ele>
        <time>2020-09-14T12:59:10Z</time>
      </trkpt>
      <trkpt lat="45.11552" lon="2.62639">
        <ele>1262</ele>
        <time>2020-09-14T12:59:15Z</time>
      </trkpt>
      <trkpt lat="45.11545" lon="2.62642">
        <ele>1262</ele>
        <time>2020-09-14T12:59:21Z</time>
      </trkpt>
      <trkpt lat="45.11544" lon="2.62653">
        <ele>1258</ele>
        <time>2020-09-14T12:59:29Z</time>
      </trkpt>
      <trkpt lat="45.11543" lon="2.62666">
        <ele>1256</ele>
        <time>2020-09-14T12:59:40Z</time>
      </trkpt>
      <trkpt lat="45.11547" lon="2.62675">
        <ele>1258</ele>
        <time>2020-09-14T12:59:51Z</time>
      </trkpt>
      <trkpt lat="45.11547" lon="2.6268">
        <ele>1258</ele>
        <time>2020-09-14T13:00:01Z</time>
      </trkpt>
      <trkpt lat="45.11547" lon="2.6268">
        <ele>1258</ele>
        <time>2020-09-14T13:00:01Z</time>
      </trkpt>
      <trkpt lat="45.11543" lon="2.62685">
        <ele>1261</ele>
        <time>2020-09-14T13:05:55Z</time>
      </trkpt>
      <trkpt lat="45.1154" lon="2.62673">
        <ele>1257</ele>
        <time>2020-09-14T13:06:08Z</time>
      </trkpt>
      <trkpt lat="45.11533" lon="2.62678">
        <ele>1258</ele>
        <time>2020-09-14T13:06:21Z</time>
      </trkpt>
      <trkpt lat="45.11525" lon="2.62672">
        <ele>1259</ele>
        <time>2020-09-14T13:06:32Z</time>
      </trkpt>
      <trkpt lat="45.11517" lon="2.62672">
        <ele>1260</ele>
        <time>2020-09-14T13:06:39Z</time>
      </trkpt>
      <trkpt lat="45.1151" lon="2.62675">
        <ele>1261</ele>
        <time>2020-09-14T13:06:44Z</time>
      </trkpt>
      <trkpt lat="45.11502" lon="2.62677">
        <ele>1262</ele>
        <time>2020-09-14T13:06:52Z</time>
      </trkpt>
      <trkpt lat="45.11493" lon="2.62678">
        <ele>1261</ele>
        <time>2020-09-14T13:06:57Z</time>
      </trkpt>
      <trkpt lat="45.11484" lon="2.62678">
        <ele>1260</ele>
        <time>2020-09-14T13:07:06Z</time>
      </trkpt>
      <trkpt lat="45.11476" lon="2.62675">
        <ele>1262</ele>
        <time>2020-09-14T13:07:17Z</time>
      </trkpt>
      <trkpt lat="45.11468" lon="2.62677">
        <ele>1255</ele>
        <time>2020-09-14T13:07:28Z</time>
      </trkpt>
      <trkpt lat="45.11474" lon="2.62685">
        <ele>1254</ele>
        <time>2020-09-14T13:07:40Z</time>
      </trkpt>
      <trkpt lat="45.1148" lon="2.62691">
        <ele>1256</ele>
        <time>2020-09-14T13:07:55Z</time>
      </trkpt>
      <trkpt lat="45.11485" lon="2.62698">
        <ele>1258</ele>
        <time>2020-09-14T13:08:08Z</time>
      </trkpt>
      <trkpt lat="45.1149" lon="2.62708">
        <ele>1262</ele>
        <time>2020-09-14T13:08:17Z</time>
      </trkpt>
      <trkpt lat="45.11495" lon="2.62716">
        <ele>1266</ele>
        <time>2020-09-14T13:08:30Z</time>
      </trkpt>
      <trkpt lat="45.11504" lon="2.62717">
        <ele>1273</ele>
        <time>2020-09-14T13:08:54Z</time>
      </trkpt>
      <trkpt lat="45.11511" lon="2.62721">
        <ele>1275</ele>
        <time>2020-09-14T13:09:04Z</time>
      </trkpt>
      <trkpt lat="45.11518" lon="2.62727">
        <ele>1275</ele>
        <time>2020-09-14T13:09:21Z</time>
      </trkpt>
      <trkpt lat="45.11523" lon="2.62737">
        <ele>1275</ele>
        <time>2020-09-14T13:09:33Z</time>
      </trkpt>
      <trkpt lat="45.11523" lon="2.62747">
        <ele>1279</ele>
        <time>2020-09-14T13:09:52Z</time>
      </trkpt>
      <trkpt lat="45.11517" lon="2.62754">
        <ele>1277</ele>
        <time>2020-09-14T13:09:57Z</time>
      </trkpt>
      <trkpt lat="45.11523" lon="2.62763">
        <ele>1278</ele>
        <time>2020-09-14T13:10:25Z</time>
      </trkpt>
      <trkpt lat="45.1153" lon="2.62767">
        <ele>1278</ele>
        <time>2020-09-14T13:10:33Z</time>
      </trkpt>
      <trkpt lat="45.11538" lon="2.62769">
        <ele>1281</ele>
        <time>2020-09-14T13:10:49Z</time>
      </trkpt>
      <trkpt lat="45.11546" lon="2.62768">
        <ele>1285</ele>
        <time>2020-09-14T13:10:57Z</time>
      </trkpt>
      <trkpt lat="45.11551" lon="2.62777">
        <ele>1286</ele>
        <time>2020-09-14T13:11:08Z</time>
      </trkpt>
      <trkpt lat="45.11554" lon="2.62789">
        <ele>1287</ele>
        <time>2020-09-14T13:11:24Z</time>
      </trkpt>
      <trkpt lat="45.1156" lon="2.62796">
        <ele>1288</ele>
        <time>2020-09-14T13:11:38Z</time>
      </trkpt>
      <trkpt lat="45.11566" lon="2.62805">
        <ele>1289</ele>
        <time>2020-09-14T13:11:53Z</time>
      </trkpt>
      <trkpt lat="45.11567" lon="2.62816">
        <ele>1291</ele>
        <time>2020-09-14T13:12:15Z</time>
      </trkpt>
      <trkpt lat="45.11567" lon="2.62818">
        <ele>1291</ele>
        <time>2020-09-14T13:12:18Z</time>
      </trkpt>
      <trkpt lat="45.11567" lon="2.62818">
        <ele>1291</ele>
        <time>2020-09-14T13:12:18Z</time>
      </trkpt>
      <trkpt lat="45.11563" lon="2.62825">
        <ele>1294</ele>
        <time>2020-09-14T13:13:02Z</time>
      </trkpt>
      <trkpt lat="45.11556" lon="2.62831">
        <ele>1296</ele>
        <time>2020-09-14T13:13:14Z</time>
      </trkpt>
      <trkpt lat="45.1155" lon="2.6284">
        <ele>1298</ele>
        <time>2020-09-14T13:13:23Z</time>
      </trkpt>
      <trkpt lat="45.11546" lon="2.6285">
        <ele>1298</ele>
        <time>2020-09-14T13:13:40Z</time>
      </trkpt>
      <trkpt lat="45.11545" lon="2.62862">
        <ele>1301</ele>
        <time>2020-09-14T13:13:56Z</time>
      </trkpt>
      <trkpt lat="45.11546" lon="2.62872">
        <ele>1305</ele>
        <time>2020-09-14T13:14:14Z</time>
      </trkpt>
      <trkpt lat="45.11546" lon="2.62884">
        <ele>1306</ele>
        <time>2020-09-14T13:14:23Z</time>
      </trkpt>
      <trkpt lat="45.11544" lon="2.62895">
        <ele>1305</ele>
        <time>2020-09-14T13:14:33Z</time>
      </trkpt>
      <trkpt lat="45.11543" lon="2.62907">
        <ele>1310</ele>
        <time>2020-09-14T13:14:42Z</time>
      </trkpt>
      <trkpt lat="45.11546" lon="2.62918">
        <ele>1306</ele>
        <time>2020-09-14T13:14:57Z</time>
      </trkpt>
      <trkpt lat="45.11554" lon="2.62923">
        <ele>1308</ele>
        <time>2020-09-14T13:15:06Z</time>
      </trkpt>
      <trkpt lat="45.11556" lon="2.62924">
        <ele>1307</ele>
        <time>2020-09-14T13:15:08Z</time>
      </trkpt>
      <trkpt lat="45.11556" lon="2.62924">
        <ele>1307</ele>
        <time>2020-09-14T13:15:08Z</time>
      </trkpt>
      <trkpt lat="45.11558" lon="2.6293">
        <ele>1309</ele>
        <time>2020-09-14T13:15:15Z</time>
      </trkpt>
      <trkpt lat="45.11558" lon="2.62931">
        <ele>1307</ele>
        <time>2020-09-14T13:15:22Z</time>
      </trkpt>
      <trkpt lat="45.11558" lon="2.62931">
        <ele>1307</ele>
        <time>2020-09-14T13:15:22Z</time>
      </trkpt>
      <trkpt lat="45.11554" lon="2.6293">
        <ele>1306</ele>
        <time>2020-09-14T13:15:43Z</time>
      </trkpt>
      <trkpt lat="45.11558" lon="2.6294">
        <ele>1305</ele>
        <time>2020-09-14T13:15:54Z</time>
      </trkpt>
      <trkpt lat="45.11561" lon="2.62945">
        <ele>1306</ele>
        <time>2020-09-14T13:15:59Z</time>
      </trkpt>
      <trkpt lat="45.11561" lon="2.62945">
        <ele>1306</ele>
        <time>2020-09-14T13:15:59Z</time>
      </trkpt>
      <trkpt lat="45.11561" lon="2.62945">
        <ele>1306</ele>
        <time>2020-09-14T13:16:13Z</time>
      </trkpt>
      <trkpt lat="45.11565" lon="2.62956">
        <ele>1307</ele>
        <time>2020-09-14T13:16:23Z</time>
      </trkpt>
      <trkpt lat="45.11572" lon="2.62956">
        <ele>1310</ele>
        <time>2020-09-14T13:16:35Z</time>
      </trkpt>
      <trkpt lat="45.11572" lon="2.62956">
        <ele>1310</ele>
        <time>2020-09-14T13:16:35Z</time>
      </trkpt>
    </trkseg>
  </trk>
  <trk>
    <name><![CDATA[Vous suivez Aspre (Cantal)]]></name>
    <extensions>
      <line xmlns="http://www.topografix.com/GPX/gpx_style/0/2">
        <color>0000FF</color>
        <width>4</width>
      </line>
    </extensions>
    <trkseg>
      <trkpt lat="45.11561" lon="2.6289">
        <ele>1274</ele>
        <time>2020-09-14T14:34:23Z</time>
      </trkpt>
      <trkpt lat="45.11565" lon="2.62901">
        <ele>1274</ele>
        <time>2020-09-14T14:34:34Z</time>
      </trkpt>
      <trkpt lat="45.11568" lon="2.62912">
        <ele>1274</ele>
        <time>2020-09-14T14:34:49Z</time>
      </trkpt>
      <trkpt lat="45.11567" lon="2.62924">
        <ele>1275</ele>
        <time>2020-09-14T14:35:09Z</time>
      </trkpt>
      <trkpt lat="45.11565" lon="2.62937">
        <ele>1278</ele>
        <time>2020-09-14T14:35:34Z</time>
      </trkpt>
      <trkpt lat="45.11573" lon="2.62942">
        <ele>1280</ele>
        <time>2020-09-14T14:35:47Z</time>
      </trkpt>
      <trkpt lat="45.11577" lon="2.62953">
        <ele>1281</ele>
        <time>2020-09-14T14:35:58Z</time>
      </trkpt>
      <trkpt lat="45.11582" lon="2.62963">
        <ele>1282</ele>
        <time>2020-09-14T14:36:08Z</time>
      </trkpt>
      <trkpt lat="45.11588" lon="2.62972">
        <ele>1281</ele>
        <time>2020-09-14T14:36:18Z</time>
      </trkpt>
      <trkpt lat="45.11591" lon="2.62983">
        <ele>1282</ele>
        <time>2020-09-14T14:36:26Z</time>
      </trkpt>
      <trkpt lat="45.11596" lon="2.62993">
        <ele>1282</ele>
        <time>2020-09-14T14:36:34Z</time>
      </trkpt>
      <trkpt lat="45.11598" lon="2.63006">
        <ele>1281</ele>
        <time>2020-09-14T14:36:44Z</time>
      </trkpt>
      <trkpt lat="45.11599" lon="2.63018">
        <ele>1284</ele>
        <time>2020-09-14T14:36:54Z</time>
      </trkpt>
      <trkpt lat="45.11604" lon="2.63028">
        <ele>1284</ele>
        <time>2020-09-14T14:37:01Z</time>
      </trkpt>
      <trkpt lat="45.11609" lon="2.63038">
        <ele>1288</ele>
        <time>2020-09-14T14:37:11Z</time>
      </trkpt>
      <trkpt lat="45.11605" lon="2.63047">
        <ele>1290</ele>
        <time>2020-09-14T14:37:17Z</time>
      </trkpt>
      <trkpt lat="45.11605" lon="2.63059">
        <ele>1290</ele>
        <time>2020-09-14T14:37:25Z</time>
      </trkpt>
      <trkpt lat="45.11606" lon="2.63063">
        <ele>1291</ele>
        <time>2020-09-14T14:37:30Z</time>
      </trkpt>
      <trkpt lat="45.11606" lon="2.63063">
        <ele>1291</ele>
        <time>2020-09-14T14:37:31Z</time>
      </trkpt>
      <trkpt lat="45.11609" lon="2.63072">
        <ele>1299</ele>
        <time>2020-09-14T14:38:22Z</time>
      </trkpt>
      <trkpt lat="45.11608" lon="2.63084">
        <ele>1299</ele>
        <time>2020-09-14T14:38:35Z</time>
      </trkpt>
      <trkpt lat="45.11614" lon="2.63094">
        <ele>1300</ele>
        <time>2020-09-14T14:38:42Z</time>
      </trkpt>
      <trkpt lat="45.11613" lon="2.63106">
        <ele>1303</ele>
        <time>2020-09-14T14:38:58Z</time>
      </trkpt>
      <trkpt lat="45.11619" lon="2.63113">
        <ele>1304</ele>
        <time>2020-09-14T14:39:12Z</time>
      </trkpt>
      <trkpt lat="45.11622" lon="2.63124">
        <ele>1305</ele>
        <time>2020-09-14T14:39:26Z</time>
      </trkpt>
      <trkpt lat="45.11618" lon="2.63136">
        <ele>1306</ele>
        <time>2020-09-14T14:39:37Z</time>
      </trkpt>
      <trkpt lat="45.1161" lon="2.63141">
        <ele>1307</ele>
        <time>2020-09-14T14:39:45Z</time>
      </trkpt>
      <trkpt lat="45.11603" lon="2.63145">
        <ele>1307</ele>
        <time>2020-09-14T14:39:58Z</time>
      </trkpt>
      <trkpt lat="45.11603" lon="2.63157">
        <ele>1309</ele>
        <time>2020-09-14T14:40:11Z</time>
      </trkpt>
      <trkpt lat="45.11599" lon="2.63168">
        <ele>1310</ele>
        <time>2020-09-14T14:40:22Z</time>
      </trkpt>
      <trkpt lat="45.11598" lon="2.6318">
        <ele>1313</ele>
        <time>2020-09-14T14:40:31Z</time>
      </trkpt>
      <trkpt lat="45.11599" lon="2.63192">
        <ele>1314</ele>
        <time>2020-09-14T14:40:43Z</time>
      </trkpt>
      <trkpt lat="45.11599" lon="2.63192">
        <ele>1314</ele>
        <time>2020-09-14T14:40:43Z</time>
      </trkpt>
      <trkpt lat="45.11599" lon="2.63194">
        <ele>1316</ele>
        <time>2020-09-14T14:41:17Z</time>
      </trkpt>
      <trkpt lat="45.11599" lon="2.63206">
        <ele>1318</ele>
        <time>2020-09-14T14:41:36Z</time>
      </trkpt>
      <trkpt lat="45.11598" lon="2.63218">
        <ele>1320</ele>
        <time>2020-09-14T14:41:45Z</time>
      </trkpt>
      <trkpt lat="45.11595" lon="2.63229">
        <ele>1323</ele>
        <time>2020-09-14T14:41:59Z</time>
      </trkpt>
      <trkpt lat="45.11588" lon="2.63236">
        <ele>1323</ele>
        <time>2020-09-14T14:42:06Z</time>
      </trkpt>
      <trkpt lat="45.11583" lon="2.63247">
        <ele>1321</ele>
        <time>2020-09-14T14:42:18Z</time>
      </trkpt>
      <trkpt lat="45.11591" lon="2.63252">
        <ele>1320</ele>
        <time>2020-09-14T14:42:32Z</time>
      </trkpt>
      <trkpt lat="45.11599" lon="2.63256">
        <ele>1324</ele>
        <time>2020-09-14T14:42:46Z</time>
      </trkpt>
      <trkpt lat="45.11605" lon="2.63265">
        <ele>1325</ele>
        <time>2020-09-14T14:43:00Z</time>
      </trkpt>
      <trkpt lat="45.1161" lon="2.63274">
        <ele>1326</ele>
        <time>2020-09-14T14:43:15Z</time>
      </trkpt>
      <trkpt lat="45.11612" lon="2.63285">
        <ele>1327</ele>
        <time>2020-09-14T14:43:25Z</time>
      </trkpt>
      <trkpt lat="45.11619" lon="2.63293">
        <ele>1325</ele>
        <time>2020-09-14T14:43:39Z</time>
      </trkpt>
      <trkpt lat="45.11619" lon="2.63293">
        <ele>1325</ele>
        <time>2020-09-14T14:43:39Z</time>
      </trkpt>
      <trkpt lat="45.11617" lon="2.63293">
        <ele>1326</ele>
        <time>2020-09-14T14:44:04Z</time>
      </trkpt>
      <trkpt lat="45.11614" lon="2.63304">
        <ele>1328</ele>
        <time>2020-09-14T14:44:18Z</time>
      </trkpt>
      <trkpt lat="45.1161" lon="2.63315">
        <ele>1329</ele>
        <time>2020-09-14T14:44:29Z</time>
      </trkpt>
      <trkpt lat="45.11607" lon="2.63326">
        <ele>1331</ele>
        <time>2020-09-14T14:44:41Z</time>
      </trkpt>
      <trkpt lat="45.11602" lon="2.63336">
        <ele>1333</ele>
        <time>2020-09-14T14:44:52Z</time>
      </trkpt>
      <trkpt lat="45.11602" lon="2.63349">
        <ele>1334</ele>
        <time>2020-09-14T14:45:06Z</time>
      </trkpt>
      <trkpt lat="45.11605" lon="2.63361">
        <ele>1334</ele>
        <time>2020-09-14T14:45:21Z</time>
      </trkpt>
      <trkpt lat="45.11609" lon="2.63371">
        <ele>1336</ele>
        <time>2020-09-14T14:45:35Z</time>
      </trkpt>
      <trkpt lat="45.11609" lon="2.63383">
        <ele>1339</ele>
        <time>2020-09-14T14:45:52Z</time>
      </trkpt>
      <trkpt lat="45.11614" lon="2.63393">
        <ele>1342</ele>
        <time>2020-09-14T14:46:11Z</time>
      </trkpt>
      <trkpt lat="45.11616" lon="2.63405">
        <ele>1344</ele>
        <time>2020-09-14T14:46:32Z</time>
      </trkpt>
      <trkpt lat="45.11617" lon="2.63416">
        <ele>1343</ele>
        <time>2020-09-14T14:46:47Z</time>
      </trkpt>
      <trkpt lat="45.11617" lon="2.63416">
        <ele>1343</ele>
        <time>2020-09-14T14:46:47Z</time>
      </trkpt>
      <trkpt lat="45.1162" lon="2.63418">
        <ele>1347</ele>
        <time>2020-09-14T14:53:44Z</time>
      </trkpt>
      <trkpt lat="45.11628" lon="2.63424">
        <ele>1350</ele>
        <time>2020-09-14T14:54:06Z</time>
      </trkpt>
      <trkpt lat="45.11635" lon="2.63429">
        <ele>1352</ele>
        <time>2020-09-14T14:54:23Z</time>
      </trkpt>
      <trkpt lat="45.11639" lon="2.6344">
        <ele>1357</ele>
        <time>2020-09-14T14:54:56Z</time>
      </trkpt>
      <trkpt lat="45.11645" lon="2.63447">
        <ele>1360</ele>
        <time>2020-09-14T14:55:31Z</time>
      </trkpt>
      <trkpt lat="45.11651" lon="2.63456">
        <ele>1364</ele>
        <time>2020-09-14T14:56:10Z</time>
      </trkpt>
      <trkpt lat="45.11659" lon="2.63462">
        <ele>1366</ele>
        <time>2020-09-14T14:56:37Z</time>
      </trkpt>
      <trkpt lat="45.11664" lon="2.63472">
        <ele>1368</ele>
        <time>2020-09-14T14:57:03Z</time>
      </trkpt>
      <trkpt lat="45.11666" lon="2.63484">
        <ele>1372</ele>
        <time>2020-09-14T14:57:28Z</time>
      </trkpt>
      <trkpt lat="45.11668" lon="2.63496">
        <ele>1374</ele>
        <time>2020-09-14T14:57:48Z</time>
      </trkpt>
      <trkpt lat="45.1166" lon="2.63501">
        <ele>1375</ele>
        <time>2020-09-14T14:58:01Z</time>
      </trkpt>
      <trkpt lat="45.11663" lon="2.63513">
        <ele>1378</ele>
        <time>2020-09-14T14:58:26Z</time>
      </trkpt>
      <trkpt lat="45.11669" lon="2.63522">
        <ele>1381</ele>
        <time>2020-09-14T14:58:41Z</time>
      </trkpt>
      <trkpt lat="45.11671" lon="2.63533">
        <ele>1383</ele>
        <time>2020-09-14T14:59:06Z</time>
      </trkpt>
      <trkpt lat="45.1167" lon="2.63535">
        <ele>1383</ele>
        <time>2020-09-14T14:59:07Z</time>
      </trkpt>
      <trkpt lat="45.1167" lon="2.63535">
        <ele>1383</ele>
        <time>2020-09-14T14:59:08Z</time>
      </trkpt>
    </trkseg>
  </trk>
  <trk>
    <name><![CDATA[Vous suivez Aspre roc Hozières (Cantal)]]></name>
    <extensions>
      <line xmlns="http://www.topografix.com/GPX/gpx_style/0/2">
        <color>0000FF</color>
        <width>4</width>
      </line>
    </extensions>
    <trkseg>
      <trkpt lat="45.11671" lon="2.63539">
        <ele>1379</ele>
        <time>2020-09-14T15:36:23Z</time>
      </trkpt>
      <trkpt lat="45.11664" lon="2.63548">
        <ele>1376</ele>
        <time>2020-09-14T15:36:38Z</time>
      </trkpt>
      <trkpt lat="45.1166" lon="2.63558">
        <ele>1378</ele>
        <time>2020-09-14T15:36:48Z</time>
      </trkpt>
      <trkpt lat="45.1166" lon="2.6357">
        <ele>1380</ele>
        <time>2020-09-14T15:37:02Z</time>
      </trkpt>
      <trkpt lat="45.11664" lon="2.63581">
        <ele>1381</ele>
        <time>2020-09-14T15:37:16Z</time>
      </trkpt>
      <trkpt lat="45.11661" lon="2.63592">
        <ele>1381</ele>
        <time>2020-09-14T15:37:30Z</time>
      </trkpt>
      <trkpt lat="45.11663" lon="2.63603">
        <ele>1381</ele>
        <time>2020-09-14T15:37:42Z</time>
      </trkpt>
      <trkpt lat="45.1166" lon="2.63615">
        <ele>1383</ele>
        <time>2020-09-14T15:38:09Z</time>
      </trkpt>
      <trkpt lat="45.11656" lon="2.63626">
        <ele>1390</ele>
        <time>2020-09-14T15:38:28Z</time>
      </trkpt>
      <trkpt lat="45.11655" lon="2.63638">
        <ele>1392</ele>
        <time>2020-09-14T15:38:41Z</time>
      </trkpt>
      <trkpt lat="45.11657" lon="2.6365">
        <ele>1394</ele>
        <time>2020-09-14T15:39:01Z</time>
      </trkpt>
      <trkpt lat="45.11657" lon="2.63662">
        <ele>1396</ele>
        <time>2020-09-14T15:39:15Z</time>
      </trkpt>
      <trkpt lat="45.1166" lon="2.63673">
        <ele>1398</ele>
        <time>2020-09-14T15:39:36Z</time>
      </trkpt>
      <trkpt lat="45.11657" lon="2.63684">
        <ele>1398</ele>
        <time>2020-09-14T15:39:54Z</time>
      </trkpt>
      <trkpt lat="45.11653" lon="2.63695">
        <ele>1401</ele>
        <time>2020-09-14T15:40:06Z</time>
      </trkpt>
      <trkpt lat="45.11651" lon="2.63707">
        <ele>1402</ele>
        <time>2020-09-14T15:40:19Z</time>
      </trkpt>
      <trkpt lat="45.11648" lon="2.63719">
        <ele>1401</ele>
        <time>2020-09-14T15:40:37Z</time>
      </trkpt>
      <trkpt lat="45.11645" lon="2.63731">
        <ele>1405</ele>
        <time>2020-09-14T15:40:53Z</time>
      </trkpt>
      <trkpt lat="45.11641" lon="2.63742">
        <ele>1406</ele>
        <time>2020-09-14T15:41:12Z</time>
      </trkpt>
      <trkpt lat="45.11639" lon="2.63753">
        <ele>1408</ele>
        <time>2020-09-14T15:41:30Z</time>
      </trkpt>
      <trkpt lat="45.11638" lon="2.63765">
        <ele>1409</ele>
        <time>2020-09-14T15:41:53Z</time>
      </trkpt>
      <trkpt lat="45.11635" lon="2.63776">
        <ele>1412</ele>
        <time>2020-09-14T15:42:19Z</time>
      </trkpt>
      <trkpt lat="45.1163" lon="2.63787">
        <ele>1414</ele>
        <time>2020-09-14T15:42:43Z</time>
      </trkpt>
      <trkpt lat="45.11629" lon="2.63791">
        <ele>1417</ele>
        <time>2020-09-14T15:42:52Z</time>
      </trkpt>
      <trkpt lat="45.11629" lon="2.63791">
        <ele>1417</ele>
        <time>2020-09-14T15:42:53Z</time>
      </trkpt>
      <trkpt lat="45.11627" lon="2.63789">
        <ele>1416</ele>
        <time>2020-09-14T15:45:14Z</time>
      </trkpt>
      <trkpt lat="45.11623" lon="2.63799">
        <ele>1417</ele>
        <time>2020-09-14T15:45:28Z</time>
      </trkpt>
      <trkpt lat="45.11618" lon="2.63809">
        <ele>1417</ele>
        <time>2020-09-14T15:45:39Z</time>
      </trkpt>
      <trkpt lat="45.11615" lon="2.6382">
        <ele>1418</ele>
        <time>2020-09-14T15:45:58Z</time>
      </trkpt>
      <trkpt lat="45.1161" lon="2.6383">
        <ele>1420</ele>
        <time>2020-09-14T15:46:19Z</time>
      </trkpt>
      <trkpt lat="45.11604" lon="2.63838">
        <ele>1424</ele>
        <time>2020-09-14T15:46:44Z</time>
      </trkpt>
      <trkpt lat="45.11599" lon="2.63847">
        <ele>1428</ele>
        <time>2020-09-14T15:47:06Z</time>
      </trkpt>
      <trkpt lat="45.11599" lon="2.63849">
        <ele>1431</ele>
        <time>2020-09-14T15:47:24Z</time>
      </trkpt>
      <trkpt lat="45.11599" lon="2.63849">
        <ele>1431</ele>
        <time>2020-09-14T15:47:25Z</time>
      </trkpt>
      <trkpt lat="45.11598" lon="2.63849">
        <ele>1432</ele>
        <time>2020-09-14T15:47:47Z</time>
      </trkpt>
      <trkpt lat="45.11594" lon="2.63861">
        <ele>1431</ele>
        <time>2020-09-14T15:48:10Z</time>
      </trkpt>
      <trkpt lat="45.11588" lon="2.63869">
        <ele>1435</ele>
        <time>2020-09-14T15:48:31Z</time>
      </trkpt>
      <trkpt lat="45.11585" lon="2.63871">
        <ele>1437</ele>
        <time>2020-09-14T15:48:42Z</time>
      </trkpt>
      <trkpt lat="45.11585" lon="2.63871">
        <ele>1437</ele>
        <time>2020-09-14T15:48:43Z</time>
      </trkpt>
      <trkpt lat="45.11584" lon="2.63871">
        <ele>1437</ele>
        <time>2020-09-14T15:49:39Z</time>
      </trkpt>
      <trkpt lat="45.11579" lon="2.63881">
        <ele>1439</ele>
        <time>2020-09-14T15:50:02Z</time>
      </trkpt>
      <trkpt lat="45.11575" lon="2.63891">
        <ele>1445</ele>
        <time>2020-09-14T15:50:18Z</time>
      </trkpt>
      <trkpt lat="45.11569" lon="2.63897">
        <ele>1448</ele>
        <time>2020-09-14T15:50:39Z</time>
      </trkpt>
      <trkpt lat="45.11569" lon="2.63897">
        <ele>1448</ele>
        <time>2020-09-14T15:50:40Z</time>
      </trkpt>
      <trkpt lat="45.11569" lon="2.63896">
        <ele>1446</ele>
        <time>2020-09-14T15:52:48Z</time>
      </trkpt>
      <trkpt lat="45.11563" lon="2.63905">
        <ele>1449</ele>
        <time>2020-09-14T15:53:07Z</time>
      </trkpt>
      <trkpt lat="45.11557" lon="2.63914">
        <ele>1451</ele>
        <time>2020-09-14T15:53:24Z</time>
      </trkpt>
      <trkpt lat="45.11555" lon="2.6392">
        <ele>1454</ele>
        <time>2020-09-14T15:53:36Z</time>
      </trkpt>
      <trkpt lat="45.11555" lon="2.6392">
        <ele>1454</ele>
        <time>2020-09-14T15:53:36Z</time>
      </trkpt>
      <trkpt lat="45.11555" lon="2.6392">
        <ele>1455</ele>
        <time>2020-09-14T15:56:03Z</time>
      </trkpt>
      <trkpt lat="45.11552" lon="2.63931">
        <ele>1458</ele>
        <time>2020-09-14T15:56:23Z</time>
      </trkpt>
      <trkpt lat="45.11547" lon="2.63941">
        <ele>1464</ele>
        <time>2020-09-14T15:56:45Z</time>
      </trkpt>
      <trkpt lat="45.11544" lon="2.63946">
        <ele>1466</ele>
        <time>2020-09-14T15:56:55Z</time>
      </trkpt>
      <trkpt lat="45.11544" lon="2.63946">
        <ele>1466</ele>
        <time>2020-09-14T15:56:56Z</time>
      </trkpt>
      <trkpt lat="45.11546" lon="2.63946">
        <ele>1467</ele>
        <time>2020-09-14T15:57:56Z</time>
      </trkpt>
      <trkpt lat="45.11547" lon="2.63958">
        <ele>1470</ele>
        <time>2020-09-14T15:58:19Z</time>
      </trkpt>
      <trkpt lat="45.11545" lon="2.63971">
        <ele>1479</ele>
        <time>2020-09-14T15:58:39Z</time>
      </trkpt>
      <trkpt lat="45.11545" lon="2.63971">
        <ele>1479</ele>
        <time>2020-09-14T15:58:40Z</time>
      </trkpt>
      <trkpt lat="45.11544" lon="2.63971">
        <ele>1477</ele>
        <time>2020-09-14T15:59:37Z</time>
      </trkpt>
      <trkpt lat="45.11543" lon="2.63983">
        <ele>1480</ele>
        <time>2020-09-14T15:59:58Z</time>
      </trkpt>
      <trkpt lat="45.11541" lon="2.63995">
        <ele>1483</ele>
        <time>2020-09-14T16:00:21Z</time>
      </trkpt>
      <trkpt lat="45.11539" lon="2.63996">
        <ele>1482</ele>
        <time>2020-09-14T16:00:23Z</time>
      </trkpt>
      <trkpt lat="45.11539" lon="2.63996">
        <ele>1482</ele>
        <time>2020-09-14T16:00:23Z</time>
      </trkpt>
      <trkpt lat="45.11537" lon="2.63997">
        <ele>1486</ele>
        <time>2020-09-14T16:01:23Z</time>
      </trkpt>
      <trkpt lat="45.11537" lon="2.64009">
        <ele>1487</ele>
        <time>2020-09-14T16:01:46Z</time>
      </trkpt>
      <trkpt lat="45.1154" lon="2.64021">
        <ele>1490</ele>
        <time>2020-09-14T16:02:02Z</time>
      </trkpt>
      <trkpt lat="45.11539" lon="2.64028">
        <ele>1493</ele>
        <time>2020-09-14T16:02:16Z</time>
      </trkpt>
      <trkpt lat="45.11539" lon="2.64028">
        <ele>1493</ele>
        <time>2020-09-14T16:02:17Z</time>
      </trkpt>
      <trkpt lat="45.11539" lon="2.64028">
        <ele>1493</ele>
        <time>2020-09-14T16:03:11Z</time>
      </trkpt>
      <trkpt lat="45.11535" lon="2.64039">
        <ele>1498</ele>
        <time>2020-09-14T16:03:40Z</time>
      </trkpt>
      <trkpt lat="45.11532" lon="2.64048">
        <ele>1503</ele>
        <time>2020-09-14T16:03:58Z</time>
      </trkpt>
      <trkpt lat="45.11532" lon="2.64048">
        <ele>1503</ele>
        <time>2020-09-14T16:03:58Z</time>
      </trkpt>
      <trkpt lat="45.11533" lon="2.64049">
        <ele>1503</ele>
        <time>2020-09-14T16:04:42Z</time>
      </trkpt>
      <trkpt lat="45.11531" lon="2.64057">
        <ele>1504</ele>
        <time>2020-09-14T16:05:00Z</time>
      </trkpt>
      <trkpt lat="45.11531" lon="2.64057">
        <ele>1504</ele>
        <time>2020-09-14T16:05:00Z</time>
      </trkpt>
      <trkpt lat="45.11531" lon="2.64057">
        <ele>1504</ele>
        <time>2020-09-14T16:05:12Z</time>
      </trkpt>
      <trkpt lat="45.11524" lon="2.64064">
        <ele>1506</ele>
        <time>2020-09-14T16:05:57Z</time>
      </trkpt>
      <trkpt lat="45.11517" lon="2.64072">
        <ele>1511</ele>
        <time>2020-09-14T16:06:14Z</time>
      </trkpt>
      <trkpt lat="45.11512" lon="2.64071">
        <ele>1511</ele>
        <time>2020-09-14T16:06:24Z</time>
      </trkpt>
      <trkpt lat="45.11512" lon="2.64071">
        <ele>1511</ele>
        <time>2020-09-14T16:06:25Z</time>
      </trkpt>
      <trkpt lat="45.1151" lon="2.6407">
        <ele>1516</ele>
        <time>2020-09-14T16:11:28Z</time>
      </trkpt>
      <trkpt lat="45.11501" lon="2.64073">
        <ele>1517</ele>
        <time>2020-09-14T16:11:41Z</time>
      </trkpt>
      <trkpt lat="45.11492" lon="2.64071">
        <ele>1520</ele>
        <time>2020-09-14T16:11:52Z</time>
      </trkpt>
      <trkpt lat="45.11485" lon="2.64077">
        <ele>1526</ele>
        <time>2020-09-14T16:12:12Z</time>
      </trkpt>
      <trkpt lat="45.11481" lon="2.64078">
        <ele>1525</ele>
        <time>2020-09-14T16:12:19Z</time>
      </trkpt>
      <trkpt lat="45.11481" lon="2.64078">
        <ele>1525</ele>
        <time>2020-09-14T16:12:19Z</time>
      </trkpt>
      <trkpt lat="45.11481" lon="2.64079">
        <ele>1525</ele>
        <time>2020-09-14T16:12:59Z</time>
      </trkpt>
      <trkpt lat="45.11473" lon="2.64083">
        <ele>1530</ele>
        <time>2020-09-14T16:13:14Z</time>
      </trkpt>
      <trkpt lat="45.11466" lon="2.64087">
        <ele>1533</ele>
        <time>2020-09-14T16:13:36Z</time>
      </trkpt>
      <trkpt lat="45.11457" lon="2.64091">
        <ele>1538</ele>
        <time>2020-09-14T16:13:53Z</time>
      </trkpt>
      <trkpt lat="45.11449" lon="2.64096">
        <ele>1539</ele>
        <time>2020-09-14T16:14:15Z</time>
      </trkpt>
      <trkpt lat="45.11441" lon="2.64098">
        <ele>1539</ele>
        <time>2020-09-14T16:14:32Z</time>
      </trkpt>
      <trkpt lat="45.11441" lon="2.64098">
        <ele>1539</ele>
        <time>2020-09-14T16:14:33Z</time>
      </trkpt>
      <trkpt lat="45.11441" lon="2.64097">
        <ele>1538</ele>
        <time>2020-09-14T16:15:59Z</time>
      </trkpt>
      <trkpt lat="45.11434" lon="2.64104">
        <ele>1541</ele>
        <time>2020-09-14T16:16:17Z</time>
      </trkpt>
      <trkpt lat="45.11429" lon="2.64113">
        <ele>1544</ele>
        <time>2020-09-14T16:16:39Z</time>
      </trkpt>
      <trkpt lat="45.1142" lon="2.64117">
        <ele>1547</ele>
        <time>2020-09-14T16:16:57Z</time>
      </trkpt>
      <trkpt lat="45.11419" lon="2.64118">
        <ele>1547</ele>
        <time>2020-09-14T16:16:59Z</time>
      </trkpt>
      <trkpt lat="45.11419" lon="2.64118">
        <ele>1547</ele>
        <time>2020-09-14T16:17:00Z</time>
      </trkpt>
      <trkpt lat="45.11418" lon="2.64119">
        <ele>1546</ele>
        <time>2020-09-14T16:18:35Z</time>
      </trkpt>
      <trkpt lat="45.11412" lon="2.64129">
        <ele>1553</ele>
        <time>2020-09-14T16:18:58Z</time>
      </trkpt>
      <trkpt lat="45.11405" lon="2.64134">
        <ele>1552</ele>
        <time>2020-09-14T16:19:12Z</time>
      </trkpt>
      <trkpt lat="45.114" lon="2.64138">
        <ele>1551</ele>
        <time>2020-09-14T16:19:24Z</time>
      </trkpt>
      <trkpt lat="45.114" lon="2.64138">
        <ele>1551</ele>
        <time>2020-09-14T16:19:24Z</time>
      </trkpt>
      <trkpt lat="45.11398" lon="2.64139">
        <ele>1551</ele>
        <time>2020-09-14T16:20:22Z</time>
      </trkpt>
      <trkpt lat="45.11391" lon="2.64146">
        <ele>1552</ele>
        <time>2020-09-14T16:20:33Z</time>
      </trkpt>
      <trkpt lat="45.11385" lon="2.64154">
        <ele>1555</ele>
        <time>2020-09-14T16:20:58Z</time>
      </trkpt>
      <trkpt lat="45.11377" lon="2.6416">
        <ele>1554</ele>
        <time>2020-09-14T16:21:15Z</time>
      </trkpt>
      <trkpt lat="45.11376" lon="2.64161">
        <ele>1554</ele>
        <time>2020-09-14T16:21:16Z</time>
      </trkpt>
      <trkpt lat="45.11376" lon="2.64161">
        <ele>1554</ele>
        <time>2020-09-14T16:21:16Z</time>
      </trkpt>
      <trkpt lat="45.11376" lon="2.6416">
        <ele>1555</ele>
        <time>2020-09-14T16:22:21Z</time>
      </trkpt>
      <trkpt lat="45.11371" lon="2.6417">
        <ele>1558</ele>
        <time>2020-09-14T16:22:40Z</time>
      </trkpt>
      <trkpt lat="45.11366" lon="2.64181">
        <ele>1562</ele>
        <time>2020-09-14T16:22:58Z</time>
      </trkpt>
      <trkpt lat="45.11361" lon="2.64184">
        <ele>1564</ele>
        <time>2020-09-14T16:23:06Z</time>
      </trkpt>
      <trkpt lat="45.11361" lon="2.64184">
        <ele>1564</ele>
        <time>2020-09-14T16:23:06Z</time>
      </trkpt>
      <trkpt lat="45.11361" lon="2.64183">
        <ele>1564</ele>
        <time>2020-09-14T16:23:32Z</time>
      </trkpt>
      <trkpt lat="45.11354" lon="2.64189">
        <ele>1567</ele>
        <time>2020-09-14T16:23:48Z</time>
      </trkpt>
      <trkpt lat="45.11345" lon="2.64189">
        <ele>1571</ele>
        <time>2020-09-14T16:24:02Z</time>
      </trkpt>
      <trkpt lat="45.11336" lon="2.64191">
        <ele>1573</ele>
        <time>2020-09-14T16:24:20Z</time>
      </trkpt>
      <trkpt lat="45.11332" lon="2.64189">
        <ele>1575</ele>
        <time>2020-09-14T16:24:28Z</time>
      </trkpt>
      <trkpt lat="45.11332" lon="2.64189">
        <ele>1575</ele>
        <time>2020-09-14T16:24:28Z</time>
      </trkpt>
      <trkpt lat="45.11334" lon="2.6419">
        <ele>1577</ele>
        <time>2020-09-14T16:29:30Z</time>
      </trkpt>
      <trkpt lat="45.11326" lon="2.64185">
        <ele>1577</ele>
        <time>2020-09-14T16:29:41Z</time>
      </trkpt>
      <trkpt lat="45.11317" lon="2.64184">
        <ele>1578</ele>
        <time>2020-09-14T16:29:52Z</time>
      </trkpt>
      <trkpt lat="45.11311" lon="2.6418">
        <ele>1579</ele>
        <time>2020-09-14T16:30:01Z</time>
      </trkpt>
      <trkpt lat="45.11311" lon="2.6418">
        <ele>1579</ele>
        <time>2020-09-14T16:30:02Z</time>
      </trkpt>
    </trkseg>
  </trk>
  <trk>
    <name><![CDATA[Vous suivez roc Hozières puy Chavaroche (Cantal)]]></name>
    <extensions>
      <line xmlns="http://www.topografix.com/GPX/gpx_style/0/2">
        <color>0000FF</color>
        <width>4</width>
      </line>
    </extensions>
    <trkseg>
      <trkpt lat="45.11308" lon="2.64189">
        <ele>1573</ele>
        <time>2020-09-14T16:39:42Z</time>
      </trkpt>
      <trkpt lat="45.11308" lon="2.64178">
        <ele>1581</ele>
        <time>2020-09-14T16:40:16Z</time>
      </trkpt>
      <trkpt lat="45.113" lon="2.64174">
        <ele>1579</ele>
        <time>2020-09-14T16:40:27Z</time>
      </trkpt>
      <trkpt lat="45.11292" lon="2.6418">
        <ele>1578</ele>
        <time>2020-09-14T16:40:41Z</time>
      </trkpt>
      <trkpt lat="45.11285" lon="2.64186">
        <ele>1577</ele>
        <time>2020-09-14T16:40:51Z</time>
      </trkpt>
      <trkpt lat="45.11277" lon="2.6419">
        <ele>1576</ele>
        <time>2020-09-14T16:41:03Z</time>
      </trkpt>
      <trkpt lat="45.11271" lon="2.64196">
        <ele>1574</ele>
        <time>2020-09-14T16:41:12Z</time>
      </trkpt>
      <trkpt lat="45.11262" lon="2.64199">
        <ele>1574</ele>
        <time>2020-09-14T16:41:20Z</time>
      </trkpt>
      <trkpt lat="45.11254" lon="2.64198">
        <ele>1575</ele>
        <time>2020-09-14T16:41:30Z</time>
      </trkpt>
      <trkpt lat="45.11245" lon="2.64196">
        <ele>1575</ele>
        <time>2020-09-14T16:41:43Z</time>
      </trkpt>
      <trkpt lat="45.11238" lon="2.64202">
        <ele>1576</ele>
        <time>2020-09-14T16:41:52Z</time>
      </trkpt>
      <trkpt lat="45.11229" lon="2.64202">
        <ele>1576</ele>
        <time>2020-09-14T16:42:05Z</time>
      </trkpt>
      <trkpt lat="45.11222" lon="2.64208">
        <ele>1578</ele>
        <time>2020-09-14T16:42:17Z</time>
      </trkpt>
      <trkpt lat="45.11215" lon="2.64213">
        <ele>1579</ele>
        <time>2020-09-14T16:42:29Z</time>
      </trkpt>
      <trkpt lat="45.11206" lon="2.64213">
        <ele>1580</ele>
        <time>2020-09-14T16:42:44Z</time>
      </trkpt>
      <trkpt lat="45.11199" lon="2.64219">
        <ele>1580</ele>
        <time>2020-09-14T16:43:06Z</time>
      </trkpt>
      <trkpt lat="45.11194" lon="2.64228">
        <ele>1579</ele>
        <time>2020-09-14T16:43:19Z</time>
      </trkpt>
      <trkpt lat="45.11189" lon="2.64239">
        <ele>1578</ele>
        <time>2020-09-14T16:43:33Z</time>
      </trkpt>
      <trkpt lat="45.11186" lon="2.6425">
        <ele>1577</ele>
        <time>2020-09-14T16:43:45Z</time>
      </trkpt>
      <trkpt lat="45.1118" lon="2.64258">
        <ele>1575</ele>
        <time>2020-09-14T16:43:57Z</time>
      </trkpt>
      <trkpt lat="45.11172" lon="2.64263">
        <ele>1574</ele>
        <time>2020-09-14T16:44:07Z</time>
      </trkpt>
      <trkpt lat="45.11166" lon="2.64271">
        <ele>1574</ele>
        <time>2020-09-14T16:44:23Z</time>
      </trkpt>
      <trkpt lat="45.11158" lon="2.64276">
        <ele>1574</ele>
        <time>2020-09-14T16:44:32Z</time>
      </trkpt>
      <trkpt lat="45.11152" lon="2.64286">
        <ele>1574</ele>
        <time>2020-09-14T16:44:45Z</time>
      </trkpt>
      <trkpt lat="45.11144" lon="2.64291">
        <ele>1576</ele>
        <time>2020-09-14T16:44:57Z</time>
      </trkpt>
      <trkpt lat="45.11138" lon="2.64297">
        <ele>1576</ele>
        <time>2020-09-14T16:45:09Z</time>
      </trkpt>
      <trkpt lat="45.11131" lon="2.64303">
        <ele>1576</ele>
        <time>2020-09-14T16:45:21Z</time>
      </trkpt>
      <trkpt lat="45.11122" lon="2.64305">
        <ele>1576</ele>
        <time>2020-09-14T16:45:36Z</time>
      </trkpt>
      <trkpt lat="45.11113" lon="2.64307">
        <ele>1577</ele>
        <time>2020-09-14T16:45:54Z</time>
      </trkpt>
      <trkpt lat="45.11104" lon="2.64309">
        <ele>1579</ele>
        <time>2020-09-14T16:46:20Z</time>
      </trkpt>
      <trkpt lat="45.11096" lon="2.64315">
        <ele>1579</ele>
        <time>2020-09-14T16:46:37Z</time>
      </trkpt>
      <trkpt lat="45.11092" lon="2.64325">
        <ele>1579</ele>
        <time>2020-09-14T16:46:53Z</time>
      </trkpt>
      <trkpt lat="45.11085" lon="2.64329">
        <ele>1579</ele>
        <time>2020-09-14T16:47:03Z</time>
      </trkpt>
      <trkpt lat="45.11078" lon="2.64336">
        <ele>1577</ele>
        <time>2020-09-14T16:47:15Z</time>
      </trkpt>
      <trkpt lat="45.1107" lon="2.64337">
        <ele>1575</ele>
        <time>2020-09-14T16:47:25Z</time>
      </trkpt>
      <trkpt lat="45.11064" lon="2.64346">
        <ele>1575</ele>
        <time>2020-09-14T16:47:39Z</time>
      </trkpt>
      <trkpt lat="45.11055" lon="2.6435">
        <ele>1574</ele>
        <time>2020-09-14T16:47:50Z</time>
      </trkpt>
      <trkpt lat="45.11047" lon="2.64353">
        <ele>1574</ele>
        <time>2020-09-14T16:48:03Z</time>
      </trkpt>
      <trkpt lat="45.11041" lon="2.64362">
        <ele>1571</ele>
        <time>2020-09-14T16:48:19Z</time>
      </trkpt>
      <trkpt lat="45.11033" lon="2.64365">
        <ele>1570</ele>
        <time>2020-09-14T16:48:33Z</time>
      </trkpt>
      <trkpt lat="45.11026" lon="2.64371">
        <ele>1569</ele>
        <time>2020-09-14T16:48:44Z</time>
      </trkpt>
      <trkpt lat="45.11018" lon="2.64374">
        <ele>1569</ele>
        <time>2020-09-14T16:48:53Z</time>
      </trkpt>
      <trkpt lat="45.1101" lon="2.64378">
        <ele>1569</ele>
        <time>2020-09-14T16:49:04Z</time>
      </trkpt>
      <trkpt lat="45.11002" lon="2.64383">
        <ele>1569</ele>
        <time>2020-09-14T16:49:12Z</time>
      </trkpt>
      <trkpt lat="45.10995" lon="2.64391">
        <ele>1568</ele>
        <time>2020-09-14T16:49:19Z</time>
      </trkpt>
      <trkpt lat="45.10989" lon="2.64399">
        <ele>1570</ele>
        <time>2020-09-14T16:49:28Z</time>
      </trkpt>
      <trkpt lat="45.10983" lon="2.64405">
        <ele>1568</ele>
        <time>2020-09-14T16:49:35Z</time>
      </trkpt>
      <trkpt lat="45.10975" lon="2.6441">
        <ele>1566</ele>
        <time>2020-09-14T16:49:46Z</time>
      </trkpt>
      <trkpt lat="45.10968" lon="2.64418">
        <ele>1563</ele>
        <time>2020-09-14T16:49:56Z</time>
      </trkpt>
      <trkpt lat="45.1096" lon="2.64423">
        <ele>1562</ele>
        <time>2020-09-14T16:50:05Z</time>
      </trkpt>
      <trkpt lat="45.10954" lon="2.64429">
        <ele>1562</ele>
        <time>2020-09-14T16:50:13Z</time>
      </trkpt>
      <trkpt lat="45.10948" lon="2.64436">
        <ele>1562</ele>
        <time>2020-09-14T16:50:20Z</time>
      </trkpt>
      <trkpt lat="45.10941" lon="2.64444">
        <ele>1563</ele>
        <time>2020-09-14T16:50:32Z</time>
      </trkpt>
      <trkpt lat="45.10933" lon="2.64449">
        <ele>1563</ele>
        <time>2020-09-14T16:50:43Z</time>
      </trkpt>
      <trkpt lat="45.10927" lon="2.64457">
        <ele>1563</ele>
        <time>2020-09-14T16:50:53Z</time>
      </trkpt>
      <trkpt lat="45.10923" lon="2.64467">
        <ele>1562</ele>
        <time>2020-09-14T16:51:03Z</time>
      </trkpt>
      <trkpt lat="45.10915" lon="2.64473">
        <ele>1562</ele>
        <time>2020-09-14T16:51:10Z</time>
      </trkpt>
      <trkpt lat="45.10912" lon="2.64484">
        <ele>1562</ele>
        <time>2020-09-14T16:51:23Z</time>
      </trkpt>
      <trkpt lat="45.10905" lon="2.64492">
        <ele>1562</ele>
        <time>2020-09-14T16:51:32Z</time>
      </trkpt>
      <trkpt lat="45.109" lon="2.64499">
        <ele>1561</ele>
        <time>2020-09-14T16:51:39Z</time>
      </trkpt>
      <trkpt lat="45.10894" lon="2.64507">
        <ele>1560</ele>
        <time>2020-09-14T16:51:44Z</time>
      </trkpt>
      <trkpt lat="45.10887" lon="2.64513">
        <ele>1559</ele>
        <time>2020-09-14T16:51:51Z</time>
      </trkpt>
      <trkpt lat="45.10883" lon="2.64523">
        <ele>1559</ele>
        <time>2020-09-14T16:52:01Z</time>
      </trkpt>
      <trkpt lat="45.10878" lon="2.64533">
        <ele>1560</ele>
        <time>2020-09-14T16:52:13Z</time>
      </trkpt>
      <trkpt lat="45.10871" lon="2.6454">
        <ele>1559</ele>
        <time>2020-09-14T16:52:21Z</time>
      </trkpt>
      <trkpt lat="45.10863" lon="2.64547">
        <ele>1558</ele>
        <time>2020-09-14T16:52:32Z</time>
      </trkpt>
      <trkpt lat="45.10856" lon="2.64553">
        <ele>1558</ele>
        <time>2020-09-14T16:52:43Z</time>
      </trkpt>
      <trkpt lat="45.10848" lon="2.64559">
        <ele>1560</ele>
        <time>2020-09-14T16:52:53Z</time>
      </trkpt>
      <trkpt lat="45.10842" lon="2.64562">
        <ele>1559</ele>
        <time>2020-09-14T16:53:00Z</time>
      </trkpt>
      <trkpt lat="45.10842" lon="2.64562">
        <ele>1559</ele>
        <time>2020-09-14T16:53:00Z</time>
      </trkpt>
      <trkpt lat="45.10841" lon="2.64564">
        <ele>1559</ele>
        <time>2020-09-14T16:53:18Z</time>
      </trkpt>
      <trkpt lat="45.10836" lon="2.64573">
        <ele>1561</ele>
        <time>2020-09-14T16:53:30Z</time>
      </trkpt>
      <trkpt lat="45.10831" lon="2.6458">
        <ele>1562</ele>
        <time>2020-09-14T16:53:40Z</time>
      </trkpt>
      <trkpt lat="45.10831" lon="2.6458">
        <ele>1562</ele>
        <time>2020-09-14T16:53:40Z</time>
      </trkpt>
      <trkpt lat="45.1083" lon="2.64581">
        <ele>1561</ele>
        <time>2020-09-14T16:53:48Z</time>
      </trkpt>
      <trkpt lat="45.10826" lon="2.64592">
        <ele>1562</ele>
        <time>2020-09-14T16:53:58Z</time>
      </trkpt>
      <trkpt lat="45.10821" lon="2.64603">
        <ele>1564</ele>
        <time>2020-09-14T16:54:09Z</time>
      </trkpt>
      <trkpt lat="45.10817" lon="2.64613">
        <ele>1564</ele>
        <time>2020-09-14T16:54:20Z</time>
      </trkpt>
      <trkpt lat="45.1081" lon="2.6462">
        <ele>1565</ele>
        <time>2020-09-14T16:54:30Z</time>
      </trkpt>
      <trkpt lat="45.10804" lon="2.64629">
        <ele>1565</ele>
        <time>2020-09-14T16:54:40Z</time>
      </trkpt>
      <trkpt lat="45.10798" lon="2.64637">
        <ele>1564</ele>
        <time>2020-09-14T16:54:53Z</time>
      </trkpt>
      <trkpt lat="45.10794" lon="2.64647">
        <ele>1562</ele>
        <time>2020-09-14T16:55:03Z</time>
      </trkpt>
      <trkpt lat="45.10786" lon="2.64653">
        <ele>1562</ele>
        <time>2020-09-14T16:55:11Z</time>
      </trkpt>
      <trkpt lat="45.1078" lon="2.64661">
        <ele>1562</ele>
        <time>2020-09-14T16:55:20Z</time>
      </trkpt>
      <trkpt lat="45.10773" lon="2.64669">
        <ele>1563</ele>
        <time>2020-09-14T16:55:29Z</time>
      </trkpt>
      <trkpt lat="45.10768" lon="2.64678">
        <ele>1562</ele>
        <time>2020-09-14T16:55:35Z</time>
      </trkpt>
      <trkpt lat="45.10764" lon="2.64689">
        <ele>1563</ele>
        <time>2020-09-14T16:55:43Z</time>
      </trkpt>
      <trkpt lat="45.10759" lon="2.64698">
        <ele>1563</ele>
        <time>2020-09-14T16:55:53Z</time>
      </trkpt>
      <trkpt lat="45.10753" lon="2.64706">
        <ele>1563</ele>
        <time>2020-09-14T16:56:04Z</time>
      </trkpt>
      <trkpt lat="45.10747" lon="2.64714">
        <ele>1563</ele>
        <time>2020-09-14T16:56:10Z</time>
      </trkpt>
      <trkpt lat="45.10741" lon="2.64722">
        <ele>1564</ele>
        <time>2020-09-14T16:56:21Z</time>
      </trkpt>
      <trkpt lat="45.10735" lon="2.64731">
        <ele>1564</ele>
        <time>2020-09-14T16:56:30Z</time>
      </trkpt>
      <trkpt lat="45.1073" lon="2.64739">
        <ele>1565</ele>
        <time>2020-09-14T16:56:37Z</time>
      </trkpt>
      <trkpt lat="45.10724" lon="2.64747">
        <ele>1565</ele>
        <time>2020-09-14T16:56:46Z</time>
      </trkpt>
      <trkpt lat="45.10718" lon="2.64756">
        <ele>1565</ele>
        <time>2020-09-14T16:56:56Z</time>
      </trkpt>
      <trkpt lat="45.10712" lon="2.64765">
        <ele>1567</ele>
        <time>2020-09-14T16:57:08Z</time>
      </trkpt>
      <trkpt lat="45.10707" lon="2.64774">
        <ele>1569</ele>
        <time>2020-09-14T16:57:22Z</time>
      </trkpt>
      <trkpt lat="45.10702" lon="2.64785">
        <ele>1571</ele>
        <time>2020-09-14T16:57:38Z</time>
      </trkpt>
      <trkpt lat="45.10696" lon="2.64793">
        <ele>1572</ele>
        <time>2020-09-14T16:57:51Z</time>
      </trkpt>
      <trkpt lat="45.10695" lon="2.64794">
        <ele>1572</ele>
        <time>2020-09-14T16:57:53Z</time>
      </trkpt>
      <trkpt lat="45.10695" lon="2.64794">
        <ele>1572</ele>
        <time>2020-09-14T16:57:54Z</time>
      </trkpt>
      <trkpt lat="45.10692" lon="2.64797">
        <ele>1573</ele>
        <time>2020-09-14T16:59:01Z</time>
      </trkpt>
      <trkpt lat="45.10688" lon="2.64808">
        <ele>1573</ele>
        <time>2020-09-14T16:59:16Z</time>
      </trkpt>
      <trkpt lat="45.10686" lon="2.64821">
        <ele>1575</ele>
        <time>2020-09-14T16:59:32Z</time>
      </trkpt>
      <trkpt lat="45.10682" lon="2.64831">
        <ele>1577</ele>
        <time>2020-09-14T16:59:45Z</time>
      </trkpt>
      <trkpt lat="45.10679" lon="2.64842">
        <ele>1580</ele>
        <time>2020-09-14T17:00:00Z</time>
      </trkpt>
      <trkpt lat="45.10676" lon="2.64853">
        <ele>1583</ele>
        <time>2020-09-14T17:00:16Z</time>
      </trkpt>
      <trkpt lat="45.10674" lon="2.64855">
        <ele>1583</ele>
        <time>2020-09-14T17:00:20Z</time>
      </trkpt>
      <trkpt lat="45.10674" lon="2.64855">
        <ele>1583</ele>
        <time>2020-09-14T17:00:20Z</time>
      </trkpt>
      <trkpt lat="45.10673" lon="2.64858">
        <ele>1584</ele>
        <time>2020-09-14T17:01:08Z</time>
      </trkpt>
      <trkpt lat="45.10668" lon="2.64869">
        <ele>1586</ele>
        <time>2020-09-14T17:01:25Z</time>
      </trkpt>
      <trkpt lat="45.10663" lon="2.64879">
        <ele>1588</ele>
        <time>2020-09-14T17:01:38Z</time>
      </trkpt>
      <trkpt lat="45.10659" lon="2.64889">
        <ele>1587</ele>
        <time>2020-09-14T17:01:49Z</time>
      </trkpt>
      <trkpt lat="45.10654" lon="2.649">
        <ele>1589</ele>
        <time>2020-09-14T17:02:05Z</time>
      </trkpt>
      <trkpt lat="45.10647" lon="2.64908">
        <ele>1589</ele>
        <time>2020-09-14T17:02:16Z</time>
      </trkpt>
      <trkpt lat="45.10647" lon="2.64908">
        <ele>1589</ele>
        <time>2020-09-14T17:02:17Z</time>
      </trkpt>
      <trkpt lat="45.10647" lon="2.64911">
        <ele>1589</ele>
        <time>2020-09-14T17:02:59Z</time>
      </trkpt>
      <trkpt lat="45.10644" lon="2.64921">
        <ele>1591</ele>
        <time>2020-09-14T17:03:14Z</time>
      </trkpt>
      <trkpt lat="45.10639" lon="2.64931">
        <ele>1593</ele>
        <time>2020-09-14T17:03:29Z</time>
      </trkpt>
      <trkpt lat="45.10635" lon="2.64941">
        <ele>1595</ele>
        <time>2020-09-14T17:03:44Z</time>
      </trkpt>
      <trkpt lat="45.10632" lon="2.64951">
        <ele>1596</ele>
        <time>2020-09-14T17:03:54Z</time>
      </trkpt>
      <trkpt lat="45.10627" lon="2.64962">
        <ele>1597</ele>
        <time>2020-09-14T17:04:10Z</time>
      </trkpt>
      <trkpt lat="45.10622" lon="2.64972">
        <ele>1599</ele>
        <time>2020-09-14T17:04:23Z</time>
      </trkpt>
      <trkpt lat="45.10617" lon="2.64982">
        <ele>1600</ele>
        <time>2020-09-14T17:04:38Z</time>
      </trkpt>
      <trkpt lat="45.10613" lon="2.64992">
        <ele>1600</ele>
        <time>2020-09-14T17:04:49Z</time>
      </trkpt>
      <trkpt lat="45.10606" lon="2.65">
        <ele>1601</ele>
        <time>2020-09-14T17:05:02Z</time>
      </trkpt>
      <trkpt lat="45.106" lon="2.65009">
        <ele>1602</ele>
        <time>2020-09-14T17:05:12Z</time>
      </trkpt>
      <trkpt lat="45.10593" lon="2.65017">
        <ele>1603</ele>
        <time>2020-09-14T17:05:21Z</time>
      </trkpt>
      <trkpt lat="45.10587" lon="2.65025">
        <ele>1602</ele>
        <time>2020-09-14T17:05:31Z</time>
      </trkpt>
      <trkpt lat="45.10581" lon="2.65032">
        <ele>1603</ele>
        <time>2020-09-14T17:05:41Z</time>
      </trkpt>
      <trkpt lat="45.10574" lon="2.6504">
        <ele>1603</ele>
        <time>2020-09-14T17:05:51Z</time>
      </trkpt>
      <trkpt lat="45.10567" lon="2.65047">
        <ele>1604</ele>
        <time>2020-09-14T17:06:02Z</time>
      </trkpt>
      <trkpt lat="45.1056" lon="2.65054">
        <ele>1606</ele>
        <time>2020-09-14T17:06:13Z</time>
      </trkpt>
      <trkpt lat="45.10552" lon="2.65058">
        <ele>1606</ele>
        <time>2020-09-14T17:06:23Z</time>
      </trkpt>
      <trkpt lat="45.10544" lon="2.65063">
        <ele>1606</ele>
        <time>2020-09-14T17:06:37Z</time>
      </trkpt>
      <trkpt lat="45.10536" lon="2.65069">
        <ele>1608</ele>
        <time>2020-09-14T17:06:54Z</time>
      </trkpt>
      <trkpt lat="45.10529" lon="2.65075">
        <ele>1608</ele>
        <time>2020-09-14T17:07:05Z</time>
      </trkpt>
      <trkpt lat="45.10523" lon="2.65083">
        <ele>1609</ele>
        <time>2020-09-14T17:07:17Z</time>
      </trkpt>
      <trkpt lat="45.10517" lon="2.65093">
        <ele>1608</ele>
        <time>2020-09-14T17:07:27Z</time>
      </trkpt>
      <trkpt lat="45.10514" lon="2.65105">
        <ele>1609</ele>
        <time>2020-09-14T17:07:37Z</time>
      </trkpt>
      <trkpt lat="45.10509" lon="2.65113">
        <ele>1610</ele>
        <time>2020-09-14T17:07:47Z</time>
      </trkpt>
      <trkpt lat="45.10501" lon="2.65119">
        <ele>1607</ele>
        <time>2020-09-14T17:07:56Z</time>
      </trkpt>
      <trkpt lat="45.10495" lon="2.65128">
        <ele>1608</ele>
        <time>2020-09-14T17:08:08Z</time>
      </trkpt>
      <trkpt lat="45.10488" lon="2.65135">
        <ele>1608</ele>
        <time>2020-09-14T17:08:18Z</time>
      </trkpt>
      <trkpt lat="45.10482" lon="2.6514">
        <ele>1608</ele>
        <time>2020-09-14T17:08:26Z</time>
      </trkpt>
      <trkpt lat="45.10482" lon="2.6514">
        <ele>1608</ele>
        <time>2020-09-14T17:08:26Z</time>
      </trkpt>
      <trkpt lat="45.10483" lon="2.6514">
        <ele>1607</ele>
        <time>2020-09-14T17:08:39Z</time>
      </trkpt>
      <trkpt lat="45.10476" lon="2.65146">
        <ele>1605</ele>
        <time>2020-09-14T17:08:46Z</time>
      </trkpt>
      <trkpt lat="45.1047" lon="2.65155">
        <ele>1604</ele>
        <time>2020-09-14T17:08:59Z</time>
      </trkpt>
      <trkpt lat="45.10464" lon="2.65165">
        <ele>1603</ele>
        <time>2020-09-14T17:09:10Z</time>
      </trkpt>
      <trkpt lat="45.10464" lon="2.65165">
        <ele>1603</ele>
        <time>2020-09-14T17:09:11Z</time>
      </trkpt>
      <trkpt lat="45.10464" lon="2.65165">
        <ele>1602</ele>
        <time>2020-09-14T17:16:31Z</time>
      </trkpt>
      <trkpt lat="45.10459" lon="2.65175">
        <ele>1602</ele>
        <time>2020-09-14T17:16:40Z</time>
      </trkpt>
      <trkpt lat="45.10454" lon="2.65185">
        <ele>1603</ele>
        <time>2020-09-14T17:16:48Z</time>
      </trkpt>
      <trkpt lat="45.1045" lon="2.65196">
        <ele>1603</ele>
        <time>2020-09-14T17:16:58Z</time>
      </trkpt>
      <trkpt lat="45.10444" lon="2.65204">
        <ele>1605</ele>
        <time>2020-09-14T17:17:07Z</time>
      </trkpt>
      <trkpt lat="45.10439" lon="2.65213">
        <ele>1606</ele>
        <time>2020-09-14T17:17:19Z</time>
      </trkpt>
      <trkpt lat="45.10435" lon="2.65224">
        <ele>1608</ele>
        <time>2020-09-14T17:17:31Z</time>
      </trkpt>
      <trkpt lat="45.10431" lon="2.65235">
        <ele>1610</ele>
        <time>2020-09-14T17:17:46Z</time>
      </trkpt>
      <trkpt lat="45.10425" lon="2.65244">
        <ele>1610</ele>
        <time>2020-09-14T17:18:01Z</time>
      </trkpt>
      <trkpt lat="45.10417" lon="2.65251">
        <ele>1612</ele>
        <time>2020-09-14T17:18:14Z</time>
      </trkpt>
      <trkpt lat="45.10414" lon="2.65255">
        <ele>1612</ele>
        <time>2020-09-14T17:18:22Z</time>
      </trkpt>
      <trkpt lat="45.10414" lon="2.65255">
        <ele>1612</ele>
        <time>2020-09-14T17:18:23Z</time>
      </trkpt>
      <trkpt lat="45.10413" lon="2.65255">
        <ele>1610</ele>
        <time>2020-09-14T17:19:04Z</time>
      </trkpt>
      <trkpt lat="45.10405" lon="2.65262">
        <ele>1612</ele>
        <time>2020-09-14T17:19:15Z</time>
      </trkpt>
      <trkpt lat="45.10399" lon="2.6527">
        <ele>1615</ele>
        <time>2020-09-14T17:19:25Z</time>
      </trkpt>
      <trkpt lat="45.10392" lon="2.65277">
        <ele>1615</ele>
        <time>2020-09-14T17:19:39Z</time>
      </trkpt>
      <trkpt lat="45.10384" lon="2.65281">
        <ele>1617</ele>
        <time>2020-09-14T17:19:48Z</time>
      </trkpt>
      <trkpt lat="45.10378" lon="2.65289">
        <ele>1619</ele>
        <time>2020-09-14T17:20:08Z</time>
      </trkpt>
      <trkpt lat="45.10371" lon="2.65291">
        <ele>1619</ele>
        <time>2020-09-14T17:20:16Z</time>
      </trkpt>
      <trkpt lat="45.10371" lon="2.65291">
        <ele>1619</ele>
        <time>2020-09-14T17:20:16Z</time>
      </trkpt>
      <trkpt lat="45.1037" lon="2.65292">
        <ele>1621</ele>
        <time>2020-09-14T17:21:08Z</time>
      </trkpt>
      <trkpt lat="45.10363" lon="2.653">
        <ele>1621</ele>
        <time>2020-09-14T17:21:20Z</time>
      </trkpt>
      <trkpt lat="45.10358" lon="2.65309">
        <ele>1623</ele>
        <time>2020-09-14T17:21:31Z</time>
      </trkpt>
      <trkpt lat="45.1035" lon="2.65315">
        <ele>1623</ele>
        <time>2020-09-14T17:21:42Z</time>
      </trkpt>
      <trkpt lat="45.10343" lon="2.65319">
        <ele>1625</ele>
        <time>2020-09-14T17:21:49Z</time>
      </trkpt>
      <trkpt lat="45.10335" lon="2.65324">
        <ele>1625</ele>
        <time>2020-09-14T17:22:03Z</time>
      </trkpt>
      <trkpt lat="45.10327" lon="2.65329">
        <ele>1625</ele>
        <time>2020-09-14T17:22:15Z</time>
      </trkpt>
      <trkpt lat="45.10319" lon="2.65334">
        <ele>1628</ele>
        <time>2020-09-14T17:22:29Z</time>
      </trkpt>
      <trkpt lat="45.10313" lon="2.65341">
        <ele>1630</ele>
        <time>2020-09-14T17:22:36Z</time>
      </trkpt>
      <trkpt lat="45.10304" lon="2.65345">
        <ele>1631</ele>
        <time>2020-09-14T17:22:48Z</time>
      </trkpt>
      <trkpt lat="45.10296" lon="2.65349">
        <ele>1631</ele>
        <time>2020-09-14T17:23:06Z</time>
      </trkpt>
      <trkpt lat="45.10289" lon="2.65355">
        <ele>1635</ele>
        <time>2020-09-14T17:23:33Z</time>
      </trkpt>
      <trkpt lat="45.10281" lon="2.6536">
        <ele>1638</ele>
        <time>2020-09-14T17:23:49Z</time>
      </trkpt>
      <trkpt lat="45.10273" lon="2.65364">
        <ele>1638</ele>
        <time>2020-09-14T17:24:02Z</time>
      </trkpt>
      <trkpt lat="45.10267" lon="2.65371">
        <ele>1640</ele>
        <time>2020-09-14T17:24:32Z</time>
      </trkpt>
      <trkpt lat="45.10259" lon="2.65376">
        <ele>1640</ele>
        <time>2020-09-14T17:24:39Z</time>
      </trkpt>
      <trkpt lat="45.10252" lon="2.65381">
        <ele>1639</ele>
        <time>2020-09-14T17:24:43Z</time>
      </trkpt>
      <trkpt lat="45.10247" lon="2.65383">
        <ele>1638</ele>
        <time>2020-09-14T17:24:48Z</time>
      </trkpt>
      <trkpt lat="45.10247" lon="2.65383">
        <ele>1638</ele>
        <time>2020-09-14T17:24:49Z</time>
      </trkpt>
      <trkpt lat="45.10247" lon="2.65385">
        <ele>1641</ele>
        <time>2020-09-14T17:32:36Z</time>
      </trkpt>
      <trkpt lat="45.10239" lon="2.65383">
        <ele>1641</ele>
        <time>2020-09-14T17:32:46Z</time>
      </trkpt>
      <trkpt lat="45.1023" lon="2.65383">
        <ele>1642</ele>
        <time>2020-09-14T17:32:56Z</time>
      </trkpt>
      <trkpt lat="45.10222" lon="2.6538">
        <ele>1643</ele>
        <time>2020-09-14T17:33:08Z</time>
      </trkpt>
      <trkpt lat="45.10215" lon="2.65373">
        <ele>1644</ele>
        <time>2020-09-14T17:33:17Z</time>
      </trkpt>
      <trkpt lat="45.10208" lon="2.65368">
        <ele>1645</ele>
        <time>2020-09-14T17:33:26Z</time>
      </trkpt>
      <trkpt lat="45.102" lon="2.65363">
        <ele>1646</ele>
        <time>2020-09-14T17:33:36Z</time>
      </trkpt>
      <trkpt lat="45.10192" lon="2.65358">
        <ele>1645</ele>
        <time>2020-09-14T17:33:47Z</time>
      </trkpt>
      <trkpt lat="45.10185" lon="2.6535">
        <ele>1645</ele>
        <time>2020-09-14T17:33:58Z</time>
      </trkpt>
      <trkpt lat="45.10178" lon="2.65342">
        <ele>1644</ele>
        <time>2020-09-14T17:34:11Z</time>
      </trkpt>
      <trkpt lat="45.10172" lon="2.65333">
        <ele>1646</ele>
        <time>2020-09-14T17:34:23Z</time>
      </trkpt>
      <trkpt lat="45.10172" lon="2.65333">
        <ele>1646</ele>
        <time>2020-09-14T17:34:24Z</time>
      </trkpt>
      <trkpt lat="45.10172" lon="2.65333">
        <ele>1646</ele>
        <time>2020-09-14T17:34:25Z</time>
      </trkpt>
      <trkpt lat="45.10171" lon="2.65332">
        <ele>1650</ele>
        <time>2020-09-14T17:34:44Z</time>
      </trkpt>
      <trkpt lat="45.10165" lon="2.65323">
        <ele>1652</ele>
        <time>2020-09-14T17:34:59Z</time>
      </trkpt>
      <trkpt lat="45.10158" lon="2.65315">
        <ele>1656</ele>
        <time>2020-09-14T17:35:15Z</time>
      </trkpt>
      <trkpt lat="45.10152" lon="2.65309">
        <ele>1658</ele>
        <time>2020-09-14T17:35:33Z</time>
      </trkpt>
      <trkpt lat="45.10143" lon="2.65307">
        <ele>1657</ele>
        <time>2020-09-14T17:35:40Z</time>
      </trkpt>
      <trkpt lat="45.10135" lon="2.65303">
        <ele>1657</ele>
        <time>2020-09-14T17:35:51Z</time>
      </trkpt>
      <trkpt lat="45.10128" lon="2.65297">
        <ele>1659</ele>
        <time>2020-09-14T17:36:02Z</time>
      </trkpt>
      <trkpt lat="45.10119" lon="2.65293">
        <ele>1660</ele>
        <time>2020-09-14T17:36:14Z</time>
      </trkpt>
      <trkpt lat="45.10111" lon="2.65289">
        <ele>1659</ele>
        <time>2020-09-14T17:36:26Z</time>
      </trkpt>
      <trkpt lat="45.10104" lon="2.65283">
        <ele>1661</ele>
        <time>2020-09-14T17:36:42Z</time>
      </trkpt>
      <trkpt lat="45.10097" lon="2.65278">
        <ele>1663</ele>
        <time>2020-09-14T17:36:57Z</time>
      </trkpt>
      <trkpt lat="45.10089" lon="2.65273">
        <ele>1664</ele>
        <time>2020-09-14T17:37:11Z</time>
      </trkpt>
      <trkpt lat="45.10081" lon="2.6527">
        <ele>1665</ele>
        <time>2020-09-14T17:37:26Z</time>
      </trkpt>
      <trkpt lat="45.10073" lon="2.65264">
        <ele>1666</ele>
        <time>2020-09-14T17:37:38Z</time>
      </trkpt>
      <trkpt lat="45.10068" lon="2.65255">
        <ele>1667</ele>
        <time>2020-09-14T17:37:48Z</time>
      </trkpt>
      <trkpt lat="45.10062" lon="2.65248">
        <ele>1666</ele>
        <time>2020-09-14T17:37:56Z</time>
      </trkpt>
      <trkpt lat="45.10055" lon="2.65241">
        <ele>1666</ele>
        <time>2020-09-14T17:38:07Z</time>
      </trkpt>
      <trkpt lat="45.10049" lon="2.65232">
        <ele>1667</ele>
        <time>2020-09-14T17:38:18Z</time>
      </trkpt>
      <trkpt lat="45.10043" lon="2.65224">
        <ele>1666</ele>
        <time>2020-09-14T17:38:27Z</time>
      </trkpt>
      <trkpt lat="45.10035" lon="2.65217">
        <ele>1666</ele>
        <time>2020-09-14T17:38:37Z</time>
      </trkpt>
      <trkpt lat="45.10029" lon="2.65209">
        <ele>1666</ele>
        <time>2020-09-14T17:38:47Z</time>
      </trkpt>
      <trkpt lat="45.10024" lon="2.65199">
        <ele>1666</ele>
        <time>2020-09-14T17:38:58Z</time>
      </trkpt>
      <trkpt lat="45.1002" lon="2.65188">
        <ele>1667</ele>
        <time>2020-09-14T17:39:07Z</time>
      </trkpt>
      <trkpt lat="45.10017" lon="2.65177">
        <ele>1668</ele>
        <time>2020-09-14T17:39:15Z</time>
      </trkpt>
      <trkpt lat="45.10011" lon="2.65168">
        <ele>1669</ele>
        <time>2020-09-14T17:39:26Z</time>
      </trkpt>
      <trkpt lat="45.10006" lon="2.65158">
        <ele>1670</ele>
        <time>2020-09-14T17:39:36Z</time>
      </trkpt>
      <trkpt lat="45.10004" lon="2.65147">
        <ele>1670</ele>
        <time>2020-09-14T17:39:46Z</time>
      </trkpt>
      <trkpt lat="45.09999" lon="2.65138">
        <ele>1670</ele>
        <time>2020-09-14T17:39:55Z</time>
      </trkpt>
      <trkpt lat="45.09996" lon="2.65127">
        <ele>1671</ele>
        <time>2020-09-14T17:40:04Z</time>
      </trkpt>
      <trkpt lat="45.09992" lon="2.65117">
        <ele>1670</ele>
        <time>2020-09-14T17:40:13Z</time>
      </trkpt>
      <trkpt lat="45.09986" lon="2.65109">
        <ele>1671</ele>
        <time>2020-09-14T17:40:23Z</time>
      </trkpt>
      <trkpt lat="45.09981" lon="2.65099">
        <ele>1673</ele>
        <time>2020-09-14T17:40:35Z</time>
      </trkpt>
      <trkpt lat="45.09976" lon="2.65091">
        <ele>1673</ele>
        <time>2020-09-14T17:40:44Z</time>
      </trkpt>
      <trkpt lat="45.09971" lon="2.65082">
        <ele>1675</ele>
        <time>2020-09-14T17:40:53Z</time>
      </trkpt>
      <trkpt lat="45.09965" lon="2.65074">
        <ele>1675</ele>
        <time>2020-09-14T17:41:02Z</time>
      </trkpt>
      <trkpt lat="45.09961" lon="2.65064">
        <ele>1675</ele>
        <time>2020-09-14T17:41:12Z</time>
      </trkpt>
      <trkpt lat="45.09956" lon="2.65054">
        <ele>1675</ele>
        <time>2020-09-14T17:41:22Z</time>
      </trkpt>
      <trkpt lat="45.0995" lon="2.65044">
        <ele>1676</ele>
        <time>2020-09-14T17:41:33Z</time>
      </trkpt>
      <trkpt lat="45.09948" lon="2.65032">
        <ele>1675</ele>
        <time>2020-09-14T17:41:44Z</time>
      </trkpt>
      <trkpt lat="45.09946" lon="2.65019">
        <ele>1675</ele>
        <time>2020-09-14T17:41:54Z</time>
      </trkpt>
      <trkpt lat="45.09942" lon="2.65009">
        <ele>1676</ele>
        <time>2020-09-14T17:42:04Z</time>
      </trkpt>
      <trkpt lat="45.09941" lon="2.64997">
        <ele>1675</ele>
        <time>2020-09-14T17:42:14Z</time>
      </trkpt>
      <trkpt lat="45.09939" lon="2.64985">
        <ele>1674</ele>
        <time>2020-09-14T17:42:24Z</time>
      </trkpt>
      <trkpt lat="45.09937" lon="2.64974">
        <ele>1673</ele>
        <time>2020-09-14T17:42:35Z</time>
      </trkpt>
      <trkpt lat="45.09937" lon="2.64974">
        <ele>1673</ele>
        <time>2020-09-14T17:42:35Z</time>
      </trkpt>
      <trkpt lat="45.09936" lon="2.64972">
        <ele>1673</ele>
        <time>2020-09-14T17:43:27Z</time>
      </trkpt>
      <trkpt lat="45.09931" lon="2.64963">
        <ele>1675</ele>
        <time>2020-09-14T17:43:40Z</time>
      </trkpt>
      <trkpt lat="45.09925" lon="2.64954">
        <ele>1677</ele>
        <time>2020-09-14T17:43:50Z</time>
      </trkpt>
      <trkpt lat="45.09923" lon="2.64944">
        <ele>1677</ele>
        <time>2020-09-14T17:43:59Z</time>
      </trkpt>
      <trkpt lat="45.09918" lon="2.64935">
        <ele>1677</ele>
        <time>2020-09-14T17:44:09Z</time>
      </trkpt>
      <trkpt lat="45.09915" lon="2.64923">
        <ele>1676</ele>
        <time>2020-09-14T17:44:20Z</time>
      </trkpt>
      <trkpt lat="45.0991" lon="2.64913">
        <ele>1676</ele>
        <time>2020-09-14T17:44:29Z</time>
      </trkpt>
      <trkpt lat="45.09907" lon="2.64902">
        <ele>1676</ele>
        <time>2020-09-14T17:44:39Z</time>
      </trkpt>
      <trkpt lat="45.09904" lon="2.64891">
        <ele>1677</ele>
        <time>2020-09-14T17:44:48Z</time>
      </trkpt>
      <trkpt lat="45.09899" lon="2.6488">
        <ele>1677</ele>
        <time>2020-09-14T17:44:57Z</time>
      </trkpt>
      <trkpt lat="45.09896" lon="2.6487">
        <ele>1676</ele>
        <time>2020-09-14T17:45:05Z</time>
      </trkpt>
      <trkpt lat="45.09891" lon="2.6486">
        <ele>1676</ele>
        <time>2020-09-14T17:45:14Z</time>
      </trkpt>
      <trkpt lat="45.09887" lon="2.6485">
        <ele>1677</ele>
        <time>2020-09-14T17:45:21Z</time>
      </trkpt>
      <trkpt lat="45.09882" lon="2.6484">
        <ele>1676</ele>
        <time>2020-09-14T17:45:29Z</time>
      </trkpt>
      <trkpt lat="45.09876" lon="2.64831">
        <ele>1677</ele>
        <time>2020-09-14T17:45:38Z</time>
      </trkpt>
      <trkpt lat="45.09869" lon="2.64825">
        <ele>1676</ele>
        <time>2020-09-14T17:45:46Z</time>
      </trkpt>
      <trkpt lat="45.09863" lon="2.64817">
        <ele>1676</ele>
        <time>2020-09-14T17:45:55Z</time>
      </trkpt>
      <trkpt lat="45.09857" lon="2.64809">
        <ele>1676</ele>
        <time>2020-09-14T17:46:04Z</time>
      </trkpt>
      <trkpt lat="45.09851" lon="2.64801">
        <ele>1677</ele>
        <time>2020-09-14T17:46:13Z</time>
      </trkpt>
      <trkpt lat="45.0985" lon="2.64789">
        <ele>1676</ele>
        <time>2020-09-14T17:46:23Z</time>
      </trkpt>
      <trkpt lat="45.09844" lon="2.64781">
        <ele>1677</ele>
        <time>2020-09-14T17:46:32Z</time>
      </trkpt>
      <trkpt lat="45.09838" lon="2.64772">
        <ele>1678</ele>
        <time>2020-09-14T17:46:41Z</time>
      </trkpt>
      <trkpt lat="45.09836" lon="2.64761">
        <ele>1678</ele>
        <time>2020-09-14T17:46:50Z</time>
      </trkpt>
      <trkpt lat="45.09836" lon="2.64748">
        <ele>1677</ele>
        <time>2020-09-14T17:46:59Z</time>
      </trkpt>
      <trkpt lat="45.09835" lon="2.64736">
        <ele>1678</ele>
        <time>2020-09-14T17:47:09Z</time>
      </trkpt>
      <trkpt lat="45.0983" lon="2.64727">
        <ele>1679</ele>
        <time>2020-09-14T17:47:20Z</time>
      </trkpt>
      <trkpt lat="45.09824" lon="2.64719">
        <ele>1680</ele>
        <time>2020-09-14T17:47:34Z</time>
      </trkpt>
      <trkpt lat="45.09818" lon="2.64712">
        <ele>1682</ele>
        <time>2020-09-14T17:47:47Z</time>
      </trkpt>
      <trkpt lat="45.09813" lon="2.64705">
        <ele>1694</ele>
        <time>2020-09-14T17:47:52Z</time>
      </trkpt>
      <trkpt lat="45.09805" lon="2.64695">
        <ele>1711</ele>
        <time>2020-09-14T17:47:57Z</time>
      </trkpt>
      <trkpt lat="45.09805" lon="2.64688">
        <ele>1698</ele>
        <time>2020-09-14T17:48:17Z</time>
      </trkpt>
      <trkpt lat="45.09805" lon="2.64688">
        <ele>1698</ele>
        <time>2020-09-14T17:48:18Z</time>
      </trkpt>
      <trkpt lat="45.09807" lon="2.64679">
        <ele>1691</ele>
        <time>2020-09-14T17:53:04Z</time>
      </trkpt>
      <trkpt lat="45.09802" lon="2.6467">
        <ele>1688</ele>
        <time>2020-09-14T17:53:17Z</time>
      </trkpt>
      <trkpt lat="45.09797" lon="2.6466">
        <ele>1688</ele>
        <time>2020-09-14T17:53:24Z</time>
      </trkpt>
      <trkpt lat="45.0979" lon="2.64652">
        <ele>1689</ele>
        <time>2020-09-14T17:53:33Z</time>
      </trkpt>
      <trkpt lat="45.09787" lon="2.64641">
        <ele>1689</ele>
        <time>2020-09-14T17:53:49Z</time>
      </trkpt>
      <trkpt lat="45.09783" lon="2.64631">
        <ele>1688</ele>
        <time>2020-09-14T17:53:57Z</time>
      </trkpt>
      <trkpt lat="45.09781" lon="2.64626">
        <ele>1690</ele>
        <time>2020-09-14T17:54:02Z</time>
      </trkpt>
      <trkpt lat="45.09781" lon="2.64626">
        <ele>1690</ele>
        <time>2020-09-14T17:54:03Z</time>
      </trkpt>
      <trkpt lat="45.0978" lon="2.64623">
        <ele>1689</ele>
        <time>2020-09-14T17:54:14Z</time>
      </trkpt>
      <trkpt lat="45.09775" lon="2.64614">
        <ele>1690</ele>
        <time>2020-09-14T17:54:24Z</time>
      </trkpt>
      <trkpt lat="45.09771" lon="2.64605">
        <ele>1691</ele>
        <time>2020-09-14T17:54:32Z</time>
      </trkpt>
      <trkpt lat="45.09771" lon="2.64605">
        <ele>1691</ele>
        <time>2020-09-14T17:54:33Z</time>
      </trkpt>
      <trkpt lat="45.0977" lon="2.64604">
        <ele>1692</ele>
        <time>2020-09-14T17:54:53Z</time>
      </trkpt>
      <trkpt lat="45.09764" lon="2.64608">
        <ele>1694</ele>
        <time>2020-09-14T17:55:10Z</time>
      </trkpt>
      <trkpt lat="45.09764" lon="2.64608">
        <ele>1694</ele>
        <time>2020-09-14T17:55:11Z</time>
      </trkpt>
      <trkpt lat="45.09766" lon="2.64605">
        <ele>1698</ele>
        <time>2020-09-14T17:55:43Z</time>
      </trkpt>
      <trkpt lat="45.09767" lon="2.64593">
        <ele>1696</ele>
        <time>2020-09-14T17:55:59Z</time>
      </trkpt>
      <trkpt lat="45.09765" lon="2.64581">
        <ele>1695</ele>
        <time>2020-09-14T17:56:08Z</time>
      </trkpt>
      <trkpt lat="45.09763" lon="2.6457">
        <ele>1696</ele>
        <time>2020-09-14T17:56:18Z</time>
      </trkpt>
      <trkpt lat="45.09763" lon="2.6457">
        <ele>1696</ele>
        <time>2020-09-14T17:56:19Z</time>
      </trkpt>
      <trkpt lat="45.09763" lon="2.6457">
        <ele>1697</ele>
        <time>2020-09-14T17:56:34Z</time>
      </trkpt>
      <trkpt lat="45.09756" lon="2.64576">
        <ele>1701</ele>
        <time>2020-09-14T17:56:52Z</time>
      </trkpt>
      <trkpt lat="45.0975" lon="2.64585">
        <ele>1703</ele>
        <time>2020-09-14T17:57:14Z</time>
      </trkpt>
      <trkpt lat="45.09747" lon="2.64585">
        <ele>1705</ele>
        <time>2020-09-14T17:57:19Z</time>
      </trkpt>
      <trkpt lat="45.09747" lon="2.64585">
        <ele>1705</ele>
        <time>2020-09-14T17:57:20Z</time>
      </trkpt>
      <trkpt lat="45.09744" lon="2.64582">
        <ele>1706</ele>
        <time>2020-09-14T17:57:41Z</time>
      </trkpt>
      <trkpt lat="45.09736" lon="2.64578">
        <ele>1707</ele>
        <time>2020-09-14T17:57:50Z</time>
      </trkpt>
      <trkpt lat="45.09729" lon="2.64574">
        <ele>1707</ele>
        <time>2020-09-14T17:57:59Z</time>
      </trkpt>
      <trkpt lat="45.09722" lon="2.64566">
        <ele>1708</ele>
        <time>2020-09-14T17:58:13Z</time>
      </trkpt>
      <trkpt lat="45.09715" lon="2.6456">
        <ele>1709</ele>
        <time>2020-09-14T17:58:26Z</time>
      </trkpt>
      <trkpt lat="45.0971" lon="2.64556">
        <ele>1710</ele>
        <time>2020-09-14T17:58:33Z</time>
      </trkpt>
      <trkpt lat="45.0971" lon="2.64556">
        <ele>1710</ele>
        <time>2020-09-14T17:58:34Z</time>
      </trkpt>
    </trkseg>
  </trk>
</gpx>